GFSWCAN_500_rhum_000.txt.gz
RH
26 20 13 5 5 3 2 2 23 46 75 78 83 94 100 100 100 92 92 97 100 86 51 53 47 45 63 71 98 98 95 94 99 88 87 72 57 55 48 49 41 41 44 54 57 74 73 78 73 75 76 76 67 63
28 21 12 5 4 2 3 2 17 50 74 85 86 97 100 89 94 100 95 100 92 54 50 78 44 74 71 79 95 95 98 98 100 96 78 63 74 76 81 77 68 64 57 70 67 72 68 71 70 75 82 80 83 79
28 19 9 5 4 2 2 3 20 54 59 56 63 98 100 92 80 89 99 89 53 54 62 62 51 94 85 90 100 93 97 99 97 99 97 85 93 84 92 85 92 80 70 74 84 69 68 71 71 68 80 82 86 82
27 18 9 5 4 2 2 3 6 35 60 71 76 97 100 75 75 100 98 65 59 86 85 61 56 94 96 98 94 93 97 97 98 100 95 85 81 89 98 100 93 81 78 88 94 89 72 77 70 72 70 79 86 90
27 20 13 5 4 3 3 3 3 13 60 70 75 81 96 90 90 88 96 81 64 94 80 54 65 95 98 99 97 98 98 98 96 100 97 99 86 77 69 78 88 87 80 83 92 80 66 63 64 64 64 76 79 84
28 21 13 6 4 3 3 3 3 9 91 100 76 86 88 97 88 100 97 88 93 100 86 52 63 93 98 98 99 99 99 99 98 99 99 99 84 78 74 65 84 83 83 81 87 89 78 63 64 69 70 73 77 89
29 24 16 8 5 4 4 4 5 5 50 87 79 63 86 88 97 99 88 91 97 98 91 53 58 91 99 98 98 99 98 99 99 99 98 95 96 94 78 77 69 75 77 94 69 80 82 66 67 71 78 88 91 89
30 26 17 8 5 3 4 5 6 4 27 49 51 46 76 90 98 100 100 100 100 100 98 64 52 83 98 98 98 97 93 98 98 98 97 98 98 88 87 91 90 88 92 90 76 69 73 78 74 82 95 88 71 63
32 28 20 8 5 3 3 4 5 5 21 40 43 43 65 96 100 100 100 100 98 99 96 95 64 75 95 99 97 100 100 99 97 95 97 97 98 98 95 93 88 83 89 92 92 93 88 92 96 96 83 73 74 75
34 31 24 12 6 4 3 3 4 7 28 41 37 51 86 100 100 100 100 100 97 85 80 88 48 60 90 96 97 97 100 100 97 99 96 93 98 95 89 92 96 96 94 87 77 84 89 94 91 88 86 80 75 69
38 34 27 16 6 5 3 2 2 4 31 48 64 72 89 100 100 100 100 88 85 68 65 75 48 49 67 84 88 93 96 99 100 98 87 86 100 100 91 86 80 69 55 58 64 70 71 70 70 70 67 64 59 53
42 36 28 13 6 5 4 2 0 5 44 66 71 74 95 100 100 100 97 91 71 64 62 73 80 55 52 65 88 82 87 85 88 99 92 100 94 83 89 91 88 70 64 62 63 68 73 74 71 71 65 51 45 44
45 39 28 13 5 5 4 2 0 3 40 83 99 96 94 99 100 100 97 59 46 43 54 79 89 81 56 59 82 84 62 66 68 73 90 97 80 83 79 78 85 81 76 73 73 76 79 78 69 52 46 54 71 84
47 41 28 16 6 5 4 3 0 1 16 94 100 100 100 98 91 60 44 37 46 63 81 100 100 100 81 69 80 78 67 50 57 64 79 87 81 73 76 80 83 83 81 76 72 68 60 56 59 68 81 89 93 96
50 44 32 18 6 4 4 3 0 1 10 92 100 100 100 96 94 65 53 50 47 64 92 100 100 100 100 86 74 77 74 58 55 61 80 84 78 76 64 61 62 61 62 63 66 67 66 69 80 90 96 100 100 100
51 48 39 28 11 6 4 2 2 6 15 100 100 100 100 82 72 87 74 60 67 92 100 98 94 88 83 77 72 75 78 77 89 96 83 64 56 60 61 70 77 75 76 77 81 84 88 95 99 100 100 100 98 94
55 48 45 32 15 10 5 3 1 11 58 99 100 100 89 73 79 79 69 78 100 100 99 97 92 87 84 84 70 74 82 100 93 77 74 84 77 56 51 49 45 44 48 55 65 77 89 95 96 94 90 86 80 77
58 52 49 38 21 11 7 4 1 4 62 100 100 100 94 80 79 85 87 94 94 97 98 99 100 98 82 82 82 96 100 91 84 78 81 84 82 79 72 68 62 51 47 49 52 56 63 66 66 65 62 62 68 80
63 56 55 40 22 13 11 6 4 0 12 85 100 99 97 99 100 100 100 100 99 96 95 99 95 81 86 95 100 100 97 94 80 77 82 88 88 83 79 78 78 76 72 68 67 66 67 69 72 75 82 91 98 96
66 59 57 46 26 16 13 7 5 2 0 20 91 97 87 100 100 100 100 100 100 100 100 87 82 95 100 100 100 97 95 91 86 79 85 94 96 95 89 87 79 76 76 77 80 79 74 73 76 81 85 85 81 77
72 66 62 48 32 17 16 8 6 3 0 2 27 94 96 100 100 100 100 100 100 93 81 80 99 100 100 100 100 100 97 91 88 88 86 88 92 93 92 87 78 78 86 90 87 86 85 84 85 85 85 84 84 80
74 69 67 58 43 22 17 12 8 6 3 1 9 58 100 100 100 100 100 100 94 92 84 83 100 100 100 100 100 100 96 88 88 91 82 83 89 95 99 96 90 90 92 91 90 91 90 88 87 88 92 98 93 83
71 74 68 54 44 23 19 15 10 8 5 0 10 38 92 100 100 100 100 100 96 94 93 98 100 100 100 100 100 100 100 96 94 98 100 100 99 98 99 98 90 85 85 87 90 92 92 92 94 100 100 100 96 96
79 73 59 48 33 24 22 16 11 10 11 1 15 70 91 100 100 100 100 99 100 100 82 83 100 99 98 94 93 99 100 100 91 96 100 100 98 100 100 100 100 96 89 88 86 86 98 100 100 100 100 89 90 100
76 70 46 35 30 27 20 16 14 14 16 6 4 77 100 100 100 100 100 100 100 100 98 90 98 100 100 95 93 100 100 100 100 100 100 100 100 100 100 100 100 100 100 100 90 95 99 100 100 99 94 95 100 100
61 38 33 27 23 22 19 17 16 19 20 16 2 40 100 100 100 100 100 100 100 100 100 100 100 100 98 95 91 98 100 100 100 100 100 100 100 100 100 100 100 100 100 100 100 100 100 98 92 97 100 100 100 100
49 34 29 21 20 20 22 22 24 26 25 21 4 7 85 100 100 100 100 100 100 100 100 100 100 100 100 100 94 99 100 100 100 100 100 100 100 100 100 100 100 100 100 100 98 93 95 100 100 100 100 100 100 99
34 24 16 17 18 21 25 28 33 33 28 21 10 2 48 100 99 97 100 100 100 100 100 100 100 100 100 100 100 100 100 100 100 100 100 100 100 100 100 100 100 100 100 100 100 100 100 100 100 100 100 100 100 99
16 11 12 15 16 20 30 39 40 36 28 19 12 4 16 86 100 94 98 100 100 100 100 100 100 100 100 100 100 100 100 100 100 100 100 100 100 100 100 100 100 100 100 100 100 100 100 100 100 100 100 100 94 89
9 9 12 15 18 24 40 48 49 42 30 18 13 8 8 45 100 92 93 100 100 100 100 100 100 100 100 100 100 100 100 100 100 100 100 100 99 100 100 100 100 100 100 100 100 100 100 100 99 100 95 89 88 86
8 9 14 19 20 31 44 53 61 50 32 17 14 12 11 26 77 98 92 100 100 100 100 100 100 100 100 100 100 100 100 100 100 100 100 100 100 100 100 100 100 100 100 100 100 100 100 100 99 94 88 86 82 77
8 10 15 20 21 37 49 66 71 67 51 26 19 18 24 44 70 96 100 100 100 100 100 100 100 100 100 100 100 100 100 100 100 100 100 100 100 100 100 100 100 100 100 100 100 98 98 95 91 87 83 78 72 67
10 16 26 30 26 50 57 68 79 81 78 59 30 30 36 70 100 97 100 100 100 100 100 100 100 100 100 100 100 100 100 100 100 100 100 100 100 100 100 100 100 100 99 98 95 91 88 85 80 75 69 64 58 53

GFSWCAN_500_rhum_003.txt.gz
RH
40 36 27 22 13 6 3 2 2 22 35 52 68 72 86 100 100 100 100 99 92 88 95 99 77 50 57 74 73 78 96 94 93 98 85 44 15 27 40 54 46 45 50 59 66 81 79 71 71 72 71 66 70 69
39 36 27 23 15 8 3 2 2 18 31 46 59 59 70 92 100 93 91 100 100 100 98 100 87 52 69 74 68 92 99 98 88 95 96 64 41 54 38 47 48 41 43 62 59 58 50 77 85 85 79 78 78 79
39 36 28 25 20 9 4 3 2 7 26 36 55 69 89 84 96 94 96 100 93 100 100 97 59 73 79 79 72 96 99 98 97 100 99 90 51 66 58 48 61 61 52 56 60 68 74 78 69 76 88 97 99 99
40 37 31 26 19 9 4 2 2 2 23 28 37 58 92 91 90 92 100 100 89 98 94 65 57 88 70 88 83 85 98 98 99 100 98 99 73 92 89 72 68 72 66 61 59 71 69 65 66 69 74 76 80 87
42 38 33 28 17 6 3 2 2 2 12 20 29 54 83 90 87 94 100 86 85 91 69 66 78 75 66 94 98 95 97 98 100 100 96 98 91 96 89 82 87 95 89 68 67 67 58 63 67 64 70 68 80 86
41 39 35 28 13 5 4 2 3 2 3 16 24 41 79 83 84 89 88 89 99 74 74 75 81 72 66 96 99 98 99 100 99 98 96 100 100 92 78 71 89 83 88 94 92 84 85 84 72 62 66 69 63 79
41 40 35 28 14 5 4 2 2 3 1 11 27 53 66 80 87 67 68 78 96 70 67 81 84 55 74 96 99 100 99 100 99 98 98 99 99 94 76 76 79 68 74 82 83 80 83 80 79 65 59 70 72 74
40 39 36 28 14 6 5 2 2 2 2 4 28 39 38 71 86 77 75 90 100 100 88 84 88 60 73 96 97 98 99 100 97 97 96 99 99 96 93 78 70 73 70 74 81 90 69 78 88 75 63 76 87 92
41 40 36 28 12 7 5 2 2 3 3 1 20 33 46 81 91 86 88 97 97 92 79 81 100 73 79 94 98 99 94 96 99 96 100 99 98 98 94 97 97 86 80 78 82 74 64 70 75 84 81 88 94 82
42 41 37 30 15 9 6 2 1 2 3 14 25 28 50 75 100 95 90 84 100 85 78 76 93 85 86 91 95 99 97 99 99 100 98 98 98 93 92 85 86 81 66 70 92 94 92 86 89 93 97 87 72 71
42 42 39 32 22 10 6 2 0 1 3 50 79 55 63 81 91 100 99 90 84 72 71 80 95 100 95 88 92 97 99 98 93 97 94 97 98 94 78 84 84 79 86 91 90 92 99 98 100 100 95 89 80 73
41 41 40 34 22 10 5 2 0 1 4 28 86 73 77 83 100 100 91 89 63 65 61 79 94 98 82 69 83 91 94 98 98 95 93 96 90 78 76 85 90 87 86 74 65 73 80 80 78 76 73 67 63 63
42 41 42 37 25 10 6 3 0 1 6 30 56 67 62 73 100 98 71 62 45 54 66 89 89 93 75 55 65 76 83 80 91 86 86 95 92 92 82 80 90 91 88 75 69 73 82 82 78 75 75 77 76 54
44 43 43 39 32 13 9 5 1 1 4 50 64 75 77 96 100 74 62 56 47 60 100 100 99 93 90 84 63 58 61 73 71 75 89 76 72 78 83 86 91 95 92 90 79 74 72 72 80 84 80 63 61 71
47 47 47 42 36 17 11 5 3 0 3 40 86 100 100 98 87 57 55 68 82 94 99 100 98 98 100 93 84 74 69 68 83 96 92 92 79 72 74 80 82 88 92 95 96 96 93 87 81 76 74 81 94 100
46 50 52 49 40 23 14 6 4 0 0 19 92 100 100 99 82 69 66 79 86 88 100 99 96 96 84 77 70 72 70 69 94 96 90 89 90 90 88 80 74 69 69 73 75 76 75 72 73 79 92 100 100 100
47 47 53 54 46 30 16 9 5 2 1 6 74 100 100 100 97 73 76 93 100 97 92 87 88 93 94 76 70 73 80 94 91 83 84 84 84 80 70 66 73 74 69 68 70 72 74 77 85 94 99 100 100 100
53 50 54 56 50 34 20 16 7 4 0 4 43 98 100 96 93 87 75 98 100 93 94 92 87 81 72 68 72 92 100 96 81 87 83 79 76 80 84 72 59 56 54 50 46 46 51 60 73 90 99 96 91 87
56 52 57 56 55 44 28 19 14 6 1 1 12 71 90 90 87 86 85 99 100 100 100 87 82 66 60 72 97 100 97 80 73 76 79 80 76 73 76 80 80 77 72 68 59 53 55 59 62 65 68 70 74 78
57 54 58 59 57 49 33 23 20 13 7 1 3 40 84 84 99 94 96 95 98 100 99 84 73 80 90 99 100 100 93 87 79 73 72 71 70 72 79 81 82 82 80 78 80 84 83 82 81 83 88 94 95 95
61 59 61 60 59 55 34 27 23 17 12 5 1 1 63 97 100 100 100 100 100 100 88 77 84 93 97 100 100 100 98 96 88 81 71 65 71 78 83 88 87 87 85 86 83 80 82 86 87 87 86 89 90 91
69 66 66 61 61 53 32 31 22 16 12 6 5 0 0 42 100 100 100 100 100 100 92 70 74 100 100 100 100 100 100 92 89 86 72 64 72 78 85 95 96 92 89 85 84 87 94 93 93 96 98 100 100 100
74 69 65 65 64 45 34 27 15 13 9 6 6 5 0 0 29 100 100 100 100 100 94 76 87 100 100 99 100 100 98 96 88 81 80 81 82 87 91 96 99 95 95 93 90 93 100 100 100 100 100 100 100 100
77 71 68 66 56 41 34 19 11 9 6 7 8 7 4 0 1 21 94 100 100 100 100 86 74 96 100 100 100 100 100 100 98 93 90 95 93 94 100 100 100 100 100 100 100 100 100 100 100 100 93 100 100 95
79 76 72 68 52 37 22 13 10 7 7 8 11 12 12 3 0 12 34 94 100 100 100 100 100 93 100 100 98 93 93 96 100 100 100 100 100 100 100 100 100 100 100 100 100 100 100 100 100 100 100 100 99 91
75 70 71 53 39 24 13 9 8 8 8 11 14 17 18 10 0 18 84 97 100 100 100 100 100 100 90 81 80 89 83 90 95 97 100 100 100 100 100 100 100 100 100 100 100 100 100 100 100 100 100 100 100 98
80 66 53 41 24 13 9 8 8 8 10 15 20 25 24 19 1 14 86 100 100 100 100 100 100 100 100 100 100 100 95 94 99 100 100 100 100 100 100 100 100 100 100 100 100 100 100 100 100 100 100 100 100 100
62 58 44 24 13 9 8 7 8 10 14 21 28 29 26 19 6 4 56 99 100 100 98 89 99 100 100 100 100 100 93 92 95 93 98 100 100 100 100 100 100 100 100 100 100 100 100 100 100 100 100 100 100 100
65 49 24 14 9 8 8 8 11 14 21 29 34 33 26 16 6 2 41 94 100 99 100 100 90 94 94 96 100 100 100 100 100 96 93 100 100 100 100 100 100 100 100 100 100 100 100 100 99 100 100 100 100 98
51 25 14 10 8 8 8 10 14 22 31 36 39 35 17 12 5 4 42 94 98 100 100 100 100 100 100 100 100 100 100 100 100 100 100 100 100 100 100 100 100 100 100 100 100 100 100 100 100 100 100 99 96 91
27 17 10 8 8 9 10 11 18 31 39 48 46 34 14 10 4 17 91 100 99 100 100 100 100 100 100 100 100 100 100 100 100 100 100 100 100 100 100 100 100 100 100 100 100 100 100 100 100 98 97 96 95 93
20 12 9 8 9 10 11 12 22 44 54 53 51 32 15 12 10 62 100 100 100 100 100 100 100 100 100 100 100 100 100 100 100 100 100 100 100 100 100 100 100 100 100 100 100 100 100 100 100 99 96 90 81 73
15 9 9 9 9 11 15 19 36 53 62 60 56 48 24 22 41 91 100 100 100 100 100 100 100 100 100 100 100 100 100 100 100 100 100 100 100 100 100 100 100 100 100 100 100 100 97 95 94 88 80 73 66 61

GFSWCAN_500_rhum_006.txt.gz
RH
34 28 26 33 28 20 14 7 3 2 11 29 49 78 96 93 97 100 99 100 97 98 98 97 100 100 92 54 60 99 93 94 90 81 88 94 62 22 38 62 59 53 64 67 60 56 59 68 73 77 74 72 74 77
35 29 26 30 30 20 14 8 2 2 2 20 40 51 87 76 85 87 96 94 100 100 100 100 99 99 94 67 100 89 96 100 100 97 92 95 83 39 31 51 56 47 44 55 67 57 48 51 58 58 56 66 72 72
35 30 27 28 30 22 16 9 2 2 2 7 33 44 72 75 80 91 91 80 94 87 95 95 96 100 81 68 80 93 89 100 99 99 94 91 91 58 61 47 63 52 44 41 50 52 62 65 65 63 64 70 73 72
37 33 29 28 30 23 18 10 4 1 2 3 23 37 72 66 83 91 87 87 77 99 96 95 99 97 74 71 68 80 80 100 100 100 100 95 92 75 85 74 62 71 60 42 46 64 78 86 82 72 70 79 83 81
39 36 31 28 29 23 19 10 4 1 2 2 15 27 51 58 73 84 82 81 82 94 84 83 93 85 66 79 56 70 86 87 96 98 92 96 95 89 69 88 91 92 77 59 59 74 78 83 78 78 75 84 82 96
42 38 32 31 30 25 19 9 4 1 0 2 4 24 42 53 80 70 69 62 64 75 69 80 87 75 65 66 55 93 100 97 99 98 96 97 98 77 74 84 100 96 83 80 74 80 94 92 94 84 84 91 81 78
45 40 33 33 31 26 19 8 5 1 0 1 2 14 30 52 85 69 59 69 77 67 59 77 74 68 76 65 64 97 100 99 94 96 88 96 100 94 94 87 99 80 83 86 76 76 86 93 98 90 78 83 75 80
48 43 33 32 32 28 20 9 5 1 0 2 3 12 23 50 96 77 84 97 76 65 79 80 76 76 84 75 72 98 100 99 98 99 100 97 98 87 91 92 79 72 66 71 79 75 77 83 88 94 94 85 71 85
51 45 36 32 32 29 20 8 4 1 0 3 3 15 28 41 100 82 92 90 69 69 75 71 72 82 88 78 82 97 100 100 95 96 94 94 88 97 96 89 83 78 76 68 66 73 81 95 85 91 94 89 76 85
56 48 39 34 33 29 19 8 4 1 1 3 2 19 37 40 100 89 100 90 71 71 70 81 78 82 90 86 90 94 100 100 97 97 91 90 100 98 92 96 100 99 100 95 91 97 98 75 69 82 92 100 100 100
61 51 41 35 34 30 18 9 5 0 2 2 2 28 48 78 100 92 95 82 64 57 72 81 86 83 85 78 85 94 98 100 100 100 96 99 98 96 93 94 93 96 98 88 94 100 100 92 89 100 100 100 100 87
64 55 42 35 36 31 20 11 6 1 2 4 10 75 90 96 100 98 89 70 53 57 64 87 91 80 77 76 77 90 93 98 99 99 99 99 92 97 88 86 85 92 94 97 98 98 99 100 100 100 100 100 98 95
65 58 43 36 37 34 24 13 8 1 3 8 44 96 100 100 100 100 69 64 50 46 76 99 100 100 89 85 81 84 83 86 92 100 100 95 88 88 84 84 86 89 92 98 95 88 85 89 90 88 85 83 81 84
70 61 45 38 37 35 29 17 10 4 3 17 58 96 100 100 100 91 63 51 53 67 96 100 97 83 80 93 87 76 65 78 86 85 92 90 79 94 97 89 79 85 99 97 91 79 74 79 84 84 83 82 87 92
74 62 48 42 38 36 34 23 13 7 1 14 78 100 100 100 99 84 67 57 59 61 97 100 100 100 100 80 79 69 57 56 60 76 84 88 85 76 78 86 89 88 84 84 90 94 92 84 80 87 97 99 97 90
75 64 50 46 40 39 38 29 17 9 3 3 33 87 97 89 94 80 68 65 62 65 98 97 96 97 94 77 68 70 66 62 62 80 83 89 86 86 80 75 75 81 83 82 89 95 97 99 100 99 100 97 92 94
76 64 53 49 42 42 41 36 22 15 7 1 12 46 68 83 74 75 72 70 64 65 89 86 78 83 81 76 63 60 78 92 88 94 79 73 85 88 90 88 88 86 82 81 79 78 80 81 86 90 92 97 100 100
82 65 53 50 45 46 47 40 31 21 11 6 1 8 51 72 86 80 72 71 89 86 84 76 80 79 72 64 82 98 99 96 96 87 68 63 68 78 84 89 80 71 69 72 71 67 62 62 64 67 76 90 100 100
83 67 57 52 50 49 48 46 40 24 19 10 6 2 10 45 57 68 83 76 80 100 100 93 80 69 67 73 94 98 92 83 75 69 63 60 65 68 76 84 82 78 68 60 58 56 55 52 51 54 60 67 76 80
83 69 62 58 54 51 51 49 44 29 25 18 10 6 3 13 80 89 88 99 93 97 95 86 72 68 73 82 98 100 94 86 76 66 62 59 60 70 80 79 73 68 73 79 81 77 72 68 63 62 66 71 77 87
83 75 69 66 61 55 51 49 46 36 30 27 13 9 5 4 3 63 100 98 100 100 100 92 80 77 77 81 99 100 99 92 81 76 68 62 63 71 72 72 72 71 77 80 83 84 85 86 90 96 95 96 100 100
83 78 74 69 64 61 60 57 50 40 34 28 14 9 6 5 4 2 41 100 100 100 100 100 99 87 96 98 100 100 97 92 82 74 69 69 75 79 83 80 78 81 85 90 98 98 96 95 90 93 100 100 99 98
87 80 78 73 66 64 62 60 56 43 35 22 13 8 6 6 5 5 2 22 100 100 100 100 100 100 100 100 100 100 98 97 90 80 82 84 92 98 92 83 85 88 91 99 100 100 100 100 98 100 100 100 100 100
88 82 73 69 70 66 62 59 49 40 28 16 10 8 6 6 6 6 6 2 16 100 100 100 100 100 100 100 100 100 100 98 97 93 87 87 98 99 95 95 98 100 100 100 100 100 100 100 100 100 100 100 100 100
85 82 75 71 66 62 59 50 46 33 19 11 8 7 6 6 6 8 9 8 2 12 96 100 100 100 100 100 100 100 98 91 92 96 94 89 95 100 100 100 100 100 100 100 100 100 100 100 100 100 100 100 100 100
89 73 81 66 58 59 55 52 40 21 12 8 7 6 6 6 8 11 16 13 6 1 10 87 100 100 100 100 100 100 100 97 83 88 90 89 94 100 100 100 100 100 100 100 100 100 100 100 100 100 100 100 99 94
90 90 82 64 61 63 58 45 25 14 8 7 7 7 7 8 13 21 19 16 9 3 2 10 81 100 100 100 100 100 100 100 84 83 93 90 91 100 100 100 100 100 100 100 100 100 100 100 100 100 100 100 100 100
95 79 62 69 72 66 52 30 16 9 7 7 8 8 10 16 24 25 22 18 12 6 19 74 53 70 100 100 100 100 100 100 98 83 83 91 87 84 91 97 100 97 100 100 100 100 100 100 100 100 100 100 100 100
72 64 64 71 70 56 36 20 10 7 7 8 7 9 14 28 33 29 22 19 13 5 31 95 100 94 89 100 100 100 100 94 74 66 65 69 90 100 100 99 100 100 100 100 100 100 100 100 100 100 100 100 100 100
83 73 72 72 61 43 27 13 7 7 7 7 7 13 28 39 34 22 13 11 7 5 40 95 100 100 100 100 98 100 100 96 99 94 97 100 100 98 100 100 100 100 100 100 100 100 100 100 100 100 100 100 100 100
79 76 71 65 49 36 19 8 7 8 8 7 10 20 37 40 28 11 9 5 3 21 90 99 100 100 100 100 100 100 100 100 100 100 100 99 96 96 100 100 100 100 100 100 100 100 100 100 100 100 100 100 100 100
71 68 64 53 44 28 10 8 8 8 7 9 16 31 48 40 16 10 9 19 91 98 100 100 100 100 100 100 100 100 100 100 100 100 100 100 100 100 100 100 100 100 100 100 100 100 100 100 100 100 100 100 100 100
65 64 61 56 39 15 8 8 8 8 8 12 22 38 49 43 20 15 38 97 100 100 100 100 100 100 100 100 100 100 100 99 99 100 100 100 100 100 100 100 100 100 100 100 100 100 100 100 100 100 100 100 97 88

GFSWCAN_500_rhum_009.txt.gz
RH
63 57 52 40 35 24 21 19 13 6 1 7 32 46 58 65 67 88 88 100 96 90 100 95 93 93 99 76 70 69 65 78 94 94 91 96 70 47 56 43 64 58 46 45 55 66 80 95 90 96 89 95 98 98
71 61 55 45 38 25 23 20 15 7 3 1 29 44 47 57 73 76 84 90 84 96 91 88 77 87 100 72 57 63 69 91 97 98 95 100 84 41 41 31 51 61 42 38 41 62 65 66 74 83 82 83 80 85
72 69 58 49 40 28 25 20 16 8 5 1 2 28 52 69 66 80 82 88 88 89 77 90 84 98 93 95 76 69 74 97 98 100 100 97 92 69 34 20 42 57 50 39 40 44 54 73 75 67 62 62 65 64
75 77 63 51 42 32 28 21 18 9 6 1 1 5 20 65 75 78 64 73 90 100 97 94 92 85 80 84 73 92 97 99 99 100 100 92 96 86 62 36 36 52 53 46 42 48 57 62 68 64 62 74 78 78
78 75 68 55 46 37 29 22 19 11 7 2 0 2 11 49 79 86 73 72 77 76 65 79 80 89 92 95 91 94 81 95 94 95 99 97 94 99 85 65 69 54 55 58 53 51 64 65 70 73 75 79 76 79
81 72 68 62 51 41 28 22 20 12 8 1 0 1 20 49 81 82 75 86 73 66 64 63 68 87 90 79 91 85 81 99 98 90 98 94 92 88 84 75 99 87 70 75 77 70 70 82 87 97 94 93 79 73
73 62 69 65 53 42 28 23 20 13 8 1 1 1 19 75 90 78 71 77 79 68 64 64 68 82 86 78 85 78 91 100 100 100 99 92 83 72 72 91 100 82 76 90 91 87 80 84 90 94 94 96 88 66
77 70 74 66 52 40 28 24 21 13 7 1 2 1 15 77 80 79 72 91 80 67 67 76 71 78 78 79 87 82 91 98 98 100 98 99 84 74 84 96 72 75 68 79 92 90 90 95 97 99 99 99 85 76
80 71 77 66 52 41 29 25 21 12 6 2 2 2 10 65 82 80 97 98 94 72 64 66 75 79 78 77 88 88 90 99 98 100 96 93 90 93 92 91 88 85 72 65 69 71 75 87 94 100 98 98 97 91
80 71 78 65 51 41 30 26 22 11 4 3 1 3 13 89 100 100 100 100 94 75 72 72 81 81 78 83 82 75 79 97 98 99 98 98 100 95 96 98 96 88 80 78 81 77 75 85 95 96 92 100 92 77
80 71 77 64 52 40 31 28 22 10 3 3 1 3 23 100 100 100 100 98 84 71 71 82 89 78 76 77 81 73 73 94 99 99 99 96 94 96 97 95 98 100 99 97 94 94 96 97 98 97 100 98 99 98
76 75 83 63 51 40 32 29 22 10 3 4 2 6 67 100 100 100 100 89 75 79 72 95 97 92 84 75 77 71 66 86 93 96 100 98 95 98 100 98 96 99 97 98 95 98 98 96 94 96 98 99 98 96
76 80 85 64 51 41 32 30 23 10 3 7 9 18 93 100 100 98 86 86 68 66 74 99 95 90 87 85 83 79 62 64 83 92 97 92 99 100 100 99 96 96 96 98 98 96 96 97 97 97 96 95 94 88
78 84 84 66 54 42 34 31 26 13 4 10 18 39 91 100 100 87 82 74 71 78 73 84 100 92 86 89 80 76 63 63 67 82 89 81 94 97 100 100 100 100 100 100 100 99 96 94 92 93 93 90 87 82
87 88 87 68 56 44 36 32 30 17 10 4 38 52 84 90 98 96 59 59 68 82 77 73 90 97 86 78 84 78 64 55 62 69 84 80 74 90 99 100 100 98 96 99 100 97 96 90 84 83 81 79 76 82
100 92 89 70 60 47 39 36 34 24 14 8 13 63 80 79 82 70 43 48 57 68 73 75 88 90 76 74 82 79 72 78 75 65 62 66 68 73 79 97 89 88 93 91 92 97 98 99 100 97 100 98 98 96
99 93 88 77 65 51 44 40 38 33 21 14 8 7 48 72 76 78 70 55 52 57 64 67 70 79 75 70 65 88 100 98 95 93 85 80 78 80 84 80 84 88 86 87 89 88 89 93 99 100 98 89 90 98
99 100 94 81 70 56 48 46 42 40 32 22 18 10 4 40 74 77 80 80 74 70 67 65 56 54 62 59 61 84 96 98 89 81 68 66 73 76 81 84 83 83 85 87 86 85 88 91 93 92 89 83 84 85
100 100 100 88 72 61 54 54 47 45 42 37 25 22 14 8 7 49 78 86 95 92 84 70 58 46 47 54 59 61 81 92 95 91 79 64 62 67 78 81 80 86 90 89 78 69 68 65 61 57 56 57 57 59
100 98 100 90 77 65 59 59 52 46 49 43 34 28 27 16 10 6 4 22 54 65 76 73 59 50 46 51 56 60 63 83 84 93 88 81 68 64 65 70 72 82 94 93 91 83 70 64 64 65 67 66 63 65
100 100 100 95 80 66 62 61 58 51 50 48 42 35 31 26 16 12 8 6 4 8 52 82 85 89 65 54 55 69 89 97 89 81 75 70 71 72 68 69 76 83 96 95 88 83 84 85 85 82 82 83 90 99
98 100 100 96 79 66 66 66 59 54 49 45 43 39 34 28 20 15 11 8 6 5 5 27 76 100 100 98 89 88 84 99 100 90 75 67 62 56 69 81 82 83 87 94 94 88 88 90 90 93 96 100 100 100
97 94 100 86 72 66 66 66 65 56 49 43 42 41 38 28 21 18 12 7 5 5 4 4 20 97 100 100 100 100 100 100 100 94 82 74 69 66 69 76 85 88 89 91 96 98 93 94 100 100 100 100 100 100
100 99 95 82 77 71 68 68 60 51 48 48 47 45 35 25 18 12 8 5 4 4 5 5 6 32 100 100 100 100 100 100 100 98 89 80 81 75 74 81 92 100 100 99 92 96 100 100 100 100 100 100 100 100
100 100 89 79 78 75 75 64 53 49 50 53 50 37 27 21 12 7 5 5 5 5 5 6 7 7 15 92 100 100 100 100 100 100 96 86 85 83 87 95 100 100 100 99 98 100 100 100 100 100 100 100 100 100
100 91 94 88 79 79 75 70 61 58 56 54 42 31 24 13 7 6 5 5 6 6 7 10 11 10 7 9 64 100 100 100 100 99 100 100 91 84 86 86 87 98 100 100 100 100 100 100 100 100 100 100 100 100
100 94 92 83 79 75 70 66 64 59 58 49 34 25 14 7 6 5 5 6 7 9 12 14 14 13 7 3 22 72 100 100 100 100 100 100 100 91 83 83 95 98 100 100 100 100 100 100 100 100 100 100 100 100
100 97 78 78 80 71 64 64 62 62 55 44 32 15 8 6 6 6 6 6 9 14 17 16 16 13 6 2 6 56 100 100 100 100 100 100 91 76 80 91 96 100 100 100 100 100 100 100 100 100 100 100 100 100
96 87 80 88 82 77 71 63 62 57 49 39 19 9 7 6 6 6 7 10 17 20 20 18 16 14 7 4 11 37 76 100 100 99 98 100 98 95 93 96 100 100 100 100 100 100 100 100 100 100 100 100 100 100
88 83 86 86 79 73 62 59 58 54 45 26 11 7 7 6 6 7 12 18 20 13 8 9 12 11 8 12 48 77 89 96 100 100 100 100 100 95 92 99 100 99 100 100 100 100 100 100 100 100 100 100 100 100
86 96 90 83 74 63 58 58 56 52 33 14 8 7 6 6 10 21 24 18 10 6 5 4 4 7 17 60 100 100 100 100 100 100 100 100 100 100 100 100 100 97 97 100 100 100 100 100 100 100 100 100 100 100
100 98 84 73 66 61 60 60 56 45 24 10 7 7 6 7 12 28 26 18 8 12 11 16 50 72 82 94 90 100 100 100 100 97 100 100 100 100 99 99 100 100 100 100 100 100 100 100 100 100 100 100 100 100
98 94 86 70 65 65 64 61 54 37 15 8 8 7 6 8 21 32 27 14 24 63 92 92 98 99 90 94 88 100 100 100 100 100 100 100 100 98 91 93 100 100 100 100 100 100 100 100 100 100 100 100 100 100

GFSWCAN_500_rhum_012.txt.gz
RH
79 69 68 61 65 62 49 42 32 20 18 16 6 12 27 28 39 57 80 73 70 73 90 87 92 98 100 84 61 66 76 79 81 72 74 80 61 56 66 56 57 59 62 51 64 75 78 86 98 100 91 85 90 94
68 68 75 63 63 61 49 42 31 20 19 18 12 3 21 27 34 39 64 76 83 92 83 88 93 83 99 84 72 68 79 76 78 84 93 84 67 44 61 56 40 52 53 50 52 62 71 81 96 99 96 92 90 84
69 72 72 62 58 61 57 42 30 22 18 19 13 7 2 38 46 53 67 74 70 71 82 88 89 82 96 86 62 70 85 77 71 89 90 86 77 49 42 51 47 35 47 54 42 48 65 71 73 76 78 80 86 82
65 74 72 67 62 66 60 46 32 21 18 19 11 6 1 13 53 52 59 64 61 66 76 62 63 92 90 89 81 75 94 76 82 93 95 92 89 63 41 38 37 31 32 56 52 45 55 67 75 85 83 90 86 84
71 81 87 77 70 63 60 47 33 20 19 19 9 4 2 1 43 60 60 63 68 71 72 62 73 75 82 81 100 80 81 95 86 88 96 99 93 87 65 54 49 33 28 51 60 57 49 55 78 89 78 83 86 90
61 74 80 88 72 62 57 50 32 21 20 17 7 3 2 1 34 71 72 70 71 72 84 78 77 72 81 99 100 90 98 85 81 92 89 90 98 79 77 80 72 50 40 40 63 70 59 57 75 84 82 89 80 79
64 70 86 91 79 63 62 51 27 22 20 14 4 3 1 1 58 94 82 72 69 73 76 68 72 66 92 100 85 88 96 85 85 94 95 94 100 81 79 88 90 70 51 72 69 85 88 75 83 87 87 85 81 84
69 74 94 95 89 68 62 48 26 23 20 11 4 2 1 2 83 100 100 94 72 68 74 78 67 58 82 97 82 84 88 86 86 95 95 93 95 82 91 91 73 66 73 70 85 96 94 94 94 100 99 96 98 96
77 76 100 88 87 79 64 44 27 23 19 7 4 1 1 6 97 100 100 100 89 80 74 86 76 66 80 86 82 84 84 88 94 97 97 96 98 100 87 86 85 84 80 75 69 78 89 85 92 95 99 98 98 96
82 87 100 78 76 78 63 40 29 22 16 6 3 2 2 43 100 100 100 100 98 91 87 73 71 64 68 77 76 75 79 91 97 96 98 98 100 88 87 91 90 92 91 85 75 70 70 72 76 84 96 91 96 97
92 97 99 90 81 72 65 36 29 24 13 5 3 2 12 91 100 100 100 100 96 87 81 76 71 67 70 80 82 82 88 84 95 98 100 99 100 95 98 93 92 88 91 86 88 88 79 77 81 88 86 95 100 99
80 79 92 98 89 73 66 36 30 24 11 5 4 8 71 100 100 100 100 94 76 91 90 82 67 66 77 75 71 73 79 78 87 99 99 100 100 100 100 100 100 98 100 99 98 95 97 97 100 91 92 96 94 99
87 76 91 99 93 79 65 37 32 25 12 7 8 48 98 97 97 100 94 83 87 100 100 82 76 77 81 80 78 70 70 68 77 96 99 100 100 100 100 100 100 100 99 100 100 98 98 99 97 98 98 98 97 94
92 78 94 98 98 88 65 40 34 28 15 7 11 83 82 86 76 94 75 64 85 94 96 82 71 69 79 77 82 82 74 69 62 72 97 93 99 99 100 100 100 100 100 99 100 100 99 98 98 96 95 97 97 93
93 89 89 94 96 89 68 44 38 32 20 8 17 56 68 68 66 66 55 57 75 82 88 91 76 73 78 78 75 75 78 75 76 81 84 83 93 97 100 100 100 100 100 99 96 97 98 99 100 99 98 95 90 86
97 90 97 95 95 88 74 50 41 37 29 17 9 29 55 61 70 67 46 47 68 88 86 82 72 67 66 71 69 71 94 100 99 98 93 71 70 80 91 100 100 100 100 100 100 100 98 96 96 95 95 98 99 100
100 100 100 100 100 92 79 57 46 41 35 28 20 9 15 45 62 77 50 43 50 58 62 65 68 64 58 65 65 94 100 89 90 93 84 84 66 64 73 88 96 100 100 100 100 100 100 100 100 100 100 100 100 98
100 100 100 100 100 96 85 64 52 48 42 37 34 26 18 7 35 64 73 58 45 56 58 56 54 61 60 55 60 77 100 95 94 93 91 87 86 80 76 79 86 92 95 99 100 100 100 100 99 97 95 94 92 92
100 100 100 100 100 100 86 72 58 54 48 43 38 35 29 25 17 8 28 65 72 66 67 85 89 66 58 54 58 61 74 90 91 83 71 74 80 80 91 87 85 91 97 94 91 90 89 86 87 88 86 81 72 64
100 100 100 100 100 99 87 79 68 61 57 50 45 40 37 32 26 25 19 11 10 29 51 52 53 53 58 69 69 60 59 64 80 86 69 61 60 71 81 82 83 90 97 90 84 89 94 86 72 67 64 63 64 67
100 100 100 100 100 94 89 87 76 66 64 58 52 46 43 40 39 33 28 25 20 16 13 8 8 24 62 55 52 72 69 61 60 78 84 72 59 58 67 80 86 82 84 81 80 91 98 99 99 91 82 81 82 82
100 100 100 100 100 96 96 92 77 71 66 65 57 49 45 42 38 39 36 34 31 24 22 18 14 10 7 5 8 33 50 62 61 76 93 88 67 56 60 69 70 77 88 86 82 84 96 98 98 98 97 96 98 100
100 100 100 100 100 98 99 95 83 74 64 65 57 49 42 40 41 41 41 39 35 30 25 22 16 11 6 4 4 4 5 23 78 86 84 90 92 74 71 70 67 65 61 80 93 85 87 92 97 100 100 100 100 100
100 100 100 100 100 100 100 100 94 80 69 65 56 47 42 43 44 44 43 38 33 29 23 16 10 6 4 3 3 4 4 7 38 96 100 100 88 75 78 88 86 79 62 59 74 80 86 97 100 100 100 100 100 100
100 100 98 96 99 100 99 98 94 85 76 65 58 53 50 46 44 42 40 35 28 18 12 7 4 3 3 3 3 4 4 6 33 100 100 100 100 100 85 97 100 87 75 68 70 87 99 100 100 100 100 100 100 100
100 98 96 100 99 98 94 99 96 82 73 62 53 54 52 46 46 42 36 23 13 8 5 4 3 3 4 4 4 5 6 6 7 70 100 100 100 100 100 100 100 97 92 91 96 100 100 100 100 100 100 100 100 100
96 98 100 100 97 93 99 98 84 74 61 56 58 56 49 46 43 35 20 11 7 4 4 4 4 4 5 7 7 8 12 9 8 34 99 100 100 100 100 100 100 100 100 99 99 100 100 100 100 100 100 100 100 100
100 100 100 97 87 90 91 82 73 68 66 62 56 51 47 45 35 22 13 8 5 4 4 4 5 8 12 13 17 13 12 11 8 8 62 100 100 100 100 100 99 100 100 100 100 100 100 100 100 100 100 100 100 100
100 100 89 79 80 82 81 81 79 73 63 54 51 51 49 40 27 16 8 5 4 4 5 8 13 13 13 12 14 16 13 11 8 6 27 95 100 100 100 100 100 100 100 100 100 100 100 100 100 100 100 100 100 100
97 87 84 86 85 82 83 78 70 63 55 51 52 53 45 34 20 11 6 5 4 5 7 11 13 9 5 5 8 13 14 8 3 11 12 55 100 100 100 100 100 100 100 100 99 100 100 100 100 100 100 100 100 100
99 90 93 96 94 89 82 72 63 57 55 56 57 50 43 28 11 6 5 5 5 7 12 13 9 4 2 2 5 8 8 9 12 64 76 80 100 100 100 100 100 100 100 100 100 100 100 100 100 100 100 100 100 100
82 88 92 96 97 91 83 74 64 57 59 59 54 45 37 18 7 6 5 5 7 14 14 10 19 19 19 13 8 15 33 55 85 100 100 100 100 100 100 100 100 100 100 100 100 100 100 100 100 100 100 100 100 100
86 92 86 89 96 88 81 74 62 61 62 56 50 41 27 12 6 6 6 6 14 17 13 31 57 61 79 90 86 99 100 100 92 100 100 100 100 100 100 100 100 100 100 100 100 100 100 100 100 100 100 100 100 100

GFSWCAN_500_rhum_015.txt.gz
RH
76 70 68 50 54 49 48 38 42 50 40 28 21 21 15 7 13 20 20 57 59 63 53 54 66 72 73 74 64 68 75 78 70 60 50 49 58 60 68 83 70 61 65 67 64 62 65 79 84 94 89 82 84 89
78 67 58 47 54 51 56 45 42 54 47 32 22 20 19 11 3 14 22 41 61 68 56 58 69 77 81 83 75 84 90 82 82 78 73 67 69 70 64 71 71 62 53 58 56 57 59 63 67 77 86 86 84 87
92 74 46 55 66 54 60 51 46 57 50 33 23 19 17 12 4 5 27 29 63 66 62 72 67 70 82 89 91 89 87 92 81 78 88 86 73 71 68 60 61 65 43 46 59 51 57 66 66 66 68 72 79 82
97 88 66 52 57 54 59 51 54 57 49 31 23 18 14 10 4 3 85 46 46 62 67 67 75 80 87 99 81 74 81 98 79 72 85 85 80 78 71 51 47 60 54 43 35 57 54 53 62 66 77 79 78 86
99 97 87 73 60 57 52 51 62 59 45 29 23 18 12 5 2 2 86 100 86 74 62 70 68 84 87 100 92 74 73 96 84 95 90 94 97 82 71 46 54 50 44 42 34 42 59 57 51 61 79 81 78 90
95 97 98 92 62 53 46 55 70 59 41 27 20 15 7 2 2 2 85 100 92 85 68 75 58 72 96 95 90 100 91 79 96 93 84 90 96 81 65 71 84 63 57 47 44 42 52 62 57 58 78 83 79 77
97 98 95 92 68 59 52 70 68 57 36 25 17 11 4 1 1 5 100 100 100 93 85 81 70 77 93 93 90 96 92 100 95 83 83 84 81 70 66 85 95 76 67 68 57 60 71 82 78 80 95 90 84 84
99 100 87 72 67 64 63 79 72 53 31 21 14 7 2 1 1 30 100 100 100 98 83 74 65 80 76 92 98 100 100 100 94 84 83 83 83 72 85 72 57 63 70 73 76 86 98 100 95 89 100 100 95 96
88 97 92 75 61 64 79 86 78 45 27 18 12 4 1 1 2 65 100 100 100 88 75 82 75 74 73 82 96 97 93 94 93 90 88 89 91 94 82 69 69 64 65 67 71 80 94 98 98 99 96 97 95 100
99 99 98 91 74 77 97 91 74 39 25 16 8 1 1 1 27 98 100 100 96 80 99 99 84 76 63 77 93 91 92 91 95 94 97 100 99 94 98 90 83 81 89 92 91 86 80 82 93 86 84 93 100 91
98 100 98 90 90 77 89 97 66 35 24 16 7 2 5 60 100 100 100 100 95 85 90 99 85 79 67 63 76 76 80 89 100 100 100 100 100 100 98 99 97 99 100 100 96 84 78 79 82 79 84 95 95 94
95 100 100 91 85 77 87 92 59 35 24 14 7 8 56 100 99 100 100 92 89 100 98 91 70 63 61 60 61 74 80 93 96 99 100 99 100 100 100 99 99 99 99 100 91 98 100 100 98 92 95 100 89 96
100 100 95 97 97 92 93 88 56 37 26 12 9 33 49 74 84 86 85 73 73 92 95 84 71 62 56 55 68 76 71 70 84 92 100 100 100 100 100 99 99 99 99 100 98 97 97 99 100 100 100 98 98 100
100 100 87 91 100 100 96 88 57 39 29 14 13 48 36 40 55 65 73 79 86 100 88 78 69 60 58 60 71 80 76 72 72 80 96 93 97 97 98 99 99 99 98 98 98 98 100 99 99 99 100 100 99 99
100 100 86 83 100 100 100 90 62 42 34 19 13 45 46 39 39 52 66 79 80 93 94 82 74 65 56 53 68 75 78 81 80 81 86 87 96 99 98 98 99 98 99 100 99 98 99 99 100 99 98 98 98 99
100 100 100 100 100 100 100 94 70 47 41 30 16 20 46 55 50 48 59 67 64 72 86 92 87 77 64 55 52 60 70 73 77 87 90 92 93 88 100 100 100 100 100 100 100 100 99 99 100 100 100 100 100 96
90 100 100 100 100 100 100 100 79 54 46 39 28 15 22 50 58 56 55 52 59 65 72 76 82 82 72 71 64 60 96 94 85 84 89 98 97 85 72 88 97 100 100 99 98 100 100 100 100 100 100 100 100 100
89 96 100 100 100 100 100 100 89 65 51 47 41 34 22 12 40 60 68 62 56 56 56 51 57 73 71 65 65 69 83 95 82 91 87 91 98 94 93 84 92 100 100 100 99 98 98 99 100 100 100 100 100 100
100 100 100 100 100 100 100 100 96 76 58 54 49 45 42 37 26 18 11 23 48 70 71 64 55 48 51 48 53 55 64 73 88 96 91 86 81 84 96 97 95 97 100 100 100 96 94 98 98 98 99 100 100 100
100 100 100 100 100 100 100 100 99 84 70 60 57 50 47 45 43 38 30 27 18 10 18 37 51 56 59 60 55 51 50 59 63 69 75 83 84 76 70 70 80 95 98 99 99 96 95 97 99 100 100 93 83 75
100 100 100 100 100 100 100 100 100 96 83 70 63 57 53 51 49 47 45 44 42 32 29 24 17 12 11 12 17 21 34 46 52 50 56 72 68 79 79 69 68 69 76 95 98 94 88 90 90 95 100 98 84 76
100 100 100 100 100 100 100 100 100 99 92 83 73 64 59 54 50 47 46 42 40 39 37 35 36 34 29 25 22 20 18 13 9 10 19 38 55 74 68 71 68 62 68 77 94 100 94 82 76 86 100 100 100 100
100 100 100 100 100 100 100 100 100 99 94 95 82 71 69 63 56 51 49 44 38 36 38 40 40 39 37 34 31 28 26 22 16 10 7 6 19 39 64 71 68 74 74 65 72 95 94 93 84 81 92 100 100 100
100 100 100 100 100 100 100 100 99 97 94 96 91 82 74 65 58 53 48 46 41 44 44 42 39 36 33 31 28 24 21 19 16 13 10 7 4 5 16 39 66 73 81 84 74 83 92 83 79 92 95 98 100 100
100 100 99 98 100 100 100 100 100 96 93 95 92 88 82 70 60 56 56 52 49 46 42 38 36 31 24 17 14 11 10 8 6 4 3 3 3 3 4 26 64 84 78 72 97 98 99 92 71 75 92 100 100 100
100 100 95 100 100 100 100 100 99 97 99 96 93 88 78 57 48 45 44 45 45 43 39 33 26 21 18 15 10 7 4 3 2 2 3 2 2 3 4 12 98 100 97 81 79 82 97 99 83 74 87 99 100 100
97 97 100 100 100 100 100 96 90 98 98 98 96 82 61 48 49 51 46 44 43 39 34 28 23 16 10 6 3 2 2 3 3 3 3 3 3 4 4 5 74 100 100 100 100 90 95 99 91 94 100 100 100 100
95 100 100 100 100 96 85 88 96 100 99 97 88 72 59 59 53 44 42 40 38 35 30 21 13 8 4 3 3 3 4 5 6 7 6 5 5 5 6 9 77 100 100 100 100 100 100 100 100 100 100 100 100 100
100 100 100 97 91 82 86 94 98 100 92 82 71 64 62 54 47 43 43 42 38 31 20 11 6 4 3 3 4 7 8 8 8 10 13 12 9 9 7 32 100 100 100 100 100 100 100 100 100 100 100 100 100 100
100 98 95 85 79 84 92 99 100 92 77 68 66 62 55 49 47 44 42 38 31 20 11 6 4 3 5 7 8 7 4 3 4 7 12 12 10 10 10 37 100 100 100 100 100 100 100 100 97 98 100 100 100 100
100 98 88 84 90 95 100 100 96 84 80 76 69 63 54 48 48 46 40 34 23 13 6 4 4 5 10 10 9 9 4 2 8 12 13 12 10 9 17 49 100 100 100 100 99 100 100 100 100 100 100 100 100 100
96 94 96 100 100 98 100 97 88 86 85 80 73 64 53 48 45 43 37 27 15 7 4 4 6 12 12 19 50 76 63 13 6 9 10 7 6 18 76 64 100 100 100 100 100 100 100 100 100 100 100 100 100 100
97 98 100 100 100 98 90 86 89 91 86 77 65 57 52 47 44 41 33 21 9 5 5 5 11 14 27 56 57 65 68 78 87 46 57 44 32 100 96 89 100 100 100 100 100 100 100 100 100 100 100 100 100 100

GFSWCAN_500_rhum_018.txt.gz
RH
98 100 99 97 81 78 43 56 50 48 45 37 33 42 33 28 25 18 6 14 28 34 42 44 47 50 48 44 41 50 50 55 55 49 44 37 35 32 42 62 90 96 92 66 64 59 65 71 76 77 74 77 71 69
98 99 100 100 86 90 48 51 50 47 48 37 28 36 36 26 23 20 13 6 17 27 41 51 47 45 62 60 51 64 62 73 70 67 62 52 45 38 42 58 76 95 74 59 60 56 50 54 61 59 61 62 66 71
98 99 100 98 92 85 69 64 52 43 48 46 34 37 36 27 20 17 12 5 18 23 44 53 55 49 55 70 80 72 72 97 81 84 87 82 66 50 44 49 63 76 70 64 51 55 53 45 47 52 49 56 64 66
98 100 100 98 98 94 90 86 58 45 53 52 39 43 37 27 18 13 6 3 45 74 55 69 60 58 70 84 100 85 80 97 100 92 88 88 79 59 52 50 57 64 64 62 62 50 41 51 54 48 48 49 61 66
95 100 99 98 94 91 88 85 66 55 63 56 42 44 32 22 12 7 2 2 41 100 95 82 65 70 71 88 100 96 86 86 94 88 80 92 89 71 62 56 71 60 56 48 51 56 50 43 47 56 50 51 63 72
100 97 95 96 89 85 77 73 65 61 68 61 38 43 27 14 7 1 2 3 80 100 100 93 83 83 84 93 95 100 86 66 86 88 85 100 93 71 73 92 82 57 46 36 43 46 45 39 34 53 58 60 78 83
99 97 98 82 84 93 77 73 71 70 81 61 43 35 18 7 1 1 2 24 100 100 100 99 82 82 99 96 99 100 100 96 74 80 97 92 87 81 82 85 56 44 40 43 56 73 67 60 60 69 67 79 94 90
99 97 90 76 90 98 94 81 71 84 79 65 44 24 10 2 1 1 29 100 100 100 100 83 75 83 85 95 100 100 97 100 95 99 100 98 95 81 73 66 64 65 64 74 84 85 84 84 91 98 88 98 100 99
100 76 78 83 92 100 99 93 88 78 73 59 35 15 5 1 1 34 100 100 100 100 98 87 95 83 90 94 96 100 100 100 100 100 100 100 100 94 87 85 83 85 85 79 74 77 79 92 99 99 99 100 100 99
60 54 65 78 93 99 100 100 82 75 77 49 24 10 2 4 51 100 100 100 100 92 100 100 93 87 82 81 84 95 100 100 100 100 100 100 100 100 100 100 100 90 80 70 73 76 82 86 81 86 98 99 100 100
69 69 73 100 99 97 96 96 78 81 72 38 18 10 3 49 91 100 100 100 88 98 100 100 93 88 75 75 83 99 100 99 100 100 100 100 99 100 99 99 94 90 82 80 84 89 87 84 88 83 89 99 100 97
84 83 85 100 100 100 100 98 87 92 65 33 16 14 10 58 84 93 89 79 86 96 96 92 81 78 79 78 73 77 88 99 100 100 100 94 99 100 100 100 100 95 96 96 95 96 91 85 86 81 79 92 99 100
70 80 85 100 100 100 100 100 100 96 58 33 14 26 17 41 64 57 59 69 80 88 95 83 86 85 74 66 68 68 71 77 90 98 95 91 99 100 100 100 100 100 99 99 98 97 99 99 99 100 99 99 99 100
89 86 87 100 100 100 100 100 100 98 56 35 18 20 52 49 54 55 61 78 91 98 98 96 83 77 69 62 59 68 77 80 76 72 89 96 93 99 100 100 100 100 100 100 99 98 97 99 99 100 99 100 99 99
84 95 95 99 100 100 100 100 100 99 57 40 26 17 30 48 56 61 66 66 74 83 76 77 84 80 70 60 58 70 76 74 76 81 86 89 94 96 99 99 99 99 100 100 98 99 99 99 99 95 96 98 98 100
99 100 100 100 100 100 100 100 100 99 69 46 35 23 22 31 36 44 58 66 64 71 80 84 87 82 75 65 61 61 61 59 68 73 88 100 100 99 98 98 96 97 99 100 100 100 100 98 97 96 98 99 99 99
97 100 100 100 100 100 100 100 100 100 91 53 42 34 22 23 45 43 41 48 57 69 68 71 74 79 69 66 69 68 75 77 66 68 77 87 100 100 100 94 98 98 96 99 100 100 99 100 100 99 99 98 99 98
100 100 100 100 100 100 100 100 100 100 100 70 49 43 37 25 19 40 51 58 59 63 63 62 64 63 64 63 74 85 88 83 76 67 63 74 84 97 100 100 95 95 100 96 98 98 99 100 100 99 97 97 98 99
100 100 100 100 100 100 100 100 100 100 100 93 57 52 48 43 35 25 18 34 55 64 70 64 56 56 58 60 55 51 58 76 73 72 72 65 62 70 85 98 100 100 99 96 92 94 97 99 100 100 100 100 100 100
100 100 100 100 100 100 100 100 100 100 100 99 74 59 56 53 50 46 44 33 24 14 11 18 36 43 44 50 48 43 45 46 50 54 60 64 67 76 73 75 81 91 99 100 100 100 100 96 90 96 100 100 100 100
100 100 100 100 99 100 100 100 100 100 100 100 99 80 66 61 58 53 52 52 47 44 41 41 35 21 10 10 18 28 34 40 47 41 38 41 46 48 58 60 64 74 77 82 84 89 94 100 97 98 98 100 100 100
100 100 99 100 100 100 100 100 100 100 100 100 100 99 82 73 69 65 61 59 57 52 50 49 45 44 40 33 29 26 25 24 21 19 17 18 24 30 38 45 49 52 53 58 72 79 81 80 75 94 97 100 100 100
100 100 100 100 100 99 100 100 100 100 100 100 100 100 97 90 83 72 65 66 59 52 51 47 44 42 44 44 44 42 41 39 37 34 32 30 27 24 22 16 10 19 30 41 44 54 70 72 74 76 97 100 100 100
100 100 100 100 94 96 100 100 100 100 100 100 100 100 100 100 91 83 78 72 61 54 52 49 47 45 44 44 42 40 38 36 34 32 28 26 24 24 23 22 20 15 8 11 34 48 52 57 74 78 74 98 100 100
99 100 97 90 94 99 100 100 100 100 100 100 100 95 98 91 85 84 90 84 78 64 46 37 35 38 40 39 38 36 33 29 26 23 20 19 17 14 11 10 10 10 9 6 6 30 50 59 66 81 78 79 98 100
99 100 92 94 100 100 100 100 100 100 100 100 97 97 90 81 92 91 93 83 64 52 43 39 39 38 37 36 34 31 27 24 21 18 15 14 12 9 7 6 4 3 3 3 3 4 26 67 82 81 82 82 86 91
95 90 99 100 100 100 100 100 100 100 100 98 100 92 89 86 97 96 81 67 54 44 41 39 37 36 37 34 29 24 22 19 15 11 7 4 3 2 2 2 2 2 2 2 2 3 14 84 100 98 86 91 90 88
89 97 100 100 100 100 100 100 99 97 95 96 94 90 81 92 92 79 70 55 43 39 40 39 37 35 31 27 23 20 16 11 6 3 2 2 2 2 2 2 2 2 2 2 3 18 96 100 100 100 98 91 96 95
89 100 100 100 100 100 100 97 95 96 94 89 96 100 100 95 81 68 56 46 42 46 42 38 35 31 27 24 20 13 7 4 2 3 3 3 4 4 5 6 8 7 4 3 3 52 100 100 100 100 100 100 100 100
100 100 100 100 99 97 96 95 96 90 93 98 100 100 90 75 67 60 54 54 53 46 40 36 32 29 26 20 10 4 3 3 3 5 6 7 5 3 4 5 10 11 6 5 5 25 99 100 100 100 100 100 100 100
100 100 100 98 96 94 93 94 97 100 99 95 95 90 78 74 66 59 58 54 49 43 38 34 31 28 21 9 4 4 6 7 8 15 24 24 5 5 7 8 12 11 7 6 8 28 94 100 100 100 100 100 100 100
100 96 94 91 94 91 95 100 99 100 100 95 89 77 70 62 62 63 58 52 47 42 38 34 31 20 9 4 4 6 8 19 39 48 60 50 8 10 13 13 11 10 8 16 23 55 100 100 100 100 100 100 100 100
91 90 90 91 99 100 98 97 100 100 98 87 86 79 69 62 63 60 56 52 46 41 36 33 22 10 4 4 7 11 25 44 64 66 85 81 16 10 12 11 10 12 56 98 100 100 100 100 100 100 100 100 100 100

GFSWCAN_500_rhum_021.txt.gz
RH
96 88 96 99 98 98 98 93 99 65 61 61 45 51 62 59 57 46 37 29 21 10 17 35 34 26 29 29 35 42 42 40 41 34 30 26 21 21 24 34 57 67 91 96 86 80 69 61 57 63 56 52 59 56
100 100 96 99 99 98 100 97 98 88 87 86 61 48 47 57 52 48 42 33 26 19 10 17 38 42 35 37 59 55 48 48 49 48 43 33 32 27 23 30 48 64 82 91 75 62 60 52 47 47 46 44 53 56
100 100 98 99 99 99 96 94 99 91 88 83 75 52 48 43 49 43 38 33 25 16 11 8 33 61 52 62 59 71 60 60 66 65 78 76 51 38 28 31 40 63 69 85 75 58 58 61 58 51 45 42 44 56
100 100 100 99 99 88 95 98 98 96 88 86 74 63 57 58 58 44 34 22 13 8 5 12 40 52 64 53 72 73 70 70 90 97 97 100 83 65 59 47 52 60 62 71 71 67 65 50 46 45 50 53 44 54
99 99 99 98 88 94 99 97 87 90 98 88 73 71 54 62 49 30 19 10 3 1 3 47 97 87 67 63 76 87 84 85 99 100 100 100 95 83 78 69 79 44 62 58 66 59 56 54 49 44 44 56 55 59
99 99 98 100 100 96 96 92 79 92 92 84 82 60 56 54 30 16 5 1 1 3 10 98 100 100 84 76 83 95 100 95 93 96 99 100 97 78 88 95 71 37 48 48 58 54 45 41 42 43 48 54 63 77
93 96 100 100 98 82 65 77 91 100 100 88 76 58 57 28 13 4 1 2 19 99 100 100 100 100 80 82 90 100 100 100 94 73 91 98 87 81 86 83 72 61 63 73 69 55 57 65 64 63 56 57 71 93
100 100 100 100 92 72 76 65 85 100 97 89 68 67 27 13 6 2 2 52 99 100 100 100 98 93 86 96 99 93 99 100 99 94 91 90 93 85 86 81 74 73 77 75 71 74 76 74 71 66 68 86 90 99
100 98 97 83 64 64 78 82 92 96 100 81 78 42 10 10 9 22 81 100 100 100 100 98 78 91 96 100 100 99 100 100 100 100 99 99 100 93 85 86 87 86 73 69 66 79 83 81 76 73 78 100 96 100
100 100 100 92 74 72 75 86 100 96 97 89 70 18 11 32 63 94 100 100 100 100 100 100 98 97 98 100 100 100 100 100 100 100 96 95 97 100 98 100 100 94 83 83 83 74 72 68 74 82 78 92 97 100
96 100 100 93 65 69 76 79 95 100 97 98 52 13 24 34 73 85 77 78 92 98 92 98 100 97 89 100 100 100 100 100 100 100 86 90 96 100 100 100 100 100 97 85 80 82 84 88 88 83 82 75 84 99
98 98 99 100 88 59 59 69 98 100 99 99 42 15 29 40 59 64 74 89 91 89 90 99 99 94 97 91 98 98 100 100 100 98 90 92 98 100 100 100 100 100 100 100 100 99 91 90 88 87 87 80 80 95
100 99 99 94 98 79 68 75 99 100 100 100 38 20 40 49 54 51 56 65 83 98 100 100 100 96 90 92 93 90 86 84 74 81 92 95 97 99 100 100 100 100 99 99 100 96 97 95 87 93 92 98 95 98
57 67 70 96 95 90 80 86 100 100 100 100 45 24 27 42 42 50 58 64 71 78 83 86 92 91 88 83 73 69 71 81 86 83 77 86 98 100 100 99 100 100 98 100 100 100 98 99 98 100 100 100 100 99
15 28 73 98 97 90 82 83 100 100 100 100 62 19 39 40 48 54 53 58 68 69 79 82 79 79 81 74 66 65 78 84 84 85 91 98 99 100 100 98 98 99 100 100 100 96 98 100 100 99 100 100 98 100
12 52 100 100 100 100 99 96 100 100 100 100 93 25 27 42 51 50 56 62 70 74 76 79 72 74 77 74 72 68 73 73 69 70 79 91 100 100 100 100 99 98 99 100 100 99 100 99 100 100 100 100 100 100
7 12 86 100 100 100 100 100 100 100 100 100 99 55 21 25 37 44 49 56 63 69 73 76 74 68 67 78 79 78 89 91 82 76 69 67 78 95 100 100 100 100 99 98 99 100 100 100 100 99 100 100 100 100
5 7 27 88 100 100 100 100 100 100 100 100 100 86 40 22 20 26 37 42 46 48 48 53 61 67 67 65 78 94 99 92 84 81 81 77 71 68 73 87 99 100 100 100 99 98 99 100 100 100 100 100 100 100
6 4 6 9 82 100 100 100 100 100 100 100 100 100 80 47 31 23 20 22 24 29 33 42 45 54 60 58 61 66 69 80 77 67 63 64 66 68 65 64 70 79 91 98 100 99 98 96 96 99 100 100 100 100
13 6 6 12 77 100 99 100 100 99 100 100 100 100 100 86 54 45 39 35 34 25 18 16 24 28 27 36 42 47 49 54 57 57 55 46 44 59 63 61 59 56 60 73 85 93 99 100 96 92 94 94 97 100
17 7 7 22 97 100 98 100 100 97 100 100 100 99 100 100 72 62 59 54 50 48 47 43 35 30 34 39 36 28 15 14 18 28 38 44 39 40 44 48 44 40 38 36 47 54 73 86 88 90 94 92 90 95
21 8 9 52 100 100 93 98 96 95 97 100 100 100 100 100 100 85 71 67 64 61 59 57 53 52 50 46 40 36 35 33 28 28 26 22 19 21 26 31 32 34 35 34 33 37 45 48 57 70 76 71 73 84
20 13 12 78 100 98 89 99 92 100 100 100 100 100 100 100 100 99 94 90 83 72 67 63 57 53 49 44 39 36 35 35 34 34 35 35 36 35 35 33 30 24 18 16 21 27 30 31 33 45 50 63 66 64
70 55 44 99 98 82 90 100 100 100 100 100 100 100 100 100 100 100 100 100 94 83 82 75 68 64 60 51 37 30 30 30 34 36 35 34 34 32 31 30 29 29 28 29 28 23 19 13 16 31 35 34 47 68
97 95 83 94 87 89 100 100 100 100 100 100 100 100 100 99 100 100 100 100 89 92 92 88 83 79 63 46 37 33 28 29 31 32 32 32 32 30 28 26 24 23 22 21 17 18 23 23 21 12 8 19 43 62
99 80 89 85 83 97 100 100 100 100 100 100 98 100 100 99 98 100 100 95 98 99 94 85 80 63 48 39 35 32 32 31 30 28 28 27 25 23 21 19 17 15 16 16 15 14 13 11 12 16 14 9 32 66
81 79 96 94 95 100 100 100 100 100 99 100 100 100 99 96 99 95 85 89 92 92 88 82 65 50 41 35 33 35 34 32 29 28 25 23 21 19 17 14 9 6 6 6 5 5 6 6 6 5 6 6 16 77
83 98 99 100 100 100 100 100 100 100 100 100 100 100 96 100 96 77 76 84 88 90 80 63 51 43 36 37 38 35 32 29 26 24 23 22 17 11 7 3 2 2 2 2 2 2 2 2 2 2 3 3 16 89
94 100 100 100 100 100 100 100 100 100 100 100 100 100 100 91 71 71 84 85 81 68 59 51 36 32 34 39 38 33 30 28 25 24 20 10 4 2 2 2 2 2 2 2 2 2 2 2 2 2 2 4 49 100
95 100 100 100 100 100 100 100 100 100 100 100 100 100 90 81 79 84 83 77 68 61 48 36 34 39 41 39 36 33 29 26 24 16 6 3 3 3 3 4 6 6 5 5 4 5 6 5 3 3 3 5 75 100
99 100 100 100 100 100 100 100 100 100 100 99 90 86 91 99 93 87 79 69 60 49 43 40 41 42 42 38 34 30 28 19 9 3 2 3 8 14 27 25 34 24 7 3 3 5 8 8 5 4 4 43 100 100
100 100 100 100 100 100 100 100 100 100 100 93 91 89 92 95 92 88 72 62 54 46 45 46 45 43 38 34 30 27 13 4 2 3 5 24 34 52 63 52 31 11 9 6 6 11 12 7 5 6 46 100 100 98
96 94 90 92 98 100 100 100 100 100 94 89 90 95 97 92 87 82 70 61 54 51 50 48 44 39 34 31 28 14 3 3 4 14 41 55 74 78 72 36 11 13 13 13 12 11 9 9 22 72 100 98 100 100

GFSWCAN_500_rhum_024.txt.gz
RH
29 43 67 71 100 100 100 100 99 99 98 97 94 95 89 99 96 83 78 75 64 50 33 25 17 11 24 34 37 34 31 45 46 41 34 31 30 30 27 24 32 45 65 99 99 93 90 90 75 70 60 47 52 52
55 59 55 57 96 98 99 99 98 100 100 96 97 100 87 87 86 80 76 80 77 65 51 38 29 16 15 27 30 34 32 31 41 40 38 34 30 29 28 31 31 50 73 97 94 86 71 63 56 51 49 45 44 47
48 83 100 100 95 100 99 95 100 99 100 93 97 99 90 83 76 69 65 60 51 51 48 39 29 22 14 26 34 40 36 41 43 43 47 54 45 39 34 35 34 36 59 85 97 83 62 62 59 57 56 51 47 43
99 100 96 100 98 98 97 100 99 100 100 96 100 95 86 82 72 65 53 54 42 30 23 18 15 12 14 19 42 56 66 62 54 48 66 79 75 71 68 55 56 42 44 65 92 84 74 65 49 45 48 44 39 46
100 98 100 100 99 100 100 99 98 100 94 96 92 98 96 78 67 51 44 25 13 9 6 3 3 6 17 55 60 91 85 72 66 62 82 98 100 100 89 82 86 40 30 41 70 71 64 65 61 59 51 41 38 48
100 100 98 100 100 100 100 99 98 95 72 66 90 100 88 71 50 32 13 7 3 2 2 2 6 9 93 100 100 99 95 90 82 86 100 100 100 92 93 100 86 48 35 37 56 57 66 69 58 48 39 40 48 54
100 100 100 100 100 100 100 85 80 77 79 100 100 99 82 60 25 11 5 2 4 24 84 100 87 94 100 100 100 82 98 99 94 100 98 100 92 87 82 87 97 58 45 50 66 62 74 66 58 47 45 58 60 58
100 100 100 100 100 100 98 85 84 78 89 100 100 91 69 28 15 11 23 86 99 100 100 100 100 100 100 97 92 97 96 100 100 100 99 86 80 72 71 76 79 73 66 66 80 74 73 64 66 58 64 64 58 69
100 100 100 100 100 99 76 76 77 76 83 96 99 87 24 26 38 68 95 98 97 98 90 98 100 100 100 98 99 97 100 98 96 100 97 77 66 67 72 74 80 73 69 70 78 76 75 71 74 77 72 62 63 92
97 99 100 100 100 100 100 98 74 65 79 100 100 66 27 38 35 60 67 86 99 100 100 97 95 100 89 99 100 100 100 99 100 99 96 95 86 87 84 81 83 80 82 80 81 76 80 89 87 78 71 68 74 98
80 80 89 99 85 92 100 95 68 54 73 100 100 47 38 41 33 36 42 80 97 95 99 100 100 100 100 100 100 89 100 100 99 100 100 97 100 93 97 95 86 97 98 99 98 94 90 80 71 69 68 68 74 89
91 96 85 100 100 99 85 97 96 73 77 100 100 60 36 46 44 36 40 60 84 97 100 100 100 100 100 100 99 100 100 100 99 100 100 98 98 96 99 100 95 94 95 95 98 95 84 84 90 92 92 92 95 90
100 100 100 100 100 97 88 88 89 84 88 100 100 91 28 49 55 49 66 82 88 82 91 98 100 100 100 95 96 97 97 88 92 99 96 97 98 100 98 99 100 99 94 89 99 100 98 100 100 100 100 100 100 98
88 98 100 100 98 98 88 82 94 86 75 92 100 98 30 39 52 52 62 63 69 85 91 95 100 100 99 96 95 94 89 76 74 81 81 77 82 96 96 98 99 100 100 100 100 100 99 100 100 97 99 100 100 100
10 9 22 64 88 63 54 53 78 87 78 85 100 100 50 34 56 59 59 64 65 74 82 90 94 98 96 92 86 77 76 71 83 84 88 90 90 98 100 97 98 99 100 100 100 94 100 100 100 99 100 100 100 100
6 6 7 11 21 79 99 100 100 99 93 75 100 100 81 34 43 60 78 70 59 63 80 91 94 97 94 84 84 77 74 73 72 70 76 82 90 99 100 100 99 99 100 100 100 100 100 100 100 100 100 100 100 100
34 17 6 6 9 32 100 100 100 100 100 100 100 99 99 33 48 58 60 72 66 57 64 74 77 86 83 77 83 87 97 93 80 74 74 76 75 69 70 80 89 93 98 99 100 100 100 100 100 100 100 100 99 100
61 48 27 8 6 8 49 100 100 100 100 100 100 100 100 92 27 41 61 74 71 68 68 64 63 69 73 72 80 93 97 95 92 86 82 77 73 73 72 67 63 62 69 87 95 97 98 99 100 100 100 100 100 100
47 47 42 32 12 6 11 46 90 95 100 100 100 100 99 100 78 25 28 50 62 59 58 55 51 52 54 56 59 64 70 71 74 73 68 66 63 63 64 65 62 59 61 62 62 70 83 90 93 95 98 99 100 100
49 42 38 33 27 9 6 13 41 88 100 100 100 100 100 99 100 90 40 21 23 32 34 32 39 47 42 38 35 39 49 49 47 46 48 50 50 50 48 46 47 47 45 46 47 52 54 53 59 75 87 94 97 96
46 42 34 26 27 17 7 10 65 91 99 100 100 100 100 100 100 100 97 71 28 20 20 27 26 23 24 18 18 25 34 33 28 24 19 16 17 19 25 32 39 39 41 42 47 48 46 43 40 49 59 66 76 88
41 36 32 25 27 22 8 24 79 96 100 100 100 100 100 100 100 100 99 98 93 60 50 48 47 48 47 43 40 40 42 41 38 35 35 37 34 32 28 23 19 18 21 28 34 38 38 39 39 36 35 46 58 63
43 35 24 20 21 21 12 59 99 100 94 100 100 100 100 100 100 100 89 99 100 93 75 64 62 64 60 55 52 52 50 46 41 34 28 28 30 32 34 32 33 34 33 30 25 21 20 19 19 23 29 32 34 44
44 37 32 23 18 19 13 65 100 100 100 100 100 100 100 100 100 93 94 100 98 82 87 88 91 80 74 69 66 64 64 60 46 34 27 24 24 25 27 29 29 29 30 32 32 32 32 32 32 31 24 18 24 32
47 38 34 24 18 18 35 96 100 100 100 100 100 100 100 98 97 100 100 100 92 86 98 100 96 95 92 86 82 78 73 60 46 36 29 27 28 29 30 28 28 26 25 25 26 28 28 27 27 26 25 29 28 23
42 34 29 20 23 32 66 100 100 100 100 100 99 100 100 98 99 100 100 97 93 98 99 93 90 89 87 87 83 73 64 51 39 34 34 29 27 28 30 30 29 27 24 23 22 22 22 22 22 22 22 21 17 21
37 29 23 20 33 52 99 100 100 100 100 100 100 100 100 99 100 100 99 99 99 98 90 78 77 89 88 83 78 63 49 37 30 28 28 30 30 28 28 27 26 24 22 20 19 18 17 16 16 16 15 17 18 17
34 24 20 69 82 99 100 100 100 100 100 100 100 100 100 100 100 99 100 100 97 85 78 83 87 87 84 71 56 46 38 34 31 32 33 33 32 30 28 26 23 22 20 17 13 11 7 4 4 4 5 7 9 12
15 20 56 80 98 100 100 100 100 100 100 100 100 99 100 100 100 100 99 98 89 81 85 86 83 72 61 52 42 36 36 36 35 34 31 30 29 27 24 22 19 15 10 5 2 2 2 2 2 2 2 2 2 3
66 84 79 92 99 100 100 100 100 100 100 100 100 100 100 99 92 91 87 79 79 83 83 77 70 60 52 45 42 38 32 31 32 29 28 27 26 24 20 13 5 2 2 3 4 4 3 3 3 2 2 2 2 2
89 84 98 99 98 100 100 100 100 100 100 100 100 100 97 94 90 83 79 79 84 81 74 65 62 56 48 42 37 33 33 31 31 29 27 25 22 11 3 2 4 6 14 19 27 31 21 13 9 6 5 5 4 3
88 96 100 98 100 100 100 100 100 100 100 100 99 96 94 90 90 82 73 79 80 72 69 65 56 46 39 34 33 35 37 36 32 29 25 13 2 2 6 19 34 39 50 60 59 35 22 11 5 5 6 7 7 6
100 100 100 100 100 96 99 95 100 100 100 96 95 94 93 88 90 92 88 82 75 68 58 49 40 35 34 37 41 40 36 32 28 19 4 2 11 29 40 28 22 33 34 20 13 10 6 4 7 10 11 10 7 5

GFSWCAN_500_rhum_027.txt.gz
RH
18 24 24 18 32 59 58 49 100 100 100 100 100 99 100 100 99 95 94 89 90 80 80 62 53 35 21 16 26 36 38 39 56 53 43 42 39 36 50 54 51 48 20 47 75 88 90 98 99 97 92 62 48 47
30 20 20 22 28 61 93 51 84 97 95 99 99 98 100 100 100 100 100 100 88 82 86 92 74 67 46 27 16 28 34 37 36 42 47 44 43 38 37 40 43 31 34 59 80 97 94 94 99 74 62 51 45 47
38 34 31 27 76 94 100 92 97 99 99 99 100 100 100 100 90 75 91 78 64 66 71 83 88 80 67 51 32 16 31 35 36 33 33 40 42 47 38 34 29 28 34 56 83 98 97 86 72 56 52 48 47 48
83 62 86 83 92 96 100 100 100 99 100 100 100 100 100 100 94 84 67 66 60 50 41 39 44 63 64 62 48 24 30 42 37 36 29 34 39 47 53 39 32 32 28 38 68 88 87 85 61 59 60 52 46 47
67 88 99 81 100 100 100 100 99 99 99 99 100 100 94 80 78 69 64 45 20 10 6 6 8 10 18 40 43 32 25 56 56 53 39 40 44 46 58 58 58 36 36 29 50 75 77 87 73 71 59 54 58 52
48 72 92 96 100 100 100 100 100 100 100 100 96 71 67 84 70 57 22 13 10 12 8 3 2 2 4 9 18 43 67 87 72 71 69 62 58 56 64 93 90 51 44 39 47 55 57 80 84 73 66 61 54 40
60 93 92 100 100 100 100 100 100 100 100 87 82 77 88 76 44 19 18 32 40 62 19 16 6 3 4 47 100 99 100 98 91 89 80 86 77 67 70 96 97 90 63 48 45 51 47 55 70 70 64 59 49 47
91 100 100 99 100 100 100 100 100 95 94 94 71 83 84 52 23 25 35 23 54 53 88 99 45 52 93 100 87 100 100 98 98 99 100 97 83 80 80 83 83 80 75 66 52 60 47 47 55 63 62 60 51 63
100 100 100 98 89 100 100 100 100 100 100 75 74 94 72 29 36 35 47 59 50 74 100 100 100 89 89 84 98 100 93 83 98 97 98 92 84 66 69 65 60 61 62 63 64 61 66 70 62 66 68 64 64 71
100 100 100 98 97 90 99 100 100 100 96 66 90 98 52 42 37 40 72 74 63 64 92 96 85 100 100 99 93 94 100 100 98 93 89 85 76 82 78 68 60 55 52 61 64 57 66 77 76 70 73 77 77 78
91 84 94 100 100 80 70 94 100 99 100 96 99 95 52 44 50 38 54 81 83 82 82 98 96 100 100 100 100 97 98 100 90 93 91 87 96 99 97 98 86 69 60 59 66 76 78 77 78 80 88 87 82 79
100 100 100 100 100 94 65 74 88 97 100 100 98 95 73 40 36 41 49 66 79 90 85 94 100 99 100 100 100 100 99 99 85 84 91 88 100 97 100 100 100 90 76 72 77 92 99 89 90 92 84 79 78 76
100 100 100 100 100 100 99 100 79 91 100 100 99 100 99 72 38 38 45 45 77 75 85 97 100 100 100 100 100 100 100 99 93 96 90 95 99 100 97 96 96 95 94 82 80 90 96 98 94 96 98 96 92 87
18 16 52 91 100 100 100 97 100 100 100 99 94 100 100 88 81 63 71 80 75 88 85 93 100 98 98 100 100 95 97 92 72 68 78 87 97 99 100 98 100 100 100 100 94 93 98 100 100 100 100 100 97 99
32 12 7 8 9 21 60 93 100 93 76 79 93 99 96 100 100 72 78 90 88 84 88 94 96 100 100 100 94 84 78 73 71 82 89 93 91 88 90 100 100 100 100 100 100 100 100 100 100 92 92 86 85 98
72 66 38 18 8 7 9 22 47 78 94 85 94 98 100 100 99 80 69 82 85 89 84 88 90 95 100 93 93 89 80 80 77 75 71 80 94 100 100 100 100 100 99 100 100 100 100 100 100 99 99 98 100 100
54 68 74 63 42 20 9 8 16 82 98 94 100 100 100 100 100 81 55 76 86 89 83 78 83 90 90 88 94 100 100 90 87 78 67 60 60 67 70 72 79 83 87 95 100 100 100 100 100 100 100 100 100 100
54 62 86 66 57 43 34 14 7 19 96 100 100 100 99 100 100 100 62 53 70 76 81 74 70 78 76 74 96 95 81 79 81 80 74 69 66 63 64 62 62 64 66 66 63 82 95 97 98 100 100 100 100 100
98 69 85 59 54 50 41 34 16 8 34 93 100 100 100 100 100 100 88 52 66 70 62 66 66 63 71 76 81 75 72 70 68 65 65 65 64 60 59 59 57 52 48 48 50 54 52 54 67 72 85 95 99 100
100 99 92 62 54 50 40 31 29 12 13 44 87 100 100 100 100 100 100 82 38 43 59 61 71 70 67 65 61 58 57 55 56 57 59 59 56 55 53 49 45 44 44 44 42 41 44 45 43 42 47 51 57 66
100 100 88 79 67 52 42 33 26 22 9 35 72 99 100 100 100 100 100 100 72 26 24 23 35 45 49 44 44 46 45 43 38 37 33 32 34 31 28 25 23 20 19 19 22 28 37 36 40 45 52 46 43 44
100 100 100 95 75 54 38 30 26 24 14 31 84 90 100 100 100 100 100 98 100 100 88 44 22 18 21 23 22 26 25 21 24 40 45 43 39 36 34 32 31 28 28 27 28 23 19 21 30 30 32 37 45 44
100 100 100 99 73 52 37 27 23 22 21 46 100 96 100 100 100 99 93 100 100 99 92 89 78 51 45 47 50 53 53 51 49 49 48 45 40 36 31 26 24 24 22 19 21 24 26 27 30 28 23 20 24 28
100 100 100 97 72 49 36 28 26 22 28 86 97 100 99 100 98 91 92 100 100 84 76 87 97 94 95 84 61 60 62 60 56 54 55 56 56 48 37 29 25 24 24 25 20 19 23 26 28 30 31 33 33 32
100 100 100 85 74 57 42 35 27 22 55 100 100 100 96 93 86 86 100 100 87 78 83 95 94 97 100 96 90 86 82 80 78 78 76 75 68 57 46 38 30 24 19 18 20 24 25 24 23 23 25 27 30 31
99 100 96 82 69 53 40 26 20 35 100 100 100 100 99 91 84 87 100 99 98 94 95 97 98 97 98 97 96 94 91 85 80 81 76 68 60 52 43 33 28 24 15 15 19 22 24 25 25 24 23 22 22 23
68 79 75 69 70 55 34 26 21 44 98 100 100 100 98 91 99 100 100 100 100 100 100 100 100 100 100 100 94 86 77 72 74 76 70 59 47 35 26 20 20 20 21 24 25 24 25 25 24 23 21 19 19 19
34 47 58 64 59 49 38 26 23 64 98 100 100 100 100 100 100 100 100 100 100 100 100 100 100 100 94 75 68 67 66 65 64 60 50 39 32 26 21 18 18 20 23 24 24 24 23 22 21 20 18 17 15 15
18 18 30 42 50 47 37 24 38 92 100 100 100 100 100 100 100 100 100 100 100 100 100 100 100 87 74 68 68 65 65 63 57 49 40 36 33 27 22 22 22 24 25 24 24 22 21 19 16 13 10 8 7 5
14 15 19 22 36 39 31 34 96 100 100 98 100 100 100 100 100 100 100 100 100 100 100 99 86 79 78 73 70 69 65 58 49 40 33 31 30 29 27 26 27 26 25 24 21 17 12 5 2 2 2 2 2 2
16 11 9 11 22 26 29 85 100 100 94 95 100 100 100 100 100 100 100 100 100 100 95 81 83 81 77 74 68 62 55 45 35 27 23 22 23 26 28 29 28 24 16 7 3 3 4 7 9 8 8 9 6 4
17 16 17 21 54 90 100 100 100 94 91 93 100 100 100 100 100 100 100 100 100 92 88 85 83 78 71 65 54 44 34 25 20 20 24 29 30 30 27 15 5 3 4 13 15 12 9 12 24 35 47 50 38 26
100 88 100 100 100 100 100 100 100 90 91 97 100 100 100 100 100 100 91 86 92 90 86 81 75 67 55 44 32 24 21 22 26 30 32 32 25 8 3 5 22 39 62 64 18 8 12 17 17 16 16 21 26 24

GFSWCAN_500_rhum_030.txt.gz
RH
3 8 30 30 15 7 7 14 24 56 96 67 100 100 99 99 99 100 99 100 100 100 99 89 81 80 65 45 32 21 24 27 32 35 36 35 35 40 46 56 58 44 46 51 34 36 97 96 96 94 96 89 96 64
16 26 54 42 32 28 39 40 96 100 100 82 99 100 100 100 98 98 99 99 96 96 100 97 94 85 76 74 57 38 26 22 32 36 38 55 51 48 40 40 48 56 44 47 46 34 84 98 98 100 100 100 99 61
41 66 55 59 50 40 69 87 97 100 100 100 97 100 99 100 99 100 100 98 89 73 82 100 98 87 79 80 85 67 48 31 21 33 40 38 45 50 47 40 38 42 48 46 39 50 67 88 93 90 98 80 62 50
100 88 68 63 47 80 86 79 97 96 100 100 98 100 99 100 100 99 96 76 62 46 37 26 22 29 58 70 68 81 92 56 26 26 34 38 34 36 42 47 41 38 39 37 31 49 69 87 95 90 87 71 55 51
99 100 92 80 65 83 94 88 96 99 100 100 100 100 98 100 94 79 59 45 34 18 17 26 17 12 9 13 72 80 99 88 41 26 27 37 39 33 31 38 53 40 39 33 40 44 64 81 91 98 84 63 61 52
88 80 75 80 89 99 100 100 100 100 100 100 100 100 99 94 80 57 44 27 22 29 27 28 16 10 2 3 9 98 100 100 53 28 26 36 40 37 32 33 56 46 44 42 45 42 42 60 71 92 89 73 67 58
100 83 58 100 100 100 100 100 100 100 100 100 100 98 81 77 64 37 26 22 27 26 40 26 4 3 2 3 6 37 100 99 85 61 37 46 46 39 33 38 80 60 66 50 53 51 53 48 51 56 86 84 72 67
95 99 73 100 100 100 100 100 100 100 100 100 100 94 89 72 45 28 30 27 39 32 42 62 33 15 12 6 15 85 100 94 100 99 77 63 50 46 42 83 86 79 84 69 59 57 55 56 46 43 50 65 72 67
100 93 88 100 100 100 100 100 100 100 100 100 100 100 92 58 31 33 33 50 62 49 58 53 86 100 100 100 99 100 100 65 94 99 71 63 59 53 72 97 95 86 80 71 65 60 55 54 56 39 33 43 53 64
42 76 86 97 100 100 91 100 100 100 100 100 100 97 96 42 37 48 56 72 72 65 66 59 78 68 83 93 94 68 71 67 54 73 74 60 55 78 90 85 78 74 68 61 53 48 51 54 55 57 45 47 56 68
100 100 100 87 98 98 86 99 100 100 100 100 100 100 82 53 44 52 50 75 84 80 81 82 83 84 81 78 100 100 100 95 83 77 80 75 97 100 95 99 100 87 81 70 59 46 44 55 57 60 65 69 73 78
90 100 100 100 100 100 100 100 100 100 100 100 100 100 99 66 58 60 54 70 85 94 82 85 96 100 100 96 93 98 94 98 89 88 85 83 100 99 100 100 92 99 97 89 77 57 53 69 74 81 81 79 83 91
22 32 53 96 100 100 100 98 96 100 100 100 100 100 100 85 71 41 54 52 57 86 93 90 90 100 100 97 93 100 98 91 88 83 84 93 99 88 99 100 99 100 100 100 80 78 78 88 97 100 99 94 86 81
49 29 13 10 10 17 39 84 98 100 100 100 100 100 100 100 99 73 53 75 64 75 92 100 100 100 100 100 99 100 100 100 100 99 99 94 89 91 97 100 96 98 98 100 100 100 100 100 100 100 100 100 93 95
66 72 50 47 42 18 9 8 9 30 82 100 100 100 100 100 100 100 99 86 82 88 98 100 100 100 100 100 100 100 100 99 99 93 96 98 96 92 91 96 99 100 100 100 100 100 100 100 100 100 100 90 88 86
54 49 62 77 72 72 59 31 10 8 14 57 99 100 99 100 100 100 100 100 97 100 100 100 100 100 100 97 96 100 100 98 82 77 78 75 87 99 100 100 100 100 100 100 100 100 100 100 100 100 100 98 89 92
58 84 65 52 59 81 75 59 41 17 8 11 70 99 98 100 100 100 100 100 100 100 100 97 98 100 95 93 95 100 100 90 79 75 75 70 66 63 66 72 80 86 90 96 100 100 100 100 100 100 100 100 100 98
48 83 93 86 72 58 76 73 52 46 32 11 11 70 100 100 100 100 100 100 100 100 99 95 82 87 84 89 100 100 90 82 76 80 81 77 72 67 66 66 64 61 60 60 60 61 61 64 76 93 99 100 100 100
34 66 100 96 90 95 74 70 52 46 34 30 17 15 76 99 100 97 100 100 100 100 97 87 77 77 79 85 93 90 86 87 82 79 80 77 74 70 67 66 64 62 61 57 52 45 39 36 38 40 48 51 70 96
50 31 41 76 100 97 91 83 59 49 39 30 27 14 30 80 97 98 100 100 100 97 93 75 66 71 75 79 74 71 68 66 71 75 75 74 71 67 64 60 57 55 52 52 47 43 38 34 35 37 37 36 41 51
58 48 32 30 87 100 88 92 63 55 41 31 26 23 15 55 96 98 100 99 91 98 98 79 87 76 86 80 70 63 67 69 67 61 59 57 53 51 50 48 38 36 34 29 25 21 20 19 18 19 24 35 37 36
85 64 48 31 54 94 96 91 81 59 37 28 24 23 18 28 98 98 94 94 100 100 100 84 76 70 40 52 59 62 68 64 58 51 44 31 27 28 37 38 37 35 33 26 26 29 27 25 24 25 24 20 20 23
80 63 46 37 39 66 81 100 91 60 41 30 26 24 20 20 78 91 88 100 100 100 92 95 92 83 68 30 19 19 22 22 21 24 27 28 31 36 44 46 43 38 33 26 24 22 22 22 21 20 20 22 28 28
68 68 67 68 57 62 77 96 90 63 43 36 34 32 21 22 66 84 91 100 99 90 86 91 97 100 100 99 91 59 43 49 50 51 54 56 53 50 48 47 50 54 54 51 46 41 32 25 22 19 18 21 22 25
82 89 66 52 63 67 88 100 99 76 53 46 41 29 22 24 50 84 100 99 96 93 100 100 94 99 100 100 100 100 100 99 87 71 75 75 68 65 66 68 64 58 54 60 56 46 36 28 21 19 18 21 22 23
100 90 68 41 29 33 54 83 94 83 66 45 29 23 23 35 66 84 100 98 98 97 94 90 86 89 97 97 95 99 100 100 100 100 92 94 92 88 78 72 66 55 49 57 52 39 27 24 23 21 18 16 17 19
85 70 57 49 43 33 25 42 67 74 58 47 34 25 38 74 80 95 100 100 100 96 89 87 90 93 96 98 99 99 100 100 100 100 99 96 86 68 55 54 60 60 55 45 33 26 21 18 17 15 15 16 18 20
83 73 56 48 40 30 27 24 40 47 56 51 36 25 38 89 96 98 100 100 100 100 95 93 99 100 100 100 100 100 100 100 100 100 92 77 62 48 54 60 57 49 42 35 29 24 22 20 18 17 16 17 19 21
43 42 41 39 40 38 31 27 30 52 56 46 36 30 54 97 100 98 100 100 99 100 100 100 100 100 100 100 100 100 100 95 76 70 64 67 62 62 60 56 52 44 35 28 22 18 16 16 16 17 20 22 23 22
30 36 34 33 33 27 26 27 23 38 57 50 37 36 83 100 99 100 100 100 100 100 100 100 100 99 100 100 100 100 90 77 71 69 70 67 62 56 50 43 31 22 17 16 19 22 25 26 28 28 26 23 20 18
61 52 49 35 24 22 18 17 18 27 45 46 36 56 95 97 100 98 100 100 100 100 100 100 100 100 100 100 95 88 87 82 75 68 62 54 45 34 23 18 16 16 20 25 29 29 26 17 10 6 4 3 3 3
99 100 84 40 36 21 16 16 18 24 35 37 56 88 94 94 100 100 100 99 100 100 100 100 100 100 100 98 95 87 75 67 61 52 38 25 19 18 17 18 24 30 30 24 11 5 8 14 22 30 25 16 9 6
100 100 100 99 37 13 11 17 26 30 35 64 89 90 90 97 100 100 100 92 100 100 100 100 100 100 95 86 76 68 59 44 26 19 18 17 17 23 31 31 21 9 9 20 45 59 72 66 35 11 7 7 10 16

GFSWCAN_500_rhum_033.txt.gz
RH
3 3 5 24 43 45 51 35 30 40 57 99 98 100 82 92 96 100 100 100 100 99 98 100 100 94 90 84 70 57 39 25 18 18 22 28 28 34 46 59 62 53 46 43 40 43 35 40 82 97 100 100 98 90
3 14 48 51 65 70 48 41 73 69 75 100 100 100 94 90 93 84 93 100 100 100 100 100 99 97 97 93 90 86 69 58 33 22 19 24 27 26 31 40 38 50 52 45 47 50 49 35 68 94 99 99 100 89
5 8 76 100 98 85 50 56 81 90 86 100 100 100 100 100 92 97 97 96 97 94 100 100 91 93 90 98 80 84 90 83 72 41 22 21 28 36 39 42 43 39 41 50 47 49 50 42 44 98 100 100 95 89
10 40 55 63 98 99 44 73 90 97 93 100 100 100 100 100 100 100 100 100 99 95 88 55 36 26 22 20 23 37 96 100 100 92 44 22 22 33 40 42 43 42 39 41 46 50 48 43 54 86 100 95 93 90
8 59 85 80 82 92 82 100 100 100 100 100 100 100 100 100 100 100 100 99 84 41 28 26 19 22 23 19 22 26 27 64 100 100 86 41 22 26 37 37 34 37 45 42 47 48 42 37 43 78 95 95 86 74
8 17 100 90 77 69 93 100 100 100 100 100 100 100 100 100 100 100 94 46 26 20 24 30 26 41 18 8 5 4 20 27 97 100 100 68 27 26 29 37 43 33 33 46 53 50 51 42 39 57 95 97 95 78
8 27 83 100 98 67 89 100 100 100 100 100 100 100 100 100 100 74 38 26 22 34 37 30 48 49 12 4 3 3 11 26 100 100 100 84 35 26 24 35 51 39 32 37 59 65 64 53 49 36 40 71 88 90
8 17 27 66 78 81 74 100 100 100 100 100 100 100 100 100 67 36 30 31 39 53 40 32 52 66 81 10 6 5 20 77 100 100 100 81 42 26 30 48 52 46 40 41 58 66 80 71 56 42 39 36 46 66
10 21 31 84 100 85 72 98 99 100 100 100 100 100 100 92 39 37 40 51 50 68 53 44 51 94 100 92 56 56 96 100 100 100 100 99 59 39 52 60 59 61 74 76 76 68 66 71 65 52 45 39 33 33
13 32 52 56 90 84 59 90 92 92 100 100 100 100 100 95 59 53 57 68 63 71 68 61 59 71 100 100 100 96 100 100 100 100 87 64 52 66 72 76 72 72 82 83 74 60 54 53 54 52 46 43 38 33
18 24 40 59 80 83 94 84 93 88 98 100 100 100 100 100 83 68 62 78 78 87 91 82 77 79 86 100 96 100 96 99 98 100 68 56 83 84 72 73 74 83 79 80 74 62 56 51 43 44 45 46 43 42
24 20 26 54 84 82 78 82 84 96 97 98 100 100 100 100 98 88 81 65 65 93 100 86 94 76 90 98 95 90 96 100 95 93 72 96 98 90 86 82 84 85 85 84 78 75 73 65 51 42 42 56 61 62
21 27 23 24 15 23 48 67 69 74 84 94 99 100 100 100 100 100 97 86 64 58 100 99 100 95 95 94 89 88 88 81 88 85 84 98 81 69 85 86 88 99 97 98 87 83 89 80 67 69 80 92 97 95
20 32 42 55 55 36 19 13 9 21 45 72 91 97 100 100 100 100 98 86 65 59 72 100 100 100 99 97 92 92 97 100 91 95 92 72 69 81 89 96 96 98 100 100 99 96 99 100 100 91 94 100 100 100
18 19 32 45 52 55 64 64 50 25 9 10 68 100 100 100 100 100 100 100 86 78 74 100 100 100 100 96 85 99 100 95 100 99 87 89 91 91 90 95 99 100 100 100 100 100 100 100 100 100 100 100 100 100
28 28 24 17 27 52 58 55 63 64 43 20 12 33 96 100 100 100 100 100 100 100 92 91 100 100 100 100 100 100 99 100 98 94 88 92 86 99 100 100 100 100 100 100 100 100 100 100 100 100 100 100 100 99
50 42 31 19 18 22 39 70 59 56 64 53 43 26 12 42 93 96 100 100 100 100 100 96 96 100 95 100 100 100 100 100 99 84 79 79 78 85 86 87 96 98 98 99 100 100 100 100 100 100 100 100 100 100
72 59 49 35 28 20 23 33 72 61 62 59 43 35 30 19 18 87 100 100 100 99 100 100 96 97 96 99 100 100 100 100 92 85 84 87 84 79 70 67 70 73 74 70 66 67 56 53 54 56 58 68 71 84
89 68 56 50 50 42 32 24 31 70 68 70 46 35 32 28 20 23 78 99 100 100 98 99 96 94 100 100 99 99 99 97 95 93 93 90 86 87 85 81 78 74 68 62 58 57 60 57 50 43 38 36 34 36
98 90 76 72 66 53 43 30 20 28 60 71 57 40 36 28 25 19 30 70 85 100 96 97 100 100 100 99 94 91 86 86 89 87 84 84 84 81 79 76 74 70 66 62 58 54 46 41 38 35 33 30 26 26
100 100 100 89 79 72 45 35 24 25 51 68 60 45 31 26 24 23 17 31 75 100 100 100 100 92 83 83 87 88 82 76 72 69 65 62 61 62 64 60 57 53 52 44 36 31 31 30 24 20 19 19 19 18
100 100 84 99 93 60 42 49 45 31 41 69 74 71 37 29 27 24 21 19 59 96 95 97 95 78 75 80 82 72 67 74 78 76 75 76 75 69 61 55 42 32 40 48 48 42 38 34 30 29 28 26 23 21
100 100 100 99 84 55 45 52 45 33 29 54 83 97 57 35 33 32 24 19 47 81 97 100 100 88 87 90 96 88 63 64 72 70 70 68 60 55 39 20 19 26 36 45 47 43 38 32 27 24 22 20 20 21
100 100 100 97 75 68 42 29 28 40 59 62 93 100 67 43 40 32 25 25 49 78 98 100 100 100 100 100 84 88 78 32 21 20 22 23 23 29 45 52 52 50 50 48 48 52 55 56 58 54 48 49 46 36
100 100 100 96 79 59 38 33 40 38 67 97 100 100 85 54 44 32 22 36 73 95 100 100 100 100 100 100 99 100 100 99 79 51 43 49 52 57 59 65 70 67 66 67 67 65 57 52 50 45 38 39 47 48
100 100 93 94 73 41 34 43 55 34 36 58 91 100 95 74 48 32 23 47 77 100 100 100 100 100 100 100 100 100 100 100 100 100 99 100 100 100 100 99 97 93 94 94 83 71 58 48 44 45 50 48 35 24
93 87 88 74 47 43 53 62 62 51 41 35 32 86 99 64 39 36 30 63 94 100 100 100 100 100 100 100 100 100 100 100 100 100 100 100 100 100 100 100 100 97 91 81 60 46 43 39 39 45 48 42 35 28
82 70 50 75 94 91 99 91 75 57 44 37 27 23 61 73 59 40 29 54 98 100 100 100 100 100 100 100 100 100 100 100 100 100 100 100 96 94 100 100 99 88 77 68 61 56 54 56 56 52 44 37 33 36
67 76 82 98 100 100 99 94 85 64 45 37 30 23 24 46 53 47 28 49 100 100 100 100 100 100 100 96 97 100 100 100 100 100 100 100 96 99 96 84 73 68 65 64 60 56 51 46 38 27 20 16 15 15
95 92 85 80 73 62 50 46 43 42 42 39 32 23 21 39 53 40 26 53 100 100 100 100 100 100 100 99 99 100 100 100 100 100 100 100 99 87 73 67 63 58 54 50 40 30 23 20 18 16 15 15 19 23
60 70 72 66 55 42 34 33 34 34 31 25 17 17 18 36 48 38 31 75 100 100 100 100 99 99 97 97 99 100 100 100 100 100 96 87 81 74 64 58 49 33 23 20 18 17 16 17 19 23 25 23 19 15
83 68 58 53 42 31 26 24 23 20 16 14 14 14 16 27 36 35 48 95 96 100 100 100 100 100 100 100 100 100 100 100 100 93 83 71 62 50 31 23 21 18 18 18 22 24 23 18 14 14 16 24 28 30
79 79 74 64 57 84 96 92 52 25 15 12 13 12 25 32 28 42 100 89 88 99 100 100 100 100 100 100 100 100 100 92 79 69 53 31 22 23 21 18 18 22 22 21 26 41 36 24 26 57 90 89 66 38

GFSWCAN_500_rhum_036.txt.gz
RH
9 7 6 4 4 3 3 26 55 35 38 89 90 98 100 100 95 88 100 100 100 100 96 100 95 96 97 94 86 82 74 50 32 21 16 27 39 36 37 52 72 69 63 60 55 46 40 36 31 39 66 79 93 99
8 9 7 4 3 3 8 44 77 72 51 90 94 88 100 100 100 93 93 97 100 100 100 100 100 100 99 98 100 100 100 99 89 54 33 19 17 23 32 33 36 45 59 57 54 51 47 45 35 37 69 84 93 99
11 9 8 5 3 9 18 43 95 51 66 91 100 100 96 100 100 100 100 94 83 100 100 100 100 100 100 100 100 100 100 100 100 100 89 54 27 23 22 24 29 29 32 39 49 50 47 45 48 40 38 88 96 100
12 10 7 5 3 12 66 62 66 65 100 99 100 100 100 100 99 100 100 100 100 100 100 100 100 100 95 77 60 52 66 86 93 100 100 94 68 33 27 30 32 39 34 37 38 43 47 47 43 48 39 54 88 94
15 10 9 6 4 27 85 75 53 83 100 100 100 100 100 100 100 100 100 100 100 100 99 92 58 35 26 27 29 27 29 25 23 36 99 93 100 78 29 29 35 45 44 40 42 43 43 46 47 47 44 50 77 93
14 11 12 7 8 30 92 82 55 88 100 100 100 100 100 100 100 100 100 100 82 38 24 27 22 24 37 30 41 29 18 20 24 27 47 100 100 100 55 24 36 43 38 36 45 53 47 44 45 43 36 44 76 90
18 13 14 9 19 19 51 84 72 70 100 100 100 100 100 100 100 100 86 49 36 30 38 27 34 32 30 41 53 16 6 5 8 21 45 100 100 100 82 33 40 39 38 38 38 49 65 53 50 40 34 37 57 86
17 15 18 12 20 43 83 95 76 72 100 100 100 100 100 100 100 99 63 46 42 37 39 54 40 39 39 68 16 4 4 5 21 77 69 100 100 97 92 39 34 36 35 36 34 31 44 67 69 57 44 40 36 35
18 19 24 13 21 37 94 87 64 57 86 98 100 100 100 98 100 70 54 59 60 54 62 82 48 38 56 93 63 62 55 36 55 92 80 100 98 97 98 48 39 38 40 39 36 33 33 51 68 62 55 49 42 40
20 26 26 14 14 28 62 73 72 64 69 91 94 100 100 100 99 71 85 81 76 65 82 93 76 55 75 86 100 98 94 100 100 100 96 99 100 100 98 60 47 45 47 45 44 46 54 70 77 68 57 52 51 45
21 35 26 19 15 20 35 55 67 79 84 75 82 98 100 100 100 92 84 82 99 93 81 95 96 89 86 86 90 100 100 100 100 100 100 100 100 97 87 67 62 64 66 63 58 57 58 62 58 53 49 44 43 44
25 42 27 21 19 17 20 16 13 30 62 73 73 76 98 100 100 100 95 83 96 92 97 96 94 100 99 94 84 91 98 96 100 100 100 100 91 77 73 69 66 69 72 72 73 70 65 65 62 54 39 35 36 40
37 38 30 22 20 15 15 32 25 14 13 23 51 68 87 96 100 100 97 92 93 96 76 98 100 100 100 100 100 100 100 100 94 98 100 100 99 84 75 73 77 81 82 84 87 83 70 71 71 61 42 36 43 52
45 39 35 30 21 15 13 14 38 45 39 21 14 28 99 100 100 100 100 100 100 99 93 76 100 100 100 100 100 92 90 99 100 100 93 77 69 73 72 80 82 89 91 90 97 100 95 90 92 95 99 80 74 80
48 48 47 36 29 22 17 12 12 28 44 51 42 30 31 95 100 100 100 99 100 100 95 78 87 100 100 100 100 99 100 100 100 100 99 91 85 82 85 91 96 99 99 100 100 100 100 100 100 100 100 100 100 100
50 57 66 63 51 32 29 21 20 15 26 41 52 56 48 27 44 97 100 100 100 100 95 97 82 98 100 98 96 97 97 100 100 100 98 93 94 96 98 100 100 100 100 100 100 100 100 100 100 100 100 100 100 100
60 57 63 67 75 44 43 41 27 21 19 25 50 52 55 44 32 19 35 95 100 100 100 100 94 98 94 100 100 100 100 100 100 100 100 99 87 83 88 100 100 100 100 100 100 100 100 100 100 100 100 100 100 100
74 71 75 68 80 87 56 40 40 32 26 18 22 57 61 56 39 30 22 20 84 100 100 100 100 98 94 96 100 100 100 100 100 100 100 100 98 87 84 82 80 82 87 91 91 87 81 85 79 64 60 62 62 63
83 89 98 92 94 95 93 65 51 45 37 23 22 28 71 68 55 45 30 23 23 83 100 99 98 100 100 100 99 98 99 94 93 96 98 100 100 100 100 98 90 86 86 83 79 72 64 57 52 49 48 46 42 38
93 99 100 96 99 94 100 75 72 55 51 29 26 26 32 72 67 52 34 27 22 20 68 91 100 96 92 88 92 86 91 99 97 97 99 100 100 99 92 88 84 81 79 76 74 68 56 48 41 37 35 32 29 26
92 100 100 98 100 100 96 85 80 72 60 29 25 42 34 73 78 49 27 27 24 20 18 60 95 99 88 83 86 96 91 89 93 92 92 91 91 90 82 74 70 70 66 62 62 58 54 41 31 27 26 26 22 20
100 100 100 97 100 100 91 69 76 86 52 30 20 26 24 48 90 75 43 33 33 26 18 17 61 90 90 86 78 86 100 100 95 88 81 78 76 73 69 68 66 66 65 61 54 31 35 47 48 43 38 33 30 26
100 100 100 96 92 88 78 73 47 78 56 29 22 22 22 32 73 80 65 45 36 29 22 17 41 72 92 87 90 91 96 96 100 98 89 78 76 73 70 68 66 65 60 44 21 25 34 43 47 45 41 38 37 37
100 100 96 93 86 79 77 71 56 63 55 35 27 25 28 78 72 86 90 60 40 28 21 28 66 89 98 98 97 99 97 98 100 100 98 76 64 66 72 68 63 52 33 33 51 52 50 48 48 49 55 58 57 48
50 99 93 78 68 66 88 69 90 86 57 42 30 30 34 75 90 91 99 80 56 35 24 54 99 100 98 100 100 100 100 100 86 89 76 35 26 23 22 23 32 44 52 56 62 65 67 68 68 67 70 69 59 50
64 77 85 60 76 98 87 100 100 100 80 46 30 30 35 39 72 83 97 82 70 47 33 75 100 100 100 100 100 100 100 100 100 99 98 100 92 80 70 73 72 76 88 88 89 93 94 94 95 95 89 70 54 37
92 90 87 84 94 94 100 100 100 98 77 63 33 31 41 41 36 51 88 85 64 42 34 67 100 100 100 100 100 100 100 100 100 100 100 100 100 100 99 100 100 100 100 100 100 100 100 98 98 95 76 56 44 39
88 83 97 100 100 100 100 100 100 91 64 61 68 70 47 32 30 30 33 74 72 51 36 48 100 100 100 100 100 100 100 100 100 100 100 100 100 100 100 100 100 100 100 100 100 100 97 92 80 61 51 51 46 36
79 78 99 100 100 100 100 89 65 68 82 87 71 58 59 46 36 32 24 25 62 56 46 43 97 100 100 100 100 100 100 100 100 100 100 98 91 94 96 96 99 100 100 100 100 96 84 66 58 54 48 43 40 38
66 86 100 100 100 93 94 100 92 94 90 75 63 52 36 31 37 30 22 21 32 46 44 36 91 100 100 100 100 100 100 100 97 92 96 99 98 96 96 99 99 99 99 94 79 64 55 49 42 35 30 26 24 23
100 100 97 96 88 88 93 95 89 81 74 67 56 43 30 26 24 23 22 19 19 32 34 36 88 100 100 100 100 100 100 94 95 97 99 100 100 100 100 97 90 77 66 57 41 31 28 26 25 25 24 21 20 20
66 63 66 63 60 63 64 64 63 55 49 44 40 35 26 13 10 10 12 13 14 29 35 49 99 100 100 100 100 100 100 100 100 100 100 100 97 93 81 72 51 29 24 26 28 26 22 20 20 23 28 30 31 27
58 54 48 50 50 51 58 59 43 36 32 28 24 18 13 11 11 13 12 16 29 31 43 94 100 100 97 99 100 100 100 100 100 100 97 87 70 42 26 26 28 28 25 21 21 21 21 34 61 67 65 52 32 14

GFSWCAN_500_rhum_039.txt.gz
RH
20 20 16 14 12 10 6 4 4 3 20 43 52 35 80 67 94 99 100 97 100 100 99 100 99 97 75 68 64 56 47 39 34 27 22 20 42 47 44 48 65 69 62 57 53 48 47 42 39 34 33 39 55 81
22 22 15 17 15 8 6 4 4 5 42 45 49 62 86 84 86 100 94 90 97 100 99 96 100 100 100 99 100 98 95 92 92 81 53 38 24 21 33 41 40 42 58 66 64 60 56 51 45 41 33 32 59 78
28 19 20 22 24 9 4 3 4 22 50 53 68 79 81 84 88 100 100 97 84 100 100 100 100 98 100 100 100 100 100 99 100 100 100 92 66 40 23 20 23 32 36 39 48 58 58 54 52 48 43 31 42 79
33 18 21 26 27 9 5 3 4 43 60 53 75 82 86 87 96 100 100 97 80 91 93 100 100 100 100 100 100 100 100 100 100 100 100 94 92 100 74 36 28 22 25 36 36 32 35 45 49 48 46 46 37 47
40 26 24 22 13 8 5 4 8 59 60 56 80 81 90 96 97 100 100 100 100 100 100 100 100 100 100 99 93 78 65 60 53 39 54 74 81 91 96 96 47 34 32 30 39 36 30 27 38 47 48 43 47 40
51 33 25 17 18 9 5 4 8 53 74 64 78 88 93 96 93 99 100 100 100 100 92 45 44 34 29 32 36 34 32 28 23 20 20 22 32 60 87 91 100 49 31 32 39 43 33 30 33 39 45 48 46 44
40 32 25 23 15 9 5 7 46 85 74 66 82 99 100 100 100 100 100 97 80 65 52 36 40 37 35 31 30 36 21 10 7 11 17 19 39 57 37 74 100 92 33 34 39 37 37 37 41 42 43 46 45 39
37 34 20 14 14 10 8 10 24 58 60 55 70 92 100 100 100 100 99 95 88 68 54 50 44 31 36 29 30 48 56 28 3 3 5 18 73 100 90 72 100 99 42 30 36 38 37 34 39 47 47 43 42 37
40 34 24 20 14 12 9 9 33 34 56 71 70 95 89 100 100 100 100 99 88 70 66 62 51 52 45 32 39 78 83 81 32 18 12 35 100 98 99 100 96 97 46 34 34 36 35 31 30 31 50 54 49 44
44 39 34 20 19 11 10 13 12 29 42 54 77 80 72 91 100 100 100 100 100 95 92 76 66 64 51 42 48 59 100 100 55 27 85 100 100 100 100 100 92 94 42 35 33 32 35 35 35 35 32 39 48 50
47 41 31 23 21 12 10 13 13 19 24 24 36 53 68 68 92 100 100 100 100 100 98 98 90 88 84 63 58 64 87 100 99 87 64 89 100 98 100 100 91 67 46 45 40 41 42 47 50 56 62 63 55 43
52 44 33 28 24 16 11 16 19 13 18 20 21 27 53 65 82 100 100 100 98 100 100 100 100 100 99 89 81 84 97 100 100 100 100 100 100 100 100 100 79 69 65 61 60 57 60 65 64 59 55 51 51 50
58 46 38 30 25 21 17 17 22 20 15 17 29 19 25 85 100 100 100 100 100 100 100 99 91 100 100 100 100 99 100 100 97 99 96 91 86 84 85 81 77 79 79 77 75 77 75 70 66 62 54 46 42 47
64 52 43 37 30 24 24 22 26 23 23 16 15 27 34 35 78 100 100 100 100 100 100 100 96 91 100 100 100 100 99 92 99 100 93 97 100 97 92 89 87 80 78 82 87 93 93 88 83 71 60 71 76 66
80 62 54 45 40 41 40 33 30 31 32 26 17 11 24 41 43 45 88 100 100 100 100 100 100 80 90 100 100 100 100 100 100 100 100 100 98 93 88 86 83 85 90 96 100 100 94 92 91 88 83 92 99 100
90 70 71 65 51 48 50 46 46 48 55 34 25 15 11 17 38 48 36 38 83 100 99 100 97 99 94 100 100 100 100 100 100 100 100 100 100 100 100 100 100 98 100 100 100 100 96 99 100 100 100 100 100 100
93 71 81 75 55 45 52 51 62 66 75 60 32 32 24 14 16 38 49 36 25 37 87 99 100 100 95 89 99 100 100 100 98 100 100 90 100 100 99 99 100 100 100 100 100 100 100 100 100 100 100 100 100 100
90 95 95 83 68 57 66 63 56 47 44 79 53 40 35 30 16 24 47 51 35 26 23 76 100 100 100 100 100 92 100 100 98 93 99 100 91 99 99 96 100 100 100 100 100 100 100 98 98 99 99 99 90 70
100 100 100 88 71 77 86 75 69 57 41 71 77 47 42 37 27 23 39 58 60 45 30 22 79 100 100 99 99 100 98 98 90 80 88 98 100 96 100 99 94 92 90 90 93 96 95 93 83 69 59 53 48 43
94 100 100 98 80 80 99 99 88 70 53 54 70 65 58 44 31 23 28 48 70 34 34 25 21 48 96 96 89 97 100 100 100 98 97 94 97 99 99 100 100 99 96 94 91 88 83 77 70 60 51 44 39 33
100 99 91 92 90 94 100 91 79 85 82 78 84 71 64 55 42 25 18 26 74 36 30 29 25 20 26 80 90 95 95 98 100 100 100 100 100 100 100 100 100 100 95 88 84 79 74 65 61 55 50 36 27 23
100 100 100 100 100 100 92 82 89 87 87 69 82 76 68 64 40 22 18 22 68 82 50 35 31 25 20 24 68 84 83 91 97 96 100 100 100 100 100 100 99 93 87 78 69 65 64 64 59 48 32 41 44 39
100 100 100 100 100 88 82 93 98 86 79 75 87 76 81 71 25 22 21 27 65 92 84 50 35 27 22 18 20 62 72 78 89 93 91 94 99 100 100 99 95 85 79 75 71 68 60 56 51 27 33 44 47 46
100 100 100 100 96 100 99 96 87 73 93 99 99 85 91 83 30 26 26 50 94 100 95 66 40 29 23 30 49 51 71 87 97 99 90 83 86 94 100 100 99 87 78 69 59 56 57 56 33 27 43 48 51 53
100 100 100 97 87 75 42 35 51 62 61 70 96 100 98 88 44 29 30 42 81 100 100 84 57 38 28 75 100 100 96 99 100 100 100 99 98 98 100 99 97 93 81 63 54 35 27 34 49 57 60 61 62 65
72 50 37 26 20 21 24 44 66 56 65 98 100 100 100 84 51 28 26 40 46 90 100 97 81 56 31 81 100 100 100 100 100 100 100 100 100 92 89 79 60 34 28 31 33 42 52 59 63 66 74 84 89 91
23 27 28 26 44 62 79 99 100 100 100 100 100 100 100 84 58 38 34 35 34 38 56 89 88 57 34 60 100 100 100 100 100 100 100 100 100 100 100 100 96 94 96 96 96 98 97 95 96 96 96 95 94 96
53 60 64 75 100 100 100 100 98 85 99 100 100 100 100 80 65 52 38 30 30 33 32 40 77 67 42 44 94 100 100 100 100 100 100 100 100 100 100 100 100 100 98 97 95 93 94 94 95 95 95 97 99 95
62 69 100 100 100 100 100 100 100 100 100 100 91 66 60 57 54 49 39 35 31 38 30 28 34 64 47 44 82 100 100 100 100 100 100 100 100 100 100 100 100 100 98 93 93 91 89 88 89 91 93 96 93 83
90 99 100 100 100 97 95 100 84 81 69 60 56 53 51 45 43 45 38 36 38 38 32 29 27 38 50 46 68 100 99 98 100 100 100 100 100 100 99 95 90 90 94 93 91 92 92 92 93 92 85 72 58 44
100 100 76 76 64 65 68 70 64 61 62 62 61 54 49 48 38 39 36 34 31 28 27 27 24 24 38 42 65 100 100 97 98 100 100 100 99 94 84 79 81 85 88 92 95 96 88 75 60 45 35 32 30 30
82 48 39 37 39 42 40 38 42 47 51 54 56 54 49 47 41 30 37 38 36 28 20 19 16 18 29 37 67 97 99 96 92 93 93 93 90 88 88 90 92 94 93 81 56 39 31 29 29 28 24 20 19 19
56 60 77 96 88 76 78 77 75 75 59 50 45 41 39 39 31 30 28 14 11 12 12 12 13 19 22 47 88 98 96 95 94 94 94 93 94 96 97 85 55 32 29 29 28 26 23 20 21 21 21 19 19 30

GFSWCAN_500_rhum_042.txt.gz
RH
21 28 32 37 30 23 21 20 12 11 4 3 4 18 20 44 70 71 73 83 98 76 74 97 98 100 42 32 24 24 25 25 24 24 23 20 23 39 52 53 59 67 68 63 52 43 46 44 44 42 40 38 36 44
19 28 37 39 33 29 26 14 16 9 4 4 8 22 24 56 65 63 70 69 98 98 73 92 100 100 100 94 66 74 44 45 45 43 41 42 41 26 21 34 44 45 46 58 69 67 59 53 50 48 43 38 34 40
33 41 45 42 39 30 15 11 11 9 3 3 7 26 36 55 68 76 82 81 95 100 84 87 99 99 100 100 100 100 100 100 100 100 100 100 92 94 65 31 20 26 37 41 41 52 70 67 61 58 55 50 43 33
38 46 52 47 36 21 11 9 11 7 4 4 11 25 43 65 69 79 85 91 94 96 92 94 100 100 100 100 100 100 100 100 100 100 100 96 90 93 88 100 65 32 22 21 25 33 37 45 54 57 55 53 50 44
57 59 61 46 24 17 11 10 6 4 4 9 21 34 41 74 70 87 93 95 92 96 97 100 100 100 100 100 100 100 100 99 94 87 90 93 98 100 99 89 80 87 61 32 24 21 25 31 33 34 40 48 47 46
73 74 66 40 27 18 18 10 8 4 4 8 24 41 47 76 81 84 99 100 93 100 100 100 100 100 99 98 96 77 47 34 28 27 24 20 26 40 64 76 87 99 100 83 44 29 23 24 32 31 29 32 44 46
87 77 53 41 36 32 19 14 10 6 4 8 16 36 58 78 89 95 100 100 95 96 97 85 81 72 55 59 49 36 26 34 40 30 23 17 13 17 18 36 51 70 99 96 80 41 29 27 35 33 32 32 38 42
94 73 50 44 37 27 20 16 10 7 5 9 32 40 53 72 86 97 100 100 100 100 92 72 75 59 62 49 48 40 37 23 27 22 7 5 6 7 16 29 32 53 66 97 100 60 33 35 31 33 36 45 44 43
95 67 50 45 36 26 21 17 12 10 7 6 21 33 56 58 74 100 100 100 100 100 99 90 87 75 60 43 47 50 42 33 41 60 51 15 8 3 26 100 100 88 72 70 100 73 34 37 34 32 30 30 42 48
90 62 52 46 40 32 24 18 14 12 8 6 10 23 36 44 60 72 100 100 100 100 100 97 97 90 66 56 61 60 57 48 56 74 96 64 44 53 100 100 100 100 100 85 100 72 35 38 38 34 32 29 26 25
81 62 56 47 40 36 29 22 18 15 13 10 8 11 21 35 55 69 100 100 100 99 100 100 100 100 88 74 75 76 67 68 66 88 100 100 100 98 98 100 96 93 98 100 99 52 37 40 39 33 30 28 27 26
81 68 61 52 47 42 35 28 22 18 16 14 11 11 15 23 52 100 100 100 100 100 100 100 100 98 98 87 90 81 87 86 97 94 94 100 100 100 100 100 100 100 100 100 67 50 48 48 43 37 36 39 39 38
82 75 67 62 54 46 39 32 28 24 20 19 16 12 11 12 19 27 76 99 100 100 100 100 100 100 99 99 95 94 95 100 100 100 100 99 100 100 100 100 100 100 100 99 81 66 61 59 56 54 52 51 46 44
81 79 76 74 67 60 49 43 36 32 28 25 23 15 14 15 13 13 24 38 73 98 100 99 100 100 100 100 100 100 100 100 100 100 100 100 99 100 100 100 100 100 100 98 88 87 86 86 84 81 78 75 70 64
89 86 86 82 78 75 68 53 42 39 35 32 25 18 18 20 17 15 11 22 44 48 82 98 100 100 100 100 100 100 100 100 100 100 100 100 97 96 90 91 94 92 91 91 94 99 100 96 94 84 74 76 77 71
94 98 90 92 88 85 81 70 49 41 42 39 30 29 26 27 24 21 19 13 16 47 39 52 86 100 100 100 100 100 100 100 100 100 100 100 100 100 96 92 96 96 96 99 100 100 100 100 100 97 95 88 97 97
100 100 94 92 96 84 83 94 67 55 54 49 41 40 38 35 34 28 29 21 12 28 49 33 30 53 100 100 100 100 100 96 100 95 92 100 100 99 100 100 100 100 100 100 100 100 100 100 100 100 100 100 100 100
100 100 100 100 90 81 81 85 81 73 64 72 68 55 48 44 44 41 38 37 22 14 43 57 43 27 34 98 100 100 93 99 100 98 92 92 95 100 100 100 100 100 100 100 100 100 100 100 100 100 100 100 99 99
100 100 100 100 85 84 78 84 100 100 90 88 92 87 63 61 53 51 52 47 35 22 22 58 60 40 28 27 90 100 100 100 100 100 100 96 94 97 100 100 100 100 100 100 100 100 100 100 100 99 97 89 78 70
100 100 100 95 86 86 73 70 85 92 96 94 93 90 82 78 67 68 62 60 48 33 25 25 52 32 30 26 22 60 100 100 100 100 100 99 100 100 100 100 100 100 100 100 100 100 97 94 92 91 85 76 61 49
100 100 99 96 93 88 74 77 82 99 100 83 82 89 95 95 93 87 68 57 58 40 27 22 25 53 33 32 28 21 24 82 100 100 100 100 100 100 100 100 100 100 100 100 100 100 100 96 90 84 78 68 57 52
100 100 100 97 90 77 75 81 98 99 100 96 94 96 93 94 94 82 66 65 65 42 27 19 18 56 73 58 37 27 21 20 59 90 98 97 100 100 98 99 100 100 100 100 100 100 100 94 84 74 65 63 61 54
100 100 100 100 92 74 64 82 98 100 100 100 100 100 91 85 75 69 76 76 76 50 25 26 34 78 94 87 48 31 23 19 18 51 80 81 88 100 100 99 94 96 100 100 100 99 97 94 84 77 72 67 56 54
100 100 96 81 66 68 77 92 100 100 100 100 100 90 72 40 39 88 94 79 100 66 29 34 66 100 100 94 64 39 24 20 19 23 55 76 84 93 94 98 100 100 100 100 100 100 99 94 84 74 66 56 52 51
88 84 69 65 69 82 99 100 100 100 90 66 37 22 16 17 24 33 31 61 100 66 34 39 46 87 100 100 83 53 26 28 60 100 97 88 90 98 100 100 100 94 96 100 100 100 100 98 88 82 67 52 37 33
65 63 63 72 99 100 90 67 39 32 27 23 22 22 28 37 40 47 57 100 100 51 43 54 56 66 89 89 83 64 36 56 100 100 100 100 100 100 100 100 100 100 99 100 100 100 100 94 80 52 28 30 42 53
49 62 64 55 42 39 41 44 46 43 49 56 61 90 100 100 93 91 93 100 100 62 41 34 42 48 43 48 80 80 41 45 99 100 100 100 100 100 100 100 100 100 97 90 78 64 52 35 28 36 58 72 78 83
24 26 30 39 55 72 80 82 98 100 100 100 100 98 92 92 87 87 97 99 96 77 55 40 35 41 46 38 34 65 65 43 82 100 100 100 100 100 100 100 100 99 98 99 100 100 99 98 98 97 97 97 94 91
48 56 64 72 88 100 100 100 100 99 99 99 93 82 80 69 63 80 94 93 93 80 60 50 41 37 31 40 34 30 60 57 56 98 100 100 100 100 95 100 100 100 100 100 100 100 100 100 100 98 97 95 92 86
53 61 75 92 100 100 91 90 65 64 64 66 65 61 60 62 56 56 60 62 62 55 49 49 49 51 42 30 32 31 34 51 50 79 100 100 100 100 98 95 100 100 100 100 100 100 99 92 86 80 81 85 85 84
72 92 99 91 76 48 44 47 51 50 52 55 56 53 48 44 39 39 39 36 36 34 37 40 43 41 36 28 28 28 29 43 48 68 92 100 100 100 100 100 100 100 100 98 96 92 87 87 91 94 94 95 92 86
100 87 57 39 36 41 46 52 55 48 57 57 50 45 42 47 44 33 35 41 43 44 36 30 27 26 27 30 28 21 25 38 41 67 86 93 98 100 99 97 96 95 95 96 96 94 95 95 90 80 66 49 39 33
51 55 56 51 41 36 44 61 68 56 56 62 73 90 83 72 53 42 41 33 24 23 21 19 18 16 15 16 16 16 25 31 47 80 93 94 95 95 95 96 96 94 92 89 78 59 44 35 31 28 27 24 22 20

GFSWCAN_500_rhum_045.txt.gz
RH
95 97 74 47 52 53 50 37 30 21 16 11 4 3 2 3 4 20 54 66 79 74 89 99 52 86 96 99 57 31 29 26 25 26 26 24 24 28 39 53 60 65 68 67 58 51 49 43 45 46 45 46 53 41
97 81 80 82 65 53 44 40 36 25 18 13 5 3 3 2 6 26 61 76 85 74 88 99 98 83 93 94 99 57 28 26 25 25 26 29 30 30 25 23 27 47 50 52 56 65 67 60 52 50 45 42 39 36
88 96 92 94 58 49 40 36 30 26 20 16 8 3 4 3 9 29 68 82 88 88 100 100 100 100 98 100 100 96 65 90 82 93 73 85 78 63 56 63 47 24 26 38 43 44 50 66 70 62 56 52 47 44
97 94 95 64 62 48 34 27 22 22 21 17 9 3 3 3 14 48 73 85 87 97 100 100 100 100 100 100 100 100 100 100 100 100 100 99 100 96 95 94 89 91 47 29 23 29 37 40 44 58 66 62 58 53
97 96 74 69 61 43 33 23 20 20 24 19 11 4 3 4 40 61 78 89 85 93 98 100 100 100 99 100 100 100 100 100 100 100 100 100 98 95 88 86 70 86 94 95 51 26 20 21 30 35 37 42 52 55
97 88 87 84 55 43 31 24 22 12 10 8 5 3 3 7 67 78 88 90 90 99 98 100 100 100 100 100 100 100 96 89 77 50 45 35 27 33 38 51 58 82 85 90 91 71 44 26 20 23 31 34 32 36
92 93 94 85 59 40 28 27 24 13 7 5 4 3 3 6 52 75 89 100 100 99 99 96 100 100 100 99 88 70 52 40 29 29 22 19 15 18 11 7 12 20 52 78 85 83 85 58 33 23 23 30 34 30
93 98 99 84 57 36 30 27 19 17 16 7 4 4 4 8 21 71 92 100 100 98 100 93 94 88 89 79 76 60 50 36 31 36 31 36 43 25 10 6 8 17 19 44 81 100 98 89 58 34 24 31 35 35
96 99 99 81 50 36 32 26 18 15 15 11 6 5 6 5 18 38 80 100 100 100 100 98 99 100 84 78 80 72 71 53 34 33 41 36 64 39 12 3 6 95 100 83 77 97 100 100 73 38 28 28 32 33
99 99 97 81 51 40 32 29 22 18 16 14 11 12 7 7 9 38 66 90 100 100 100 98 100 100 100 99 93 75 70 58 42 27 45 59 94 90 72 80 100 99 91 100 100 100 100 100 87 39 34 33 32 29
100 97 94 85 58 44 34 31 25 20 19 19 17 16 12 9 8 12 48 96 99 99 100 100 100 100 98 99 94 85 75 70 63 43 51 78 74 100 93 47 60 98 98 85 90 95 100 100 93 46 41 37 36 32
100 97 92 84 64 50 42 38 32 28 30 24 22 19 15 13 9 9 10 16 55 85 96 99 99 100 100 100 100 90 90 94 73 76 76 91 100 100 100 97 78 73 95 95 100 100 100 100 93 64 44 39 34 28
100 98 95 92 71 54 50 47 43 43 41 35 27 22 18 16 15 11 10 10 13 14 36 75 92 99 99 100 100 98 87 86 94 100 100 100 100 100 100 100 100 98 79 100 100 100 100 92 70 56 46 40 37 40
100 95 94 95 77 68 62 59 63 60 54 48 40 30 25 26 24 21 16 15 15 15 13 17 42 79 91 97 100 97 99 98 99 100 100 100 100 100 100 100 100 100 97 94 100 100 100 98 84 70 62 60 59 57
100 92 92 92 83 78 77 74 80 82 64 56 49 40 37 35 35 31 27 26 24 20 18 11 22 41 73 95 100 100 100 100 100 98 100 97 100 100 100 100 100 100 100 100 100 100 100 100 100 90 86 82 78 74
100 98 86 92 90 90 89 88 90 97 98 70 62 56 56 54 46 43 39 38 31 30 22 16 11 29 37 83 100 100 100 100 100 100 99 98 100 100 100 100 100 100 100 100 100 100 100 100 99 98 92 82 76 71
100 100 92 94 93 89 89 95 94 97 99 94 76 75 79 74 62 53 52 46 40 38 35 30 14 10 32 39 91 100 100 100 100 100 100 100 99 100 100 100 100 100 100 100 100 100 100 100 97 90 96 96 98 99
100 100 98 92 92 85 82 93 95 93 86 89 91 94 99 84 72 63 59 62 53 46 44 42 29 22 16 36 46 82 100 100 100 100 100 96 88 92 100 100 100 100 100 100 99 99 100 100 96 100 100 100 100 100
100 100 100 100 100 96 94 95 100 93 91 90 93 94 95 85 83 76 76 65 57 53 62 52 53 32 30 24 56 45 60 88 98 100 100 100 95 97 100 100 100 100 100 98 93 90 100 96 97 96 94 100 100 100
100 100 100 98 97 98 92 90 100 99 92 99 97 96 85 80 76 86 81 73 72 71 75 79 59 46 43 28 29 43 33 37 46 87 100 95 100 99 100 100 100 100 100 100 100 100 100 100 100 100 100 100 96 87
100 100 100 96 93 96 89 90 93 95 97 99 91 74 60 61 68 79 84 85 80 88 88 71 64 62 56 38 25 26 48 33 31 27 33 92 96 100 100 100 100 100 100 100 100 100 100 100 100 100 98 99 96 87
100 100 100 96 93 88 87 90 95 96 100 92 80 70 60 55 63 75 84 90 82 78 72 66 74 83 76 51 25 23 74 70 41 33 27 20 46 94 99 100 100 100 100 100 94 91 98 100 100 100 100 100 98 89
100 100 96 94 90 78 71 80 92 99 100 87 77 70 69 66 68 79 76 71 63 48 60 90 100 100 94 50 26 60 100 100 82 48 31 23 19 29 82 89 94 100 98 99 100 100 96 95 97 99 100 100 100 94
100 100 100 84 72 75 85 94 99 100 99 92 77 65 72 76 73 62 51 38 23 25 97 100 100 96 88 55 32 71 100 100 94 62 38 25 20 18 26 66 79 83 96 100 99 100 100 100 100 100 98 100 99 97
100 100 88 78 75 90 100 100 96 91 75 71 69 67 46 33 25 20 18 18 18 26 47 75 84 98 100 53 36 65 98 100 100 69 38 28 37 49 51 60 75 82 86 97 98 100 100 98 99 100 100 99 100 100
100 94 84 84 89 93 92 75 65 56 43 32 25 25 24 27 24 24 34 43 52 90 100 96 100 100 90 55 53 66 75 96 100 81 43 42 96 100 100 100 98 94 100 100 100 100 99 95 94 94 96 98 100 100
95 86 75 64 61 51 41 34 30 28 27 28 30 37 42 29 29 53 86 95 100 100 100 100 100 98 80 57 44 42 43 43 68 87 64 55 99 100 100 100 100 100 100 100 100 100 99 96 92 92 94 95 88 72
59 48 37 35 33 33 32 33 36 42 58 66 61 61 53 59 57 71 85 92 100 100 97 96 100 100 99 95 77 49 43 39 35 46 69 70 79 96 100 100 100 100 100 100 100 100 100 100 98 95 91 84 72 75
38 36 36 33 32 37 47 62 66 90 94 86 72 50 43 49 58 71 84 92 92 81 80 90 98 100 100 100 92 66 47 36 31 32 36 58 61 90 83 99 100 100 100 100 100 100 100 100 100 100 100 100 100 100
18 31 41 50 54 61 72 89 66 77 68 50 43 42 40 44 62 61 56 54 50 51 56 62 76 89 92 91 80 66 54 42 27 26 32 42 54 66 94 95 96 98 100 100 100 100 100 100 99 100 100 100 100 100
39 70 90 91 82 78 72 63 51 46 41 42 44 40 37 41 31 47 54 58 63 54 44 41 46 48 49 47 41 39 34 26 24 22 25 38 46 57 94 100 100 100 100 100 100 100 100 100 100 100 100 97 92 91
78 87 83 78 69 54 48 49 42 42 38 30 27 30 37 45 46 57 76 68 50 41 37 32 28 26 26 26 30 30 26 24 19 18 18 37 43 51 78 100 100 100 100 100 100 100 99 96 95 94 95 93 89 85
82 67 52 43 39 44 48 43 36 34 32 26 30 48 66 73 80 80 46 42 41 40 33 26 23 20 17 17 19 19 17 17 14 13 20 34 38 51 79 95 99 100 100 100 100 100 100 99 92 77 59 45 39 34

GFSWCAN_500_rhum_048.txt.gz
RH
99 91 77 84 92 89 91 83 70 60 50 41 36 30 20 15 5 3 3 9 34 63 69 75 87 88 62 78 100 93 57 40 35 30 26 28 26 32 36 52 62 67 72 69 58 52 48 39 42 47 49 49 47 43
97 94 87 93 96 95 96 74 58 54 48 43 36 31 21 16 5 3 3 15 52 65 71 81 87 94 71 77 88 99 97 66 37 32 27 27 26 27 27 28 30 33 46 55 60 66 67 60 52 46 47 47 51 49
97 100 97 96 98 97 86 59 47 47 38 30 30 28 20 12 7 3 4 18 55 66 75 91 95 100 97 96 95 87 99 95 42 31 28 27 28 36 45 48 41 37 34 26 34 48 50 57 68 66 56 50 47 44
97 98 98 97 97 94 66 55 45 29 23 23 26 21 16 12 6 3 6 31 54 68 78 95 94 100 100 100 100 94 100 100 98 70 93 99 99 93 98 93 85 94 86 85 61 28 31 44 44 51 69 69 61 57
95 97 98 97 97 86 71 42 30 18 10 12 15 14 12 10 5 3 12 41 63 71 83 90 93 99 100 100 100 100 100 100 100 100 100 100 100 90 87 87 83 60 96 97 100 94 40 27 26 34 40 45 61 64
97 98 98 98 94 88 56 41 27 8 9 8 8 7 6 5 3 2 22 55 75 81 100 100 98 100 100 100 100 100 100 100 100 100 85 76 70 33 24 19 18 18 26 74 79 98 94 72 31 21 19 28 36 38
97 97 98 100 94 81 53 32 13 8 9 6 5 5 4 3 3 3 19 55 72 82 92 97 95 95 98 99 100 99 85 82 65 51 45 36 28 27 22 19 20 17 12 10 33 68 84 100 93 53 26 19 18 27
98 98 98 97 94 76 47 33 9 10 9 7 6 5 4 4 3 3 17 69 74 82 85 87 92 89 90 94 100 97 76 69 58 51 45 44 44 35 23 18 30 25 8 5 6 14 54 98 100 89 64 33 23 19
98 98 92 98 92 67 42 30 10 12 10 9 8 9 6 6 6 6 8 37 65 78 90 88 92 99 99 95 79 76 69 64 55 49 50 52 45 46 31 36 43 18 3 8 27 17 35 79 100 100 98 65 34 24
100 99 99 97 87 66 46 28 13 15 11 11 12 12 10 10 10 9 8 10 37 70 84 93 93 86 95 97 100 94 90 88 84 73 68 61 65 60 47 63 76 99 100 100 100 81 100 100 100 100 100 94 51 32
100 100 98 93 88 70 49 34 23 21 14 16 17 14 13 12 12 12 12 9 8 13 40 71 87 88 94 97 100 100 100 96 86 86 79 64 67 55 95 98 84 72 91 81 97 99 87 100 100 98 100 100 61 36
100 99 96 95 90 72 57 42 34 27 21 22 20 21 19 16 15 16 15 13 11 10 9 8 22 59 82 98 96 100 100 100 93 93 82 72 78 75 80 100 99 100 79 77 82 91 87 91 94 100 100 100 83 49
100 100 93 93 87 80 61 48 42 32 28 27 28 31 26 23 22 20 19 16 15 14 11 10 10 11 33 73 93 99 100 100 100 100 98 69 75 88 86 100 97 100 94 100 94 82 78 84 99 100 100 100 87 61
100 95 96 95 90 82 64 56 51 41 37 35 34 37 35 37 30 27 25 20 18 18 18 20 17 14 14 33 73 88 98 100 100 100 86 86 80 94 92 96 100 100 85 91 100 100 100 90 93 100 100 99 94 67
100 100 97 96 91 82 72 67 66 58 50 46 45 42 46 48 46 39 36 31 25 21 21 24 22 17 14 14 39 98 100 100 100 100 94 100 94 86 96 90 98 100 100 95 97 100 100 100 98 100 100 96 94 87
100 100 100 96 88 91 79 77 80 80 73 64 64 58 59 65 61 54 52 48 43 37 34 32 32 29 18 17 16 38 100 100 100 100 100 100 98 90 88 100 100 99 100 100 100 100 100 100 100 100 100 100 100 92
100 100 100 100 98 96 92 86 84 83 80 69 77 76 80 82 80 70 63 56 53 53 55 53 46 42 38 25 21 18 17 73 99 100 100 100 100 100 100 97 100 100 100 99 99 100 100 100 100 100 97 87 83 84
100 100 97 99 100 100 96 92 82 82 87 87 87 93 91 83 78 70 63 58 55 61 68 78 63 58 66 49 36 30 24 18 27 90 99 99 100 100 100 100 100 100 100 100 100 96 100 98 100 90 100 84 77 88
100 98 98 99 97 100 100 100 100 95 92 89 94 100 98 91 85 75 71 70 66 69 73 80 76 75 73 70 60 51 41 26 21 28 72 92 94 100 99 96 100 100 99 100 100 100 100 100 100 100 100 95 85 86
98 100 100 100 100 100 100 96 99 98 94 91 98 100 96 94 93 88 78 78 73 66 77 83 83 88 79 71 72 63 49 37 34 24 34 74 84 85 99 100 97 99 100 100 100 100 100 100 99 100 100 100 90 90
100 100 100 100 100 97 94 90 100 100 100 96 97 96 90 88 87 89 83 67 55 55 69 82 77 78 78 82 76 66 74 67 60 38 24 36 55 41 65 90 84 95 100 100 100 100 100 99 94 97 96 92 91 96
100 100 99 100 97 89 92 89 100 100 100 91 89 90 86 80 81 74 63 54 50 71 81 57 54 58 65 72 54 80 100 100 83 53 24 46 49 42 32 36 81 100 100 100 100 97 100 100 100 100 100 100 100 100
95 100 98 96 89 82 87 99 100 100 100 90 88 86 81 76 72 63 50 41 36 28 22 20 21 26 31 32 58 100 100 99 61 33 38 95 85 53 39 27 23 48 98 100 98 98 94 98 100 100 100 100 100 100
96 97 90 84 75 85 99 100 100 100 96 91 86 78 75 73 58 45 38 30 24 18 17 18 22 26 25 33 100 100 100 100 65 47 66 100 100 86 59 34 24 20 25 81 96 98 98 98 93 92 93 95 96 95
100 100 85 68 72 99 100 100 100 95 91 85 75 69 57 45 39 36 29 22 18 24 28 33 50 40 35 46 98 100 100 98 71 84 94 97 100 74 56 37 28 28 27 25 48 83 84 89 94 95 89 87 91 91
87 87 74 82 100 100 99 90 93 90 80 74 61 44 37 35 28 27 27 27 28 41 75 100 100 96 99 79 99 100 100 99 59 70 93 93 100 81 50 49 68 66 71 75 75 74 74 74 78 89 91 91 96 86
85 88 99 100 100 97 93 82 77 72 57 42 37 31 26 22 27 33 38 36 46 71 83 79 99 100 100 100 100 100 100 97 61 48 50 70 93 90 71 57 97 100 100 100 100 97 88 86 88 91 94 97 100 91
100 100 100 95 86 82 75 75 65 45 30 26 25 28 27 32 30 40 44 47 47 53 82 97 91 99 100 100 100 100 100 97 57 34 31 34 49 64 73 63 68 100 100 100 100 100 99 94 92 92 93 97 98 95
100 100 95 92 89 82 60 36 34 30 34 40 48 37 31 29 32 42 43 41 39 39 45 52 63 74 83 84 94 100 100 96 84 51 35 28 32 35 54 55 54 70 100 100 100 100 100 98 100 100 100 100 100 100
96 89 82 67 51 33 38 33 31 42 51 55 46 38 28 28 36 36 35 32 32 31 32 31 34 42 50 56 65 78 85 91 98 90 76 56 43 38 28 32 50 54 72 100 100 100 100 100 100 100 100 100 100 100
63 50 36 26 21 34 47 65 76 70 56 47 44 41 41 39 28 28 27 24 22 23 26 31 35 40 44 40 35 41 57 70 79 80 79 68 52 38 21 21 44 53 62 90 100 100 100 100 100 100 100 100 100 100
17 16 17 20 30 47 54 51 41 39 42 40 39 37 28 25 23 19 28 38 46 52 56 50 46 46 42 37 31 30 28 28 37 50 52 48 41 36 22 19 40 48 54 75 95 100 100 100 100 100 100 100 100 100
21 29 35 36 37 39 41 42 38 34 32 30 25 30 66 45 29 47 63 55 44 60 90 100 94 78 56 38 25 20 17 20 22 20 20 24 25 20 14 24 37 44 49 69 88 98 100 100 100 100 99 97 91 83

GFSWCAN_500_rhum_051.txt.gz
RH
96 99 98 96 96 90 79 78 83 84 88 51 47 44 37 28 20 16 10 3 2 6 32 49 62 73 79 70 58 99 88 70 62 56 50 38 28 28 38 52 61 71 77 82 70 51 52 41 37 39 43 51 51 45
97 98 97 96 97 88 87 81 90 91 87 56 48 43 36 27 21 15 11 4 2 5 26 49 66 71 87 99 68 85 100 96 79 52 39 34 30 32 33 33 34 34 36 47 61 70 76 72 56 47 42 46 49 53
98 97 96 98 96 93 86 89 95 92 78 54 47 38 33 27 19 14 8 4 2 10 26 47 69 66 71 100 93 94 100 100 100 88 58 36 34 33 30 28 30 34 35 33 30 33 48 56 69 71 56 46 48 48
97 96 99 99 95 91 94 98 97 95 70 49 39 32 30 24 17 12 8 5 3 11 39 54 68 75 68 91 99 98 100 100 100 100 90 40 31 32 56 94 100 100 98 99 87 66 41 28 40 50 68 69 61 52
97 99 99 97 95 96 97 96 98 82 47 34 29 25 26 19 14 10 6 5 4 13 40 46 61 82 90 89 99 100 100 100 100 100 100 99 99 97 100 100 89 81 72 68 74 83 85 95 53 26 38 46 57 70
97 99 100 97 100 98 96 98 97 44 25 19 21 24 20 13 11 8 5 5 5 26 59 69 86 99 87 94 98 100 100 100 100 100 100 100 98 80 48 36 30 28 27 23 24 26 51 70 94 88 34 27 34 42
96 98 96 97 99 98 97 99 83 22 15 13 18 18 12 10 8 6 4 4 6 27 56 69 82 88 89 99 98 98 98 99 100 98 79 52 41 41 41 36 40 27 20 20 18 12 13 13 40 88 92 58 26 21
98 98 98 99 98 97 99 97 70 15 9 10 14 11 8 6 6 4 4 3 5 13 43 64 70 77 88 90 83 82 88 86 86 82 65 60 50 45 42 38 29 32 31 18 23 11 5 8 11 28 90 96 75 31
96 96 98 98 98 99 98 95 44 14 8 9 11 8 8 8 7 6 5 5 5 7 13 40 65 75 84 81 85 90 78 77 82 85 82 77 69 55 47 40 35 36 50 27 29 52 9 7 9 18 50 100 100 73
99 98 99 98 98 97 100 93 49 18 12 9 10 9 10 11 11 10 8 9 10 10 10 10 9 26 64 74 79 83 95 98 93 95 91 78 75 63 52 44 37 43 61 63 59 82 69 38 29 94 100 100 100 100
98 99 99 98 97 100 100 83 61 22 16 13 12 10 12 14 15 14 12 13 14 14 12 12 12 10 11 40 70 78 87 92 99 99 100 97 77 85 77 58 42 55 66 63 92 100 93 100 84 100 100 100 100 100
98 98 99 98 100 100 99 92 74 36 22 15 16 14 15 16 18 16 14 14 16 17 18 16 12 13 12 10 24 76 96 100 100 100 100 96 85 87 74 75 77 74 75 85 84 100 92 96 100 99 100 95 93 100
98 99 100 100 100 100 100 98 70 37 22 19 20 16 19 22 21 22 22 21 21 23 21 20 17 15 14 12 12 26 80 100 100 100 99 85 82 90 81 99 96 98 98 96 87 81 87 88 85 90 99 99 97 95
99 100 100 100 100 100 100 94 68 45 29 27 26 22 23 25 29 29 27 30 30 26 26 23 23 23 20 15 13 10 21 82 100 100 100 99 85 86 97 100 99 100 97 92 87 96 87 99 93 84 93 99 97 100
100 100 100 100 100 100 100 100 82 54 37 34 35 31 30 32 37 36 36 35 33 34 34 30 29 27 27 26 19 15 14 42 97 96 100 100 100 100 100 100 100 99 99 100 89 83 94 100 100 94 100 100 100 100
100 100 100 100 100 100 100 100 93 67 49 42 43 42 44 43 42 42 44 44 45 44 45 47 43 41 36 32 32 27 21 17 15 27 69 96 100 100 100 100 99 100 100 97 100 100 100 100 98 99 100 100 100 100
100 100 100 100 100 100 100 99 96 84 69 60 60 59 65 62 54 51 47 52 58 56 60 64 64 67 62 49 44 42 37 29 22 19 17 19 42 79 100 100 100 99 100 100 100 100 100 100 100 100 100 100 100 100
100 100 100 100 100 100 100 98 95 92 83 74 73 80 80 74 69 62 58 58 61 67 75 79 76 62 75 60 56 50 45 59 55 43 34 33 28 22 54 96 100 100 99 100 100 100 100 100 100 100 100 100 100 99
100 100 100 100 100 100 100 100 98 100 99 96 97 95 88 83 80 72 66 65 69 77 79 83 88 74 66 56 51 46 42 67 87 77 69 59 44 30 23 34 85 99 100 99 100 100 100 100 100 100 100 100 100 96
92 97 100 100 100 100 100 99 100 100 100 100 100 94 88 89 80 72 71 66 70 81 90 92 91 79 67 52 41 37 63 99 100 100 100 88 67 49 39 26 47 90 94 91 97 100 100 100 100 100 100 96 97 98
97 100 99 99 100 99 95 98 100 100 99 95 100 95 85 85 72 70 75 72 71 86 89 84 76 64 50 38 33 29 73 100 100 100 100 84 95 83 67 30 30 76 87 90 99 98 99 100 100 100 100 100 100 97
100 100 100 100 99 96 94 99 100 100 99 96 95 87 82 77 77 72 68 67 71 87 77 61 54 44 39 30 24 27 32 33 44 65 78 100 100 64 43 35 73 56 42 62 95 98 95 96 100 100 100 100 100 100
90 100 100 100 97 95 98 100 100 100 97 88 85 83 71 64 64 62 52 58 77 65 57 51 46 34 21 15 17 24 31 37 60 100 100 100 100 62 35 44 100 75 47 32 42 83 92 83 94 100 100 100 100 100
100 100 100 92 94 96 100 100 100 98 89 85 80 72 61 58 55 54 54 68 60 52 48 36 22 16 15 18 28 38 44 52 99 100 100 100 100 98 64 97 100 85 75 46 30 27 67 98 96 97 99 94 96 100
100 100 94 85 87 100 100 96 92 84 80 77 69 65 59 58 54 50 53 53 52 39 23 20 20 21 33 55 71 88 99 83 100 100 100 100 100 100 100 100 100 78 75 62 34 25 22 40 95 100 96 94 88 81
95 96 90 91 100 100 92 77 73 75 72 64 60 62 59 53 50 53 51 40 27 19 22 27 31 42 76 100 100 100 100 99 70 100 100 99 84 77 100 100 100 72 71 86 61 43 34 31 30 54 91 96 94 91
98 97 96 100 95 79 73 75 74 68 66 67 66 60 56 53 46 34 23 17 18 26 35 33 40 44 57 84 98 100 100 100 96 80 80 97 93 81 84 100 100 74 67 85 100 100 97 86 78 66 57 66 75 73
90 93 95 91 81 78 74 73 75 74 71 66 62 58 44 29 19 17 17 20 28 37 37 35 36 35 33 31 42 59 88 100 100 79 84 94 97 82 65 72 80 92 77 54 72 100 100 100 100 100 100 99 86 75
96 99 90 87 83 83 81 76 73 72 66 53 38 23 15 12 15 26 30 32 35 34 30 29 28 28 26 25 24 25 30 43 78 88 68 63 82 80 60 57 52 61 71 62 55 83 100 100 100 100 100 100 98 90
96 91 89 89 85 83 84 73 61 40 28 17 14 12 13 16 32 42 36 32 24 24 34 30 29 33 34 32 35 36 43 38 42 54 63 74 67 65 74 67 46 32 33 47 52 55 80 100 100 100 100 94 91 91
90 90 89 88 87 67 46 33 24 18 14 13 15 19 24 35 31 27 18 25 52 61 53 52 59 73 62 55 46 44 42 50 42 39 43 53 60 67 66 66 58 49 41 29 36 49 53 66 92 98 96 92 87 86
94 91 72 40 25 19 18 16 13 12 12 15 21 30 32 33 24 17 52 61 56 92 99 100 100 100 100 100 100 85 53 42 39 41 36 32 46 63 72 73 66 56 46 29 22 33 48 50 57 78 91 93 92 92
41 26 21 18 16 14 13 12 14 15 17 22 25 26 24 29 22 45 49 66 80 97 99 89 65 40 34 27 22 18 16 21 23 21 19 22 24 37 60 59 47 41 35 23 19 26 41 47 50 67 86 94 98 100

GFSWCAN_500_rhum_054.txt.gz
RH
96 97 98 98 98 97 100 88 93 84 82 80 77 70 69 40 30 20 14 8 6 4 4 8 14 39 62 76 84 51 80 82 83 64 72 69 59 45 40 47 65 72 83 87 80 69 64 58 47 43 40 38 44 53
96 96 97 99 97 100 98 96 94 86 92 84 77 70 57 36 27 20 13 10 6 4 4 5 12 46 46 40 90 80 47 86 78 73 64 64 56 44 37 39 44 47 41 44 54 62 66 73 71 63 52 43 40 45
96 96 97 99 98 99 100 94 91 96 92 88 76 69 49 37 25 17 14 9 7 5 5 6 14 40 46 52 68 95 75 78 98 88 73 62 49 42 36 36 38 38 33 29 28 29 29 38 55 65 70 68 58 48
95 97 98 99 98 99 99 98 96 97 91 88 73 64 45 33 23 17 12 10 8 5 4 7 14 28 53 49 84 94 65 78 90 100 99 87 65 48 42 38 38 37 37 42 52 66 57 44 32 27 33 52 68 65
83 97 98 98 98 98 97 98 96 98 90 84 70 56 43 30 21 16 12 10 8 5 4 9 16 29 43 59 73 85 100 100 91 93 100 100 100 92 43 39 92 79 79 83 83 76 79 81 92 85 80 46 31 53
84 97 97 98 100 99 99 97 96 96 90 93 77 40 43 28 19 16 12 9 7 5 4 12 21 41 48 52 70 83 97 98 98 100 100 100 100 100 100 100 83 83 62 40 27 22 18 20 24 45 72 78 80 40
97 98 98 97 97 99 100 94 98 94 93 87 42 41 37 24 18 15 12 9 6 4 4 10 15 36 57 70 89 94 100 98 100 100 98 100 100 100 99 94 74 51 41 34 24 21 22 21 17 16 15 29 58 82
95 99 98 97 100 99 99 96 98 95 95 72 38 47 30 19 17 14 10 6 5 4 3 3 5 17 42 57 69 83 89 95 94 97 95 89 78 69 58 57 53 44 41 41 33 25 19 17 14 11 10 9 13 45
98 98 99 97 98 100 98 99 98 94 87 49 47 29 16 13 12 11 7 5 4 5 4 4 4 5 7 24 54 70 82 95 99 98 90 92 86 71 65 66 64 55 48 45 38 32 29 27 33 23 20 12 8 12
98 97 97 100 100 99 98 98 96 96 88 66 38 20 10 11 10 8 6 6 6 7 6 5 6 7 7 6 9 51 72 87 98 98 100 96 96 86 85 86 80 69 63 51 46 33 38 44 41 67 52 28 55 97
97 98 98 98 98 97 99 99 98 98 92 63 31 18 11 11 11 8 7 7 8 9 8 7 8 9 9 10 8 9 34 72 97 100 100 100 97 93 99 100 99 94 80 66 65 52 47 53 85 88 49 75 100 100
98 97 97 98 98 99 99 99 100 99 88 61 35 17 12 13 15 12 10 12 12 11 12 11 12 12 13 15 13 13 13 31 85 100 100 97 98 94 98 100 100 96 88 76 82 85 64 60 90 100 100 100 99 100
98 97 98 98 99 100 99 99 99 97 86 83 36 16 18 17 18 17 18 19 22 24 24 24 23 20 20 19 18 17 18 17 19 42 67 73 76 88 100 100 100 100 100 95 86 99 92 69 65 90 100 100 100 100
98 99 99 99 99 100 100 100 98 95 98 86 33 19 22 23 21 21 25 30 34 36 36 37 37 33 30 31 28 27 22 21 20 17 21 21 23 56 72 85 98 100 100 100 100 97 100 91 83 86 90 98 90 87
98 98 100 100 100 100 100 100 100 98 99 83 43 27 25 31 29 24 25 29 34 40 47 51 53 51 46 44 39 36 34 33 33 29 26 22 20 16 20 61 95 100 97 100 100 100 100 100 100 75 76 85 93 100
98 100 100 100 100 100 100 100 97 100 98 88 61 39 32 35 39 38 34 35 42 49 53 56 64 68 61 61 54 52 44 37 34 41 40 35 32 26 24 24 21 55 100 98 100 100 100 100 100 97 100 95 88 100
100 100 100 100 100 100 100 100 100 98 97 96 89 69 51 45 45 51 48 51 56 61 66 68 72 69 72 70 65 60 56 49 46 47 52 47 37 35 34 34 41 31 40 92 100 100 100 100 100 100 100 100 100 100
100 100 100 100 100 100 100 100 99 96 97 100 98 92 79 69 66 67 67 66 66 68 68 77 74 72 79 68 63 64 57 62 61 57 56 50 39 39 42 62 63 56 40 40 96 100 100 100 100 100 100 100 100 100
100 100 99 100 100 100 100 99 98 97 97 98 94 94 93 93 93 91 80 66 63 68 73 73 75 70 67 62 59 56 59 58 54 51 48 40 37 48 58 74 96 91 72 51 45 99 100 100 100 100 100 100 98 100
100 100 100 99 99 100 99 99 100 100 100 100 100 100 100 97 86 77 75 71 71 78 78 73 71 68 61 58 56 53 48 47 49 44 33 32 36 51 65 84 97 89 75 52 33 79 99 100 100 100 100 100 100 100
100 100 100 99 99 100 100 100 99 99 100 100 100 97 91 86 80 75 75 77 83 82 76 68 62 55 52 47 47 42 44 42 31 20 16 16 30 38 62 78 83 79 83 69 36 56 98 100 100 100 100 100 100 100
100 100 100 100 100 100 96 99 100 100 96 99 99 94 85 79 77 80 77 75 79 88 71 56 50 44 40 39 34 34 23 15 14 14 16 23 50 87 100 100 100 100 75 41 39 52 84 94 100 100 100 100 100 100
99 95 97 100 97 90 93 100 100 100 92 90 87 78 71 73 77 74 75 76 83 68 50 44 40 37 31 25 19 13 14 14 16 21 36 37 57 100 100 100 100 100 79 61 41 66 72 67 83 100 100 100 100 100
94 94 98 100 98 98 100 100 100 96 85 78 73 74 74 72 69 71 69 73 54 47 44 40 33 26 20 15 12 16 19 18 28 50 66 52 66 100 100 100 100 100 68 93 100 92 81 74 41 75 100 100 100 100
98 100 97 95 100 100 100 100 100 94 87 80 78 75 65 64 64 60 57 52 50 43 34 26 21 16 14 14 18 22 28 29 47 62 88 80 74 100 100 100 100 100 78 80 100 100 100 90 54 47 54 93 100 100
95 93 88 90 100 100 99 94 93 82 76 77 68 64 63 63 57 52 50 42 36 29 24 18 14 14 14 18 24 27 33 32 33 56 86 99 63 61 75 82 95 100 88 72 100 100 100 100 93 84 90 74 68 87
81 76 89 100 100 99 91 84 76 76 78 72 68 67 66 59 52 45 39 30 24 17 11 10 12 16 19 23 26 28 31 31 29 30 42 71 98 65 58 69 99 100 99 95 98 93 96 100 100 100 100 100 97 77
93 100 100 100 96 91 85 86 86 78 71 69 69 69 59 52 39 30 24 17 12 9 10 12 17 23 27 26 25 27 27 26 25 25 25 27 44 97 87 69 76 98 89 90 99 97 82 77 93 100 100 100 100 100
100 100 97 92 92 93 87 81 72 68 70 70 66 59 44 34 24 18 11 9 8 10 12 13 14 25 34 34 41 55 55 43 42 32 22 23 26 50 92 89 83 81 86 88 93 96 86 58 55 88 100 100 100 100
100 100 97 93 86 80 76 71 72 71 69 65 50 38 26 18 12 10 9 8 9 11 11 15 23 33 54 69 82 100 100 98 66 39 36 32 24 25 55 88 100 86 74 63 54 64 72 77 73 56 72 96 100 100
92 86 89 85 77 76 77 74 71 65 56 39 26 20 14 11 9 9 9 9 9 10 16 20 41 64 56 61 47 45 89 100 87 69 48 41 39 28 32 59 84 99 83 62 43 36 33 33 34 43 46 50 70 90
83 80 79 81 84 81 76 70 62 44 27 19 16 12 10 12 12 10 10 12 13 16 21 31 57 78 99 92 71 31 23 26 25 20 24 39 44 30 24 36 59 73 78 71 57 43 44 46 42 27 24 36 50 51
93 89 84 84 80 74 55 39 29 24 18 13 10 12 18 21 17 11 13 16 18 30 51 73 95 100 100 100 92 43 18 16 14 14 15 22 27 24 25 21 30 47 56 62 60 55 53 40 38 31 22 23 36 46

GFSWCAN_500_rhum_057.txt.gz
RH
64 60 88 98 97 95 98 100 98 94 94 92 98 93 81 62 44 50 22 12 8 6 4 3 3 8 29 34 46 82 59 65 74 56 68 78 62 53 52 51 45 41 50 78 88 88 85 76 61 47 44 39 39 41
100 91 65 93 97 97 97 99 98 94 96 90 93 97 81 60 47 48 16 12 10 7 4 4 4 6 16 34 34 66 86 55 72 80 76 78 84 75 67 58 46 38 39 51 59 70 74 75 75 69 65 67 56 48
100 100 60 78 96 98 98 98 97 99 93 91 96 94 80 64 45 36 16 12 10 7 5 4 4 6 14 39 53 65 54 69 50 89 87 88 81 75 67 54 46 36 32 31 33 36 34 32 34 39 52 64 69 69
91 62 80 89 97 98 98 97 91 98 92 98 95 92 75 85 57 24 21 14 10 8 6 4 4 5 10 25 46 56 72 76 54 64 97 90 85 75 66 60 56 41 32 30 31 31 32 37 51 42 41 34 28 37
64 97 95 74 96 97 98 97 97 97 95 97 90 87 85 61 42 28 18 13 10 8 6 4 4 4 4 11 29 48 71 89 95 78 82 100 100 99 100 96 64 49 43 34 37 80 86 100 98 86 88 89 83 68
99 99 98 98 98 97 98 98 100 97 100 93 88 87 75 73 44 23 16 12 10 7 6 5 3 3 4 11 32 39 54 70 88 100 100 97 96 98 100 99 100 80 53 88 99 70 37 32 30 29 25 23 20 28
100 100 97 98 98 98 97 98 97 97 96 95 90 84 74 63 37 25 17 14 10 8 6 5 4 4 4 3 8 47 67 79 82 95 98 100 95 89 96 100 100 100 100 99 85 45 37 30 30 31 23 19 17 16
88 96 98 98 98 97 98 97 98 96 98 96 93 81 73 56 37 23 18 14 11 9 8 6 5 5 5 4 4 12 49 76 82 84 84 86 89 94 94 96 93 90 84 78 57 40 35 38 34 28 24 19 18 16
85 98 98 98 95 98 99 98 97 96 98 98 94 78 82 54 34 23 19 14 13 11 9 8 7 7 7 6 5 5 13 53 70 75 82 90 92 89 93 99 97 87 76 70 77 70 59 47 41 31 27 32 29 17
99 98 99 95 98 98 99 97 96 99 97 98 98 90 75 53 28 22 16 15 15 12 10 10 9 9 10 10 8 6 6 13 45 53 70 71 63 61 62 75 95 100 100 92 84 84 71 59 53 45 41 36 55 26
96 98 99 99 97 97 98 94 99 97 98 98 94 97 81 48 21 18 16 16 15 15 13 14 14 14 15 15 13 11 10 8 10 22 48 59 67 59 60 54 63 71 81 88 93 88 70 68 73 56 37 21 78 63
100 99 99 99 99 98 99 96 99 100 98 99 97 96 67 41 18 16 15 14 18 21 23 21 22 21 21 22 23 18 16 14 13 14 12 13 20 32 33 29 32 40 58 86 99 100 94 88 81 80 54 39 88 100
99 98 98 98 99 98 99 99 98 97 98 100 99 94 61 45 24 15 16 15 21 26 28 30 33 32 29 31 31 31 28 26 22 20 17 17 14 15 19 23 24 22 19 22 48 79 96 99 92 90 93 82 76 78
100 99 99 100 99 97 98 98 100 99 98 100 99 88 73 51 29 21 20 19 22 25 27 33 40 45 42 40 39 42 36 35 32 32 31 32 27 24 24 26 24 28 29 19 16 22 75 92 100 94 100 100 96 98
99 99 100 99 98 98 99 99 100 100 100 100 100 92 90 73 32 21 26 26 26 27 32 41 54 59 60 58 56 54 55 49 46 45 42 41 44 41 39 34 34 37 36 38 34 21 21 66 96 100 98 97 92 98
98 99 99 99 99 100 100 100 100 100 100 100 100 98 100 92 51 28 27 33 39 43 45 51 59 62 55 62 58 63 65 64 58 56 51 50 44 43 43 42 47 49 50 46 40 29 25 21 73 100 100 100 98 83
99 99 100 99 100 100 99 100 100 99 99 100 100 100 100 93 77 56 43 40 42 52 60 63 62 63 64 68 68 66 66 62 54 51 48 47 40 39 40 45 45 42 40 38 34 29 37 38 33 100 100 100 100 100
100 100 100 100 100 100 100 100 100 100 100 100 97 97 98 96 88 84 83 80 77 76 85 89 76 73 80 80 77 72 64 54 49 46 44 46 42 34 23 18 22 22 26 33 41 46 66 56 34 76 100 100 100 100
100 100 100 100 100 100 100 100 100 100 100 100 100 94 94 94 91 95 99 97 86 80 88 76 77 77 76 80 81 70 54 45 39 32 27 23 17 12 11 12 14 17 24 40 70 93 98 78 46 47 100 100 100 100
100 100 100 100 100 100 100 100 99 100 99 100 100 100 100 98 94 87 83 77 75 81 82 73 66 66 77 81 75 56 42 35 24 18 15 13 12 11 10 14 21 25 54 69 69 76 87 67 46 39 95 100 100 100
100 100 100 100 100 100 100 100 100 100 99 100 100 100 88 81 80 79 75 76 77 77 64 60 66 76 75 64 46 36 27 22 17 12 10 10 11 11 18 30 33 87 100 100 100 100 87 70 41 36 80 100 100 100
100 100 100 100 100 100 100 100 100 99 97 95 85 77 76 85 88 83 76 71 72 66 62 65 68 66 51 39 30 23 16 10 9 10 14 15 14 32 46 48 78 100 100 100 100 100 70 48 44 42 75 100 100 100
100 100 100 100 99 98 100 100 97 95 91 88 86 86 93 94 90 81 76 76 68 62 61 62 56 46 34 23 17 12 9 8 10 14 18 22 21 47 68 63 78 100 100 100 100 100 81 48 46 56 73 98 100 100
100 100 98 97 99 100 100 99 94 91 90 92 91 95 96 93 84 80 75 67 61 59 58 53 42 30 19 12 10 9 10 12 16 24 34 33 29 48 72 72 75 96 91 100 100 100 100 86 91 77 78 82 97 100
96 97 98 100 100 100 100 98 96 94 97 98 99 95 91 85 77 71 68 62 60 57 50 38 24 16 11 9 9 10 20 28 26 22 27 35 34 32 44 98 78 92 100 82 83 100 100 100 100 100 100 84 80 99
100 100 100 100 100 99 100 99 97 98 98 94 94 94 88 78 74 69 63 59 56 47 31 20 14 10 9 8 7 8 10 17 17 18 27 35 30 31 30 41 100 99 100 78 60 87 100 100 100 100 100 100 100 100
94 94 100 100 100 97 90 87 85 87 90 91 91 86 80 71 64 60 56 53 42 26 17 13 10 8 8 7 9 12 19 28 30 35 45 60 58 37 29 30 45 100 87 90 64 66 88 100 99 100 100 100 100 100
99 100 100 100 100 97 92 92 94 89 83 82 83 78 68 65 62 58 51 36 24 18 12 9 8 7 7 9 16 32 76 95 80 71 72 86 100 80 35 27 28 69 87 67 92 76 65 70 94 94 99 100 100 100
100 100 100 95 91 87 90 95 90 88 83 79 73 67 66 65 58 46 30 23 18 15 9 8 7 7 10 18 52 100 100 96 82 58 56 56 80 100 52 26 24 30 86 91 69 90 88 66 67 93 92 88 91 100
100 98 93 93 96 94 92 85 80 77 75 73 68 68 65 54 39 30 24 19 14 10 8 7 7 10 16 29 70 100 100 100 78 26 18 22 40 54 68 39 24 23 42 94 91 59 70 80 78 91 83 68 50 65
100 100 99 94 87 81 82 80 75 74 74 74 70 60 50 40 29 21 18 13 10 9 7 8 12 24 49 69 83 96 100 100 63 21 16 15 15 19 43 47 30 22 22 47 100 99 69 64 75 82 94 86 83 80
98 96 90 82 82 87 83 78 75 76 74 64 53 44 38 30 23 17 11 9 8 8 8 11 26 57 67 77 82 81 94 100 100 24 15 16 15 17 30 35 34 28 23 25 64 79 66 53 51 46 44 37 40 42
93 89 84 81 82 84 82 79 74 66 55 49 39 27 20 16 13 11 9 8 8 8 13 40 60 66 76 79 77 73 67 67 89 71 17 12 12 13 16 18 20 24 24 25 45 58 58 54 43 35 36 38 41 38

GFSWCAN_500_rhum_060.txt.gz
RH
98 96 85 93 76 97 98 97 98 97 96 96 95 96 86 77 62 53 47 38 15 14 8 5 4 4 4 10 20 22 56 56 45 65 46 49 68 64 73 75 80 73 60 56 69 85 84 78 80 77 62 49 43 38
98 100 95 98 90 94 97 98 97 97 96 97 96 95 86 76 68 59 42 32 28 16 9 6 4 4 4 5 13 29 32 52 56 47 68 58 58 69 65 68 67 61 51 47 51 55 65 76 82 82 81 76 65 64
98 96 90 98 96 96 98 98 97 97 96 97 95 94 85 78 74 64 30 27 29 17 9 7 5 4 4 4 5 15 43 49 44 45 47 66 65 67 76 71 62 58 54 45 39 39 41 43 44 45 49 50 55 65
99 98 96 99 94 95 98 98 98 97 97 96 96 93 88 80 74 55 26 31 20 13 9 8 6 5 4 4 4 8 24 54 68 62 39 57 92 95 91 86 80 69 60 55 48 38 40 41 36 32 34 32 36 39
98 94 99 94 72 91 98 98 98 97 97 96 95 94 95 85 74 49 31 26 16 14 10 8 6 6 5 4 4 4 9 29 60 73 78 53 67 88 98 92 89 83 71 61 58 46 44 45 61 83 90 93 86 81
98 88 99 99 90 89 99 98 99 97 97 96 95 95 94 88 75 52 29 19 18 12 11 9 7 6 6 5 4 4 6 14 30 52 74 92 92 75 79 80 85 95 100 100 100 88 56 80 99 94 79 58 51 33
97 93 98 98 99 93 88 98 98 98 97 96 96 96 95 87 72 43 28 23 16 14 12 10 8 7 7 6 5 4 4 11 23 44 70 72 81 85 94 88 83 91 98 99 100 100 100 92 76 56 35 30 28 26
98 99 97 92 99 96 90 94 99 98 98 96 96 96 95 90 74 39 27 20 18 16 13 11 10 8 8 7 6 5 4 4 8 26 62 75 80 84 86 89 87 90 90 82 77 75 71 67 80 70 50 38 30 27
96 99 92 95 97 97 99 98 97 99 97 96 96 96 97 96 73 39 28 22 19 18 16 14 12 10 10 9 8 6 5 5 5 8 27 49 67 71 74 71 74 82 84 90 93 89 84 80 75 69 62 53 41 37
95 99 85 97 99 98 97 98 100 96 97 97 97 98 96 96 94 56 27 24 21 20 18 18 16 13 13 11 10 9 7 7 6 6 6 8 18 43 50 50 47 50 57 60 65 75 79 86 87 89 81 73 63 44
77 72 98 98 98 99 99 98 98 96 98 98 96 98 94 98 83 40 27 23 22 23 22 22 19 16 16 16 14 11 12 13 11 9 10 9 9 9 10 10 17 13 19 20 25 28 33 44 61 75 88 88 79 66
92 99 97 95 98 99 99 99 98 98 97 98 98 96 99 95 89 45 24 22 22 21 23 24 25 24 24 26 25 21 18 21 20 19 16 17 15 12 14 15 16 16 13 13 13 12 13 12 15 30 79 92 96 88
99 99 98 99 98 99 99 98 95 93 98 98 96 99 98 95 82 51 24 18 18 19 21 23 23 25 29 35 39 39 38 40 37 41 41 37 34 31 28 26 25 25 25 24 23 23 19 17 18 21 18 59 98 100
100 100 84 98 99 99 98 97 98 98 98 98 98 100 100 92 90 64 33 21 19 20 20 21 21 24 30 39 49 54 55 60 62 62 59 57 49 40 38 35 33 32 34 33 31 27 25 32 37 29 27 22 56 99
93 89 99 98 98 99 98 98 99 99 99 99 99 98 100 100 100 79 66 38 24 24 26 28 35 40 43 50 59 64 70 69 74 77 76 69 55 44 37 33 30 30 31 31 33 40 49 54 52 41 37 31 24 88
100 99 99 98 99 100 100 99 95 99 98 99 99 100 100 100 99 94 89 77 46 30 27 27 31 38 49 60 71 76 71 71 77 79 79 72 58 48 39 30 25 23 24 20 20 22 30 34 38 43 44 40 28 70
90 89 86 98 100 100 98 96 97 100 99 96 99 100 100 100 98 99 91 88 84 71 62 67 72 73 79 79 72 62 56 60 70 76 78 60 45 35 25 20 21 18 14 12 11 12 14 21 37 69 69 55 39 60
97 100 100 100 100 100 98 100 98 98 97 100 100 99 100 100 99 98 91 87 93 97 93 88 80 78 72 61 55 55 56 60 70 67 50 38 29 22 17 14 12 10 9 9 10 14 20 38 95 100 100 86 56 56
99 99 100 100 100 99 99 98 100 99 100 100 99 99 99 99 99 90 87 96 97 93 84 73 63 57 56 55 55 56 60 64 58 43 31 22 18 13 10 9 9 10 10 11 21 31 58 69 80 100 100 99 73 57
100 99 99 99 99 99 100 98 99 100 100 100 99 99 99 100 100 100 97 92 90 79 66 58 58 58 54 53 53 57 60 53 40 27 16 11 9 10 9 9 11 13 22 23 52 87 100 100 100 100 97 81 73 56
99 100 99 99 99 100 100 98 100 100 100 99 99 100 100 96 86 87 91 79 73 62 56 59 56 52 51 52 55 57 51 35 21 14 10 8 7 8 12 18 18 30 51 62 100 100 100 100 100 100 80 72 51 54
100 100 100 100 100 99 100 100 100 100 100 100 100 97 91 89 89 77 71 67 62 56 60 57 55 52 51 55 56 47 29 17 10 8 8 7 8 13 21 28 28 40 70 68 78 100 100 100 100 100 80 58 58 68
100 100 100 100 100 100 100 100 100 100 100 100 98 99 96 84 74 72 68 67 56 63 61 58 51 49 53 53 39 20 13 10 8 7 9 11 17 26 36 38 39 36 69 75 95 100 97 100 100 100 99 68 68 80
100 100 100 99 97 100 100 100 100 100 100 100 100 90 79 80 78 70 67 61 64 64 59 49 47 48 47 31 16 11 9 8 7 8 14 21 21 22 37 43 43 40 46 74 71 91 78 93 100 100 100 96 69 77
100 100 100 99 100 100 100 100 100 100 99 87 76 74 80 74 65 65 64 61 60 54 48 48 49 44 33 18 12 9 9 7 8 12 38 56 62 68 71 66 51 41 39 57 73 79 94 99 100 100 100 100 100 100
99 100 100 100 100 100 100 100 98 91 80 74 79 79 72 66 66 58 55 54 51 48 49 47 42 31 17 12 9 8 6 9 19 49 88 100 100 96 76 71 93 87 45 37 41 73 84 94 85 99 100 100 100 100
99 100 100 100 100 100 98 94 90 87 86 84 82 73 66 59 54 53 52 51 48 49 48 41 31 19 12 9 8 7 10 33 59 70 84 98 92 66 45 27 69 94 79 41 35 69 77 89 89 95 100 100 100 100
100 100 100 100 100 100 91 82 79 80 78 73 67 61 59 59 56 54 51 48 52 49 38 28 17 11 9 8 6 8 25 48 72 85 94 99 73 25 18 18 17 72 74 45 30 59 74 86 100 94 92 100 98 100
100 100 100 99 90 83 85 88 82 73 68 65 61 58 62 60 55 52 56 53 49 39 26 16 11 9 8 6 10 24 39 58 68 75 82 89 48 20 16 17 16 26 47 39 28 44 77 77 88 89 84 93 100 100
100 99 92 84 94 100 99 86 78 73 68 65 64 66 62 60 64 61 56 47 34 25 17 13 10 7 6 6 17 48 57 65 66 62 58 78 40 12 11 13 16 19 33 36 27 34 79 73 79 89 79 75 92 99
97 94 96 100 99 90 80 76 77 77 72 69 67 66 66 70 64 54 42 28 22 16 13 9 8 6 6 8 30 56 66 68 57 40 37 62 68 27 11 11 14 26 35 33 24 26 62 83 73 74 75 74 81 96
100 100 98 89 81 80 85 90 86 78 70 69 69 68 68 59 48 34 25 21 16 13 10 8 6 6 10 23 49 59 61 57 32 33 39 48 73 64 25 11 13 15 23 28 24 23 30 64 76 55 50 52 65 86
83 81 82 87 94 98 93 82 76 73 72 73 72 63 50 39 31 25 20 16 14 11 8 6 6 7 18 45 56 60 47 28 32 36 44 66 76 81 71 40 17 13 16 19 21 21 20 35 81 83 64 58 60 59

GFSWCAN_500_rhum_063.txt.gz
RH
21 68 99 99 95 77 86 99 98 97 97 96 97 95 85 75 65 61 48 45 28 21 14 9 6 5 4 3 3 5 14 25 38 36 40 44 43 47 57 58 64 67 79 78 72 66 61 71 76 81 76 75 72 62
41 97 98 98 99 99 86 98 98 98 96 97 97 96 91 70 66 63 57 45 30 25 18 10 7 5 5 4 4 4 8 19 24 31 40 49 60 56 66 72 69 72 79 78 67 53 50 48 49 60 74 81 82 77
90 99 100 100 98 100 97 98 99 98 97 97 97 96 87 74 66 63 64 50 27 30 16 10 9 6 5 5 4 3 5 9 22 32 30 42 63 81 71 62 73 68 71 67 64 53 47 43 37 32 39 47 53 66
99 100 98 98 100 90 97 98 97 98 97 97 97 96 84 80 68 66 63 44 28 25 14 11 10 7 6 5 4 4 3 4 9 29 46 46 37 50 85 92 78 75 78 79 74 66 62 57 48 37 34 32 31 32
98 99 98 99 99 99 81 95 98 98 98 97 96 96 94 92 76 66 63 48 29 19 17 12 12 9 7 6 6 4 4 3 5 12 27 52 64 65 58 82 94 100 100 100 100 96 89 85 72 60 49 40 33 44
100 94 98 99 99 99 76 98 98 98 98 96 96 96 96 96 92 66 62 55 39 16 13 12 11 9 8 7 7 5 5 4 4 5 11 30 52 64 77 87 87 90 96 97 98 99 100 100 100 98 92 83 81 80
100 97 99 99 98 100 94 98 98 98 98 97 97 96 96 95 89 63 60 51 31 22 15 13 12 11 10 9 8 6 6 5 6 5 6 8 24 45 60 62 75 76 79 84 85 86 89 88 97 96 99 98 90 71
99 100 99 96 97 99 99 99 98 98 98 96 96 96 96 96 83 65 58 47 33 20 16 14 13 13 11 10 9 9 7 6 7 6 6 7 10 18 42 46 59 58 60 65 74 74 80 80 78 82 85 87 88 84
97 99 99 100 94 96 97 99 97 99 98 97 92 96 96 95 89 70 59 42 27 18 18 18 15 14 14 14 12 12 10 9 6 8 7 8 7 6 6 8 17 26 40 44 38 32 39 45 44 39 42 49 59 70
100 100 99 99 100 90 96 97 98 98 98 96 97 96 95 94 95 87 49 47 28 19 20 21 19 21 21 20 22 22 17 13 11 9 11 13 12 8 8 6 6 7 7 7 8 10 10 12 14 12 11 13 20 28
99 98 99 98 99 96 95 99 98 97 97 96 96 97 96 97 97 77 62 52 26 22 23 24 24 25 25 27 30 32 34 32 31 29 29 29 34 31 24 19 12 10 10 11 12 10 11 11 9 9 10 9 8 9
98 99 99 98 98 97 97 99 99 98 98 98 98 97 99 96 99 94 89 44 32 25 23 25 26 29 27 28 30 32 37 42 47 50 55 64 60 58 50 40 32 28 24 22 20 20 20 21 20 20 19 19 21 18
96 98 99 98 98 97 99 98 98 96 98 97 91 92 92 81 95 93 75 62 35 22 22 25 27 28 29 32 39 41 47 50 58 62 70 68 69 71 75 69 64 52 41 37 35 33 31 32 35 36 33 37 38 39
100 99 100 100 99 98 99 99 98 98 96 96 97 95 96 83 96 98 98 74 30 20 22 26 28 29 30 37 39 42 42 53 64 70 62 51 50 56 64 72 76 74 64 55 51 42 35 31 30 35 37 41 51 60
100 99 100 99 98 98 99 99 99 97 98 97 96 93 93 99 99 100 92 75 55 35 36 33 32 31 32 34 38 54 69 73 63 55 47 46 49 56 62 66 69 63 53 42 35 28 24 22 21 19 17 17 18 23
99 100 100 99 98 99 100 98 98 100 98 98 96 97 98 98 100 100 100 99 90 79 73 69 62 56 60 72 78 80 66 54 50 48 47 47 49 54 56 53 47 39 33 26 21 16 14 10 8 8 9 11 15 19
98 95 96 97 100 97 97 99 98 98 96 99 100 99 97 97 96 99 100 100 95 92 73 77 91 93 84 74 66 55 47 45 44 44 43 45 47 51 48 42 32 23 19 14 11 9 8 8 9 10 17 22 42 83
97 95 99 97 95 97 100 98 99 93 95 100 98 98 98 98 99 100 100 100 99 91 89 94 93 79 66 58 52 44 38 40 38 37 43 45 48 44 34 24 16 12 10 8 8 9 11 14 27 52 69 68 100 100
97 98 99 100 100 100 100 98 99 95 97 99 98 97 98 100 99 100 100 100 100 99 88 80 73 64 55 48 42 37 37 34 31 32 37 41 35 22 16 12 10 8 8 13 15 18 21 40 95 100 100 100 100 100
100 100 100 98 98 99 98 99 100 98 95 99 98 100 100 99 99 100 100 100 98 84 74 68 60 49 46 42 38 37 35 31 29 30 32 30 19 12 10 8 8 9 16 26 26 36 47 98 98 100 100 100 100 100
97 99 98 98 98 99 98 98 99 99 98 99 100 100 99 100 100 100 98 95 88 77 66 57 47 43 41 36 34 33 30 26 26 28 28 19 12 9 6 8 12 15 20 35 38 42 60 85 82 100 100 100 100 95
93 100 99 100 100 100 100 99 99 99 99 100 100 99 100 100 99 98 95 89 74 62 55 48 43 40 35 33 31 30 27 27 29 25 13 9 6 7 18 30 35 40 42 31 38 40 48 75 88 99 95 100 100 99
100 100 100 100 98 98 99 99 97 98 100 100 100 100 100 100 100 98 91 74 61 52 46 42 37 34 34 32 31 30 28 28 22 12 9 6 8 28 32 56 84 94 87 79 43 36 39 63 79 79 88 100 100 98
100 100 98 99 100 99 98 97 100 100 100 100 96 96 100 100 96 88 70 59 50 43 39 36 34 35 32 28 29 32 30 18 11 9 6 7 29 51 66 84 87 82 82 93 88 57 39 40 63 71 88 99 100 100
100 100 100 97 94 99 100 100 100 100 100 98 100 100 100 88 69 57 55 52 46 41 37 36 35 31 27 29 34 31 19 12 9 6 11 32 42 53 73 75 77 65 30 29 72 74 59 38 62 70 80 86 98 100
98 97 96 96 100 100 100 100 100 100 100 100 100 94 82 65 56 52 50 48 44 40 36 33 30 28 29 30 29 22 13 10 7 6 23 51 56 63 59 68 61 31 23 26 24 64 77 41 37 63 78 86 97 100
99 100 100 100 100 100 100 100 100 100 100 93 80 69 66 60 55 51 47 44 40 37 34 30 27 27 28 27 19 12 10 8 6 10 36 55 62 57 43 48 64 17 13 18 18 26 58 66 35 47 63 76 85 99
100 100 100 100 100 100 100 100 100 92 82 78 72 67 62 56 48 45 42 39 37 32 28 28 28 28 26 19 14 12 9 6 6 28 59 66 59 41 36 47 67 25 10 12 15 18 38 60 39 50 67 64 77 96
100 100 100 100 100 96 95 91 94 90 82 72 65 58 51 46 46 44 41 39 35 34 32 30 29 26 20 16 12 8 7 5 12 45 63 57 36 34 40 70 73 30 10 10 13 19 31 39 38 62 79 76 84 90
100 100 100 99 99 99 100 98 91 74 66 63 61 55 53 53 49 44 42 40 37 33 31 28 25 21 15 11 8 7 6 11 34 51 46 32 35 50 70 80 73 40 11 11 18 29 32 31 39 63 86 85 84 86
100 100 100 99 100 98 91 80 71 68 70 71 66 61 59 55 48 46 43 39 34 31 28 24 19 14 10 8 7 6 12 34 56 42 34 53 56 59 61 64 66 61 23 12 16 22 26 28 47 65 70 74 74 76
100 98 99 100 95 89 82 78 82 82 80 72 62 59 52 51 52 46 41 37 33 29 23 19 13 9 8 6 5 10 32 54 39 33 59 55 58 74 76 88 94 86 73 23 14 17 22 26 38 65 69 68 71 68
99 96 90 85 84 92 96 89 84 76 67 61 62 60 57 52 46 41 36 33 28 23 18 13 10 7 5 5 13 38 56 39 31 49 64 79 92 98 97 100 100 100 97 84 26 16 20 22 23 29 58 67 63 63

GFSWCAN_500_rhum_066.txt.gz
RH
14 85 100 100 99 100 97 85 94 97 98 98 98 98 97 96 76 53 47 46 44 18 22 10 8 6 5 4 4 3 3 4 6 12 19 21 30 37 34 33 35 36 39 48 57 57 64 66 66 78 67 68 70 66
37 98 100 100 98 99 100 98 99 98 93 98 97 98 96 93 78 64 69 50 45 30 27 12 9 8 6 5 4 4 3 3 4 8 16 23 29 40 46 47 47 40 51 58 61 62 65 65 61 52 46 50 52 62
38 99 100 100 100 100 99 100 98 98 96 98 97 97 97 81 74 67 62 61 45 34 34 14 10 11 7 7 5 5 4 4 4 4 8 17 22 30 32 54 61 53 62 64 70 59 74 71 59 49 46 42 36 32
37 90 99 96 100 99 99 96 98 98 96 97 98 97 97 87 77 68 64 65 52 31 32 18 10 12 9 7 7 6 5 4 5 4 4 5 14 29 36 35 49 77 90 81 86 81 85 85 75 68 64 57 54 48
31 87 95 96 97 99 99 98 97 96 96 98 98 95 97 91 82 69 67 62 44 33 29 18 12 14 10 9 8 7 6 6 6 5 4 5 5 12 31 42 56 65 54 77 81 93 98 96 94 95 96 96 90 80
50 80 96 96 98 99 100 100 93 97 98 97 97 97 97 95 82 70 68 61 52 46 30 20 16 13 11 10 9 9 7 8 7 6 6 6 4 6 7 15 27 54 70 78 84 90 98 100 100 96 91 90 91 96
37 88 92 98 100 100 99 99 99 96 95 96 98 97 97 97 95 83 65 50 50 42 26 25 16 14 13 12 11 10 9 9 9 8 9 9 6 6 5 6 8 15 29 47 65 76 78 84 88 85 84 89 94 96
60 94 93 97 98 99 100 99 99 94 96 97 98 97 97 97 96 96 63 53 47 34 32 23 17 16 15 14 14 13 13 12 11 11 11 11 10 9 7 7 6 6 8 12 15 24 44 50 45 36 29 27 38 48
89 93 99 98 99 100 99 99 98 97 96 98 98 97 96 95 96 93 63 55 49 40 31 24 18 17 17 17 18 19 20 20 22 22 22 22 28 27 24 13 10 8 7 6 7 8 9 10 10 10 10 10 9 12
73 95 97 97 97 94 98 99 97 96 98 98 97 95 95 95 97 92 71 55 53 34 32 26 24 21 24 22 24 25 26 29 32 38 40 44 48 54 57 58 57 54 42 21 13 11 11 11 10 11 12 14 15 15
88 99 98 99 92 99 98 98 98 96 97 97 97 96 97 98 97 94 78 66 52 46 35 25 24 24 26 27 29 31 32 39 43 46 50 54 58 61 60 63 60 59 66 66 63 53 36 23 21 21 22 24 22 20
96 97 92 100 99 99 99 96 93 99 98 98 100 98 98 98 98 95 89 70 66 50 36 30 26 25 28 30 32 34 39 43 43 47 52 56 62 56 52 46 46 49 61 71 76 75 72 72 72 59 48 39 51 46
96 99 100 100 97 99 99 100 99 97 98 98 95 94 93 83 84 89 90 89 76 41 36 34 29 27 28 30 34 34 39 41 50 57 58 55 47 44 44 44 44 48 56 66 71 73 76 72 71 69 64 61 54 46
100 100 99 100 99 99 98 97 98 96 97 99 98 88 84 75 84 98 98 94 60 48 46 40 33 34 31 34 35 41 46 58 66 57 48 42 38 37 37 37 40 47 55 56 54 52 48 43 39 37 34 29 23 18
100 100 100 100 99 98 98 96 98 98 99 96 91 88 81 81 97 96 97 96 83 78 65 53 51 51 44 49 54 67 70 67 55 47 41 35 31 30 29 30 35 45 46 41 34 28 22 18 15 12 10 8 8 7
100 100 100 99 98 98 98 98 98 99 97 95 91 83 92 97 96 95 97 99 95 90 82 78 88 83 76 85 88 74 62 56 48 41 34 30 26 25 24 27 34 36 30 23 16 12 9 7 8 9 11 12 14 16
97 98 97 98 99 100 99 98 98 98 95 94 94 96 97 96 96 95 98 98 94 87 92 97 99 100 98 94 82 64 54 47 39 35 30 26 24 22 23 29 31 26 18 12 7 8 10 12 15 17 20 32 80 86
100 100 96 97 97 96 99 94 94 98 97 99 97 97 93 95 96 98 98 97 96 97 99 100 100 100 95 81 65 54 44 36 34 32 27 24 21 22 26 27 22 14 9 7 12 13 20 22 24 28 51 95 100 100
99 97 97 98 98 100 89 86 98 100 99 98 96 96 95 96 96 98 97 94 99 99 100 100 100 95 77 64 54 44 37 34 32 26 24 21 20 24 24 17 12 7 8 18 17 12 32 42 34 30 75 98 82 100
100 100 100 100 99 100 98 94 100 100 97 98 97 95 96 97 100 98 97 100 100 100 100 100 92 77 64 55 46 39 36 32 23 21 20 19 22 23 17 12 8 7 20 31 32 18 19 47 43 34 47 93 69 99
100 98 98 99 97 94 91 98 98 94 97 98 98 96 98 99 99 96 100 100 99 97 93 85 72 59 52 47 42 38 29 21 19 18 17 18 20 18 13 9 6 17 44 56 48 33 19 36 55 42 35 70 75 80
88 93 98 98 100 100 100 100 98 98 98 99 98 100 100 99 99 100 100 97 94 89 85 70 58 50 44 36 28 22 20 20 20 18 18 17 18 14 11 7 8 24 54 60 64 57 17 21 47 68 37 49 75 73
92 99 100 100 100 99 100 99 99 98 98 98 100 100 99 98 100 100 98 92 87 85 78 64 52 39 32 25 24 22 21 18 16 17 16 16 16 11 8 7 17 46 56 49 47 60 29 17 24 57 49 36 58 72
100 100 100 99 97 97 97 96 98 94 99 100 100 100 96 95 98 96 88 86 82 74 59 48 40 34 29 27 24 22 19 18 18 21 18 16 11 9 6 13 48 65 62 43 41 58 45 15 17 38 51 35 55 68
100 100 98 95 95 100 99 96 99 100 100 100 97 96 100 98 94 89 88 78 64 52 46 42 36 32 29 26 25 22 19 17 16 17 16 11 10 6 7 35 65 63 43 36 53 70 50 15 16 20 51 39 56 71
97 94 91 94 100 98 98 100 100 100 100 96 95 99 99 92 84 82 75 62 53 47 41 36 33 30 27 23 23 21 16 16 16 13 10 9 6 6 18 46 45 35 41 66 77 72 34 12 14 18 51 41 57 66
93 92 89 87 98 100 100 100 100 99 100 99 100 96 86 82 83 68 58 52 48 42 36 32 29 27 25 24 20 16 17 17 12 9 8 6 6 24 45 38 42 52 52 58 57 49 14 11 14 18 47 43 42 62
94 100 100 100 100 100 100 100 100 100 100 98 90 85 84 74 59 55 53 49 41 34 31 28 27 26 23 19 18 19 18 13 10 8 6 6 26 42 39 48 50 62 76 80 74 56 16 12 15 25 60 48 40 56
100 100 100 100 100 100 100 98 99 98 96 92 87 81 65 58 57 54 47 39 34 31 31 29 28 24 21 21 21 19 15 14 11 6 5 25 43 38 56 54 56 88 95 100 97 70 22 16 33 54 57 41 45 64
100 100 100 100 100 100 100 99 98 92 88 86 76 67 62 60 54 48 42 37 34 32 31 28 24 21 22 22 20 17 15 10 6 5 22 39 34 50 64 82 96 100 100 100 98 78 22 17 30 37 40 52 74 77
100 100 100 100 99 94 92 91 92 92 85 78 78 74 62 52 48 44 41 38 36 34 28 25 23 23 24 20 18 13 9 6 6 26 39 32 40 60 79 88 94 92 90 97 98 85 20 16 22 35 50 73 94 95
100 100 99 94 91 93 95 95 94 92 94 89 71 57 51 52 52 45 42 40 36 31 27 26 25 25 21 17 13 9 6 6 30 41 32 40 59 74 79 83 61 46 61 78 89 89 25 17 21 41 63 68 80 89
96 97 99 99 98 98 99 96 99 93 80 66 57 54 55 54 52 49 43 38 33 30 28 27 25 21 17 13 9 5 6 26 42 31 40 64 77 69 74 65 66 63 58 70 77 90 68 20 20 24 27 39 62 66

GFSWCAN_500_rhum_069.txt.gz
RH
6 7 46 90 96 100 98 99 98 100 92 96 98 98 99 99 96 96 91 46 40 20 15 11 10 6 6 6 4 4 4 4 4 5 6 8 10 12 16 23 28 32 34 34 39 40 48 56 53 52 45 46 47 46
4 10 63 99 100 95 99 96 100 100 98 97 97 97 98 99 97 96 79 84 48 28 18 15 11 8 7 7 6 5 5 5 4 4 5 5 6 10 11 14 18 36 40 42 40 45 65 86 84 92 90 86 79 72
4 18 94 100 98 97 96 98 100 98 98 98 98 97 97 98 96 89 82 49 48 37 25 22 11 12 9 8 7 7 6 5 6 5 5 5 6 6 8 11 14 19 29 40 42 44 53 63 74 79 75 70 63 56
7 52 96 100 96 97 99 98 99 98 99 98 98 97 98 98 98 90 91 91 65 39 30 25 13 13 12 11 9 8 7 7 6 6 6 5 6 7 6 6 9 14 20 31 37 50 62 71 77 82 78 82 84 85
6 52 99 99 99 99 99 98 99 99 98 98 97 97 97 97 97 90 77 82 61 39 34 23 16 16 12 12 12 10 9 8 8 8 8 7 8 8 8 6 5 7 9 18 37 48 54 61 69 75 84 94 95 100
5 26 99 98 95 100 97 99 100 98 98 98 97 97 97 98 96 83 73 78 57 36 31 27 23 17 14 14 14 12 12 11 11 11 9 10 11 10 10 7 7 6 7 8 11 15 39 53 59 67 73 73 76 78
3 39 94 86 94 100 95 99 99 99 99 97 98 98 97 97 96 84 82 73 62 44 35 31 23 19 16 16 16 15 14 14 14 13 11 13 14 15 15 10 13 11 8 7 8 8 9 10 11 12 14 17 18 17
4 41 86 93 95 100 99 97 97 98 99 98 100 98 97 97 92 86 81 58 50 37 33 29 24 26 23 20 18 18 17 18 19 20 20 23 24 28 31 33 34 27 23 20 17 16 12 10 9 9 8 9 11 12
4 22 62 82 99 100 100 98 98 97 99 96 99 97 97 96 88 81 83 73 48 29 35 39 28 23 26 24 21 22 23 24 27 28 30 34 36 39 44 47 53 54 55 56 55 57 58 56 51 43 36 30 24 21
3 8 65 97 99 100 97 99 97 97 98 95 96 98 98 97 97 96 94 63 48 43 39 35 32 28 33 26 26 28 29 30 34 35 36 39 42 48 45 44 47 48 48 49 52 59 62 67 65 63 66 68 68 65
3 8 53 94 99 100 100 97 90 98 96 93 97 100 100 98 97 97 86 55 54 49 50 43 32 26 29 28 29 33 35 37 38 38 40 45 50 45 41 40 39 38 40 43 45 50 55 61 63 67 70 72 68 67
3 24 84 96 100 100 100 84 88 100 98 97 99 99 97 97 95 93 89 85 74 54 48 40 30 30 30 30 32 34 37 41 42 46 46 48 45 42 39 34 30 29 33 36 38 47 50 52 50 46 42 36 35 37
11 52 85 97 100 100 98 89 100 98 98 97 98 96 95 90 85 87 86 90 82 67 52 44 39 40 38 36 38 36 38 47 54 50 52 48 43 39 32 27 25 25 26 29 34 35 33 27 20 14 10 9 9 9
16 53 95 99 100 100 100 100 100 97 96 97 100 91 81 84 90 98 98 96 78 67 57 46 47 48 45 45 44 52 61 64 58 56 49 44 40 33 28 25 23 23 24 28 31 26 17 10 7 8 11 12 12 13
28 72 98 100 100 100 96 100 98 98 97 92 98 94 81 96 95 95 98 96 94 93 72 59 59 67 60 69 76 79 75 67 63 56 48 39 34 30 27 22 20 21 23 27 21 14 9 7 12 18 12 10 17 18
55 98 100 100 100 100 100 99 97 95 96 100 89 88 96 94 85 94 98 96 89 86 83 79 85 85 84 91 100 96 78 70 64 54 44 37 33 29 23 19 19 21 24 23 15 10 7 14 28 28 16 13 27 25
91 98 100 100 100 100 100 99 99 97 97 97 94 97 98 90 92 98 91 87 83 83 85 90 95 100 100 99 87 80 76 69 60 51 40 37 32 23 19 18 18 20 23 17 12 7 9 31 50 51 30 18 38 32
97 99 100 99 97 96 96 96 98 94 96 96 98 99 97 94 97 96 96 91 86 95 100 100 100 100 98 88 76 72 72 66 55 44 40 31 22 18 16 14 18 21 18 13 9 7 13 52 57 58 59 22 40 36
98 99 100 91 81 93 96 96 99 94 97 100 99 98 96 97 96 95 97 97 100 100 99 97 93 89 83 78 70 67 60 50 44 38 25 20 18 15 14 16 19 18 15 10 7 10 37 60 55 50 58 46 19 44
100 100 100 97 100 100 100 98 90 92 97 99 99 98 98 98 98 98 97 100 100 100 97 92 84 79 74 68 61 51 47 41 30 24 20 18 14 14 16 17 16 15 10 7 8 22 57 65 64 46 51 55 18 34
100 100 100 100 98 98 99 97 94 100 100 98 99 99 98 98 98 98 100 100 98 95 86 79 78 74 68 61 59 53 42 31 26 20 15 15 16 15 16 16 14 10 7 6 9 32 61 61 42 40 56 59 21 32
94 94 100 100 100 98 100 96 99 99 98 97 97 99 99 99 99 98 100 95 90 82 75 75 72 66 63 63 57 45 35 28 20 16 15 13 12 14 16 14 10 9 6 8 30 52 46 38 46 66 78 51 18 31
92 100 100 100 100 100 100 99 98 99 95 96 98 97 99 99 98 99 93 85 78 77 74 71 63 61 59 50 43 37 27 20 18 15 14 13 15 17 15 12 11 6 8 42 47 40 45 50 55 60 57 27 17 26
100 100 100 100 100 95 96 93 94 97 98 97 99 100 99 100 99 98 89 81 80 76 70 62 60 53 45 40 32 23 19 18 18 17 13 12 15 16 14 12 6 8 34 40 42 52 63 73 76 75 64 17 16 22
100 100 97 97 94 97 96 99 92 91 97 100 100 100 100 100 100 95 84 81 76 68 65 62 52 44 38 29 22 20 20 18 16 13 13 12 14 15 12 6 9 34 39 44 48 55 75 87 100 91 75 18 16 26
99 100 89 90 92 98 98 98 98 99 100 100 97 98 93 95 95 86 85 78 71 68 62 51 44 36 27 25 24 22 19 16 12 11 12 12 11 9 6 8 29 34 42 50 71 93 100 100 100 86 61 14 15 34
98 95 84 82 88 98 100 100 100 100 98 91 100 94 93 93 84 85 78 72 68 60 50 44 36 29 26 23 21 18 16 12 11 11 11 9 8 6 8 26 29 36 53 72 83 87 98 100 89 81 24 14 21 38
88 100 100 100 100 100 100 100 100 93 89 92 98 100 93 82 82 77 72 66 56 49 42 36 31 27 25 22 20 16 14 13 12 11 10 8 6 9 30 29 34 52 54 53 41 28 52 83 86 33 23 24 42 43
91 100 100 100 100 100 100 100 100 95 96 99 100 89 80 77 76 72 65 54 45 40 37 33 29 27 25 22 17 14 13 12 12 10 9 6 10 30 30 38 54 51 53 47 32 34 48 80 40 17 31 54 69 44
100 100 100 100 100 100 100 97 91 92 97 96 84 80 79 76 74 65 54 45 41 38 36 32 29 28 24 20 19 16 15 14 12 10 7 7 24 30 38 53 47 54 53 48 38 41 55 72 15 14 20 36 43 41
100 100 100 100 100 99 94 92 93 94 86 78 77 74 78 77 70 57 48 45 43 40 34 31 29 25 22 21 18 18 16 13 10 8 6 18 28 31 51 40 49 52 49 38 34 43 59 67 17 22 31 48 59 71
100 100 100 100 99 97 96 92 83 79 79 77 77 81 83 77 65 52 48 45 41 33 31 29 26 24 23 21 20 18 15 12 10 7 15 30 29 48 48 45 52 58 57 51 43 41 57 73 33 30 49 55 72 85
100 100 100 99 93 83 80 75 76 74 73 77 82 84 81 70 62 54 47 42 35 33 30 28 27 25 23 22 20 18 14 12 8 12 31 29 47 59 37 48 54 63 68 67 70 56 50 65 80 44 22 26 40 60

GFSWCAN_500_rhum_072.txt.gz
RH
30 25 51 77 91 96 99 100 100 99 100 99 98 98 96 98 100 98 88 50 24 12 10 7 6 6 6 5 5 5 5 5 5 5 5 6 7 8 9 10 11 15 18 21 22 22 25 26 27 31 37 37 37 42
29 18 52 92 84 88 91 98 97 95 100 99 99 93 89 98 99 97 79 44 25 14 13 9 8 7 6 6 6 5 5 5 6 5 5 5 6 6 6 7 8 10 11 12 16 19 27 32 35 38 40 43 48 60
26 12 73 95 92 100 98 99 96 98 100 99 98 89 91 98 98 96 82 40 31 19 15 15 9 10 8 8 8 6 6 6 6 6 6 6 7 6 6 6 6 7 8 10 12 24 27 34 37 43 49 54 62 70
29 12 71 94 84 94 96 98 96 99 99 99 98 97 97 96 100 97 89 40 41 24 17 20 12 12 11 11 10 9 9 8 7 7 8 7 8 8 8 8 8 7 9 10 10 12 11 20 26 34 51 57 64 68
30 24 69 87 81 70 87 99 93 98 98 98 98 99 97 97 96 96 95 87 40 34 26 25 15 13 15 14 13 13 13 11 10 11 10 10 10 10 11 11 11 11 10 12 13 13 13 10 9 8 9 20 44 63
29 16 54 82 93 84 90 99 100 100 98 96 95 97 97 94 99 94 96 60 42 36 30 28 19 17 17 16 16 17 17 16 13 15 14 13 14 15 16 18 16 16 20 16 14 11 9 8 8 9 9 9 9 10
35 12 45 80 75 95 99 98 95 97 97 99 99 98 96 97 98 92 95 97 95 56 30 28 25 22 21 20 19 20 21 18 19 20 19 21 22 24 25 28 30 32 34 35 33 32 34 38 41 43 44 43 42 38
37 9 33 85 98 100 98 94 93 92 99 96 98 96 97 100 96 92 93 85 60 46 50 27 30 31 28 21 21 23 24 25 26 26 26 27 31 32 33 35 36 34 34 35 36 40 46 51 49 49 47 48 55 57
38 12 27 92 98 97 96 88 89 97 95 99 98 95 92 100 98 92 86 93 93 78 46 31 32 31 31 26 25 26 28 31 32 32 33 35 38 39 38 39 36 36 34 31 30 37 44 46 45 46 49 52 56 58
47 18 32 92 100 98 93 96 95 100 95 95 98 95 92 96 93 82 82 68 64 49 36 37 37 30 35 30 29 32 32 36 38 40 40 42 44 44 44 41 40 35 27 24 25 30 35 37 34 38 37 40 40 38
49 15 24 77 98 98 94 90 96 94 92 96 97 95 98 99 100 98 96 83 61 49 38 38 42 39 36 34 32 35 37 40 43 45 46 48 50 48 43 40 38 31 26 25 25 28 30 30 30 27 21 14 10 8
53 11 11 73 99 99 88 85 100 100 100 100 99 97 98 98 96 87 75 77 82 45 49 45 47 45 38 38 37 39 39 47 50 54 53 53 52 47 43 39 33 30 28 24 24 26 28 27 23 17 11 7 6 7
53 7 5 65 91 96 87 100 100 99 98 97 97 96 98 96 93 96 96 88 54 51 53 53 42 42 42 43 44 43 52 60 62 60 57 59 56 50 45 38 34 32 26 22 22 23 23 22 17 11 7 6 10 32
46 8 7 42 84 100 100 100 100 98 92 97 100 100 92 87 93 100 98 94 93 88 60 55 56 55 52 52 52 59 62 69 65 62 59 60 56 54 48 39 37 26 20 20 19 22 22 19 12 7 7 10 40 52
47 11 30 40 80 96 100 100 100 99 98 100 100 98 89 98 98 96 94 93 86 81 66 58 64 67 63 67 68 74 73 74 64 62 61 60 61 56 42 38 25 19 17 16 18 21 19 12 8 6 10 38 57 51
25 33 62 31 74 97 98 99 98 99 96 97 98 91 100 98 95 92 84 88 93 94 90 86 76 70 75 81 81 80 78 71 61 57 58 60 50 43 34 23 18 16 16 18 20 18 13 10 7 7 25 58 64 58
9 51 49 38 84 96 97 100 100 100 98 95 98 100 100 97 96 94 97 98 96 95 89 80 81 82 75 71 76 76 71 65 60 57 53 44 41 31 24 19 16 15 18 19 18 15 12 9 6 13 36 70 72 54
39 100 100 100 100 96 100 100 100 92 90 100 100 100 100 97 96 95 94 96 93 88 88 89 87 74 71 76 75 67 65 59 54 48 47 42 33 28 20 15 13 14 16 18 17 15 10 6 11 32 60 63 49 46
100 100 100 100 92 93 99 96 89 88 98 99 100 100 100 100 88 88 90 86 82 89 92 87 73 74 76 74 65 60 55 51 50 52 44 36 30 21 14 13 13 14 16 16 15 10 6 13 38 48 43 45 56 71
100 100 100 100 100 100 99 89 85 96 98 99 99 100 100 100 90 92 95 96 100 95 88 80 78 74 73 65 59 54 52 52 49 43 38 30 18 14 13 13 12 13 14 13 8 6 13 34 42 44 55 64 70 70
100 100 100 100 100 98 91 88 90 100 100 98 98 99 98 97 97 96 98 98 100 93 81 75 71 70 66 60 54 53 52 40 37 34 28 18 16 15 13 11 12 13 10 8 5 12 29 40 40 46 58 68 82 96
100 100 100 100 100 98 98 99 100 100 99 98 99 98 100 96 95 99 94 93 88 77 68 70 68 66 62 57 54 50 38 34 30 21 15 14 13 12 11 11 11 9 8 5 12 26 34 37 49 67 81 92 95 100
100 100 100 100 100 100 100 100 100 100 96 97 100 98 96 96 98 98 91 87 77 73 69 65 65 64 55 50 46 38 36 28 18 16 14 14 13 11 11 11 9 9 6 14 26 30 40 56 66 68 81 100 100 100
100 100 100 100 100 98 99 97 96 98 98 96 90 96 97 98 99 98 92 79 76 75 69 66 61 53 49 45 39 36 26 19 17 15 14 13 12 12 12 11 10 6 10 23 28 39 39 43 44 33 35 82 98 95
100 100 100 96 96 99 98 96 94 95 93 97 100 99 98 100 100 90 82 80 79 75 68 61 54 49 42 37 35 26 21 19 18 16 15 12 12 12 12 11 7 7 19 32 40 34 40 37 27 25 38 64 62 36
100 98 98 99 98 100 100 100 96 97 100 100 99 100 100 100 94 84 87 81 79 73 63 55 49 43 38 35 28 23 21 19 16 15 12 11 10 12 12 10 7 16 30 33 31 36 32 23 24 28 48 32 13 14
99 97 95 94 99 100 100 100 100 100 100 98 99 100 94 80 77 85 85 83 79 66 54 47 43 40 35 29 25 23 21 18 16 13 12 10 11 12 12 7 12 22 32 34 40 33 26 21 23 39 26 11 16 19
98 100 98 95 100 100 100 100 99 99 100 100 100 95 85 87 92 88 84 76 66 57 48 45 40 35 30 27 24 22 20 17 14 13 11 10 12 13 10 8 19 32 30 41 45 38 30 20 25 39 12 13 33 49
100 100 100 100 100 100 100 100 100 100 100 97 98 93 96 96 91 85 76 66 57 51 47 40 34 31 27 24 23 22 18 17 15 13 12 14 15 12 8 18 29 35 35 45 48 49 38 24 30 38 13 14 26 62
100 100 100 100 100 100 100 100 100 100 99 100 100 98 93 90 84 76 66 59 55 51 40 34 32 30 25 24 22 19 18 16 15 13 14 16 15 9 12 23 39 35 42 48 50 48 45 37 38 49 20 25 28 42
100 100 100 100 100 100 100 100 99 92 96 99 95 91 88 80 74 67 62 59 55 43 36 36 34 29 28 25 22 21 18 16 16 16 17 17 12 9 20 29 38 34 44 49 48 49 50 49 43 62 35 31 51 56
100 100 100 100 100 100 99 92 89 88 92 94 94 88 77 69 67 64 65 60 49 44 41 37 33 30 26 24 22 19 16 17 17 19 18 16 8 16 24 41 38 41 44 48 51 52 53 55 52 62 73 33 40 64
100 100 100 100 98 96 94 88 86 92 96 97 86 73 66 65 69 69 67 60 52 46 41 37 33 28 24 22 20 19 19 19 20 20 18 10 13 24 34 45 37 42 46 50 54 54 53 54 59 62 72 88 49 30

GFSWCAN_500_rhum_075.txt.gz
RH
7 10 28 62 82 90 86 99 98 99 99 99 98 98 98 97 99 98 90 35 12 8 5 5 5 5 4 5 5 5 6 5 5 5 5 5 6 7 7 9 8 9 10 13 12 14 22 18 19 23 25 26 29 30
7 8 30 58 79 94 99 98 96 98 97 98 96 92 93 97 98 96 96 31 12 9 6 5 5 6 5 5 6 6 6 6 5 6 5 5 5 5 5 5 6 6 6 7 8 10 11 10 14 16 17 22 27 30
9 7 29 44 76 88 96 96 95 98 98 97 98 98 96 92 96 94 96 30 13 10 8 6 6 6 6 7 6 6 6 6 7 7 7 6 7 7 7 7 7 7 7 9 9 12 9 10 10 10 12 13 16 22
6 9 24 46 56 76 90 94 98 98 93 94 96 98 95 95 95 96 78 31 16 12 9 8 8 8 8 9 9 9 9 10 8 9 8 9 8 9 9 10 10 10 11 10 13 13 14 15 15 14 13 12 11 10
7 10 14 32 38 68 71 86 90 93 96 90 96 98 96 97 98 97 59 34 20 15 13 12 10 10 11 13 12 13 14 13 12 13 13 13 15 14 14 14 16 18 18 20 21 21 22 20 19 18 17 16 15 14
6 11 9 42 40 61 69 85 86 88 90 98 100 98 97 97 100 98 43 43 29 20 16 16 15 14 15 16 15 17 19 17 15 19 20 20 20 21 22 21 24 25 26 25 23 21 21 21 22 23 26 30 33 35
6 17 18 38 53 64 63 79 76 86 84 97 98 99 96 97 96 97 95 53 43 26 20 18 18 16 18 19 18 19 21 19 20 26 25 26 26 29 30 31 32 32 30 27 26 23 20 19 20 23 26 30 34 34
6 18 21 23 58 79 67 68 83 88 85 87 83 84 92 98 92 96 100 75 31 25 22 16 19 23 23 23 22 22 23 24 29 30 32 32 34 35 37 38 38 36 34 33 30 25 23 24 24 26 28 29 28 26
6 15 26 19 62 77 63 63 76 91 93 98 86 88 92 100 93 98 91 94 80 73 77 34 21 26 28 26 25 26 28 31 33 36 38 38 40 41 42 42 40 39 37 35 30 28 28 25 26 27 27 26 25 24
7 15 27 22 62 89 84 67 67 85 95 93 90 93 91 95 86 94 91 91 95 62 35 76 36 29 31 29 28 30 32 34 36 40 41 43 48 45 45 45 44 42 40 36 34 34 28 24 24 25 24 21 20 17
7 19 30 25 34 57 77 72 65 75 94 92 95 100 100 90 84 95 85 78 79 58 65 86 73 31 34 28 32 34 36 40 41 45 47 52 51 49 51 49 49 50 44 38 38 28 21 21 24 24 23 20 15 10
9 20 34 33 16 39 77 89 79 79 93 95 100 99 99 94 84 90 80 81 84 90 81 36 34 39 35 41 36 39 40 45 48 53 56 57 53 52 54 53 53 48 40 36 25 20 19 20 20 20 18 13 14 12
12 19 41 37 11 55 93 95 92 89 95 96 97 95 98 95 80 76 73 75 88 82 30 32 33 44 44 43 42 45 47 48 56 59 62 62 55 53 52 55 46 39 33 25 20 18 20 18 19 18 16 14 9 8
22 41 44 38 17 91 100 100 96 94 98 95 94 95 96 92 76 88 92 98 74 42 44 41 50 48 46 46 49 56 54 56 58 64 62 56 51 53 52 43 39 33 27 21 16 17 16 15 15 16 9 6 7 8
40 54 46 40 19 91 100 100 100 97 96 97 96 90 94 99 96 95 98 81 92 94 54 43 54 53 52 59 62 63 59 61 62 60 60 57 54 51 43 41 35 29 22 15 13 13 12 11 10 8 6 7 12 30
57 60 48 43 17 75 100 100 100 99 98 96 88 79 97 98 99 99 100 99 89 82 83 81 66 61 62 67 66 64 64 64 60 57 55 53 49 44 42 35 27 20 14 13 12 11 11 10 8 6 7 18 33 43
65 72 58 48 13 44 100 100 100 99 93 84 83 86 96 98 97 98 100 99 89 93 89 80 79 76 75 66 61 64 68 60 55 52 51 47 45 40 34 25 17 14 13 12 11 10 10 9 6 8 17 31 38 44
80 86 72 40 68 95 100 100 100 91 78 86 95 99 100 100 99 100 98 96 95 94 94 86 88 83 73 65 67 72 64 55 51 50 48 46 37 30 25 17 14 13 12 11 10 10 11 7 7 16 25 31 38 45
100 80 59 52 100 100 100 100 98 83 82 100 99 99 98 100 100 99 100 98 98 92 90 88 83 78 69 69 68 66 57 51 49 48 42 35 30 24 18 15 13 11 10 9 10 12 8 7 14 21 30 40 53 69
94 78 38 97 100 100 100 100 94 86 100 99 99 99 99 100 100 100 99 98 94 88 86 86 82 79 78 75 68 59 52 50 49 42 34 31 25 19 15 13 11 10 8 10 11 10 7 11 23 32 37 42 44 51
92 60 58 100 100 100 100 100 99 92 100 100 100 100 100 99 100 100 98 94 89 85 86 91 90 83 80 75 63 54 51 49 42 36 33 26 20 17 14 12 10 8 8 8 10 7 8 23 28 30 36 37 32 29
88 39 90 100 100 100 100 100 100 100 100 100 100 100 100 100 100 98 95 91 90 92 100 100 90 82 76 64 56 54 48 43 38 33 27 21 18 15 12 10 10 9 9 10 9 7 18 25 28 30 25 23 23 29
59 56 100 100 99 100 99 100 100 100 100 100 100 100 99 100 100 88 83 88 95 100 100 89 84 80 67 59 56 50 46 39 33 28 22 18 14 12 11 10 8 8 8 10 8 12 24 29 32 26 22 16 18 29
53 96 100 100 100 100 100 100 100 100 100 100 98 100 100 100 100 91 89 94 100 100 88 87 87 77 65 58 51 48 39 33 28 22 18 15 13 12 12 10 9 9 11 9 8 22 27 34 31 27 20 12 15 13
78 100 100 96 96 96 100 100 100 100 99 100 100 99 96 97 95 95 98 100 100 87 88 91 85 74 63 53 49 40 34 29 22 18 16 14 14 14 11 10 9 10 11 8 17 28 34 38 33 28 17 13 13 8
100 100 97 85 92 95 100 100 100 100 100 100 100 100 99 99 99 96 100 98 89 88 90 86 79 68 57 50 41 34 29 24 20 17 15 14 14 12 11 10 10 12 9 10 26 28 36 39 34 28 14 16 12 10
99 87 73 86 91 98 100 100 100 100 100 99 98 100 99 96 92 100 100 88 84 89 92 87 76 62 52 42 35 31 25 21 19 16 15 14 13 12 10 9 10 10 9 20 29 32 41 40 35 26 17 21 13 14
84 68 77 94 98 100 100 100 100 100 100 99 100 98 98 95 100 100 100 89 88 92 89 77 64 54 44 38 33 28 24 21 18 16 15 15 13 11 9 8 11 9 10 27 30 38 44 44 36 25 20 28 15 18
65 73 98 100 100 100 100 100 100 100 99 99 99 99 100 100 100 100 99 94 93 87 76 65 56 48 41 35 29 27 24 20 18 18 16 14 12 10 8 11 12 9 19 29 31 41 46 47 36 29 24 38 22 20
83 98 99 100 100 100 100 100 100 100 100 100 100 100 100 100 100 100 98 93 87 78 67 58 52 46 37 33 30 27 25 22 20 18 16 13 10 9 11 14 10 12 29 32 36 45 48 46 38 35 29 44 40 35
100 100 100 100 100 100 100 100 100 100 100 100 100 100 100 100 100 100 97 90 79 67 60 58 52 42 36 32 31 28 26 23 21 17 13 11 9 9 16 12 11 20 33 35 44 49 45 41 35 38 38 37 60 40
99 98 99 100 100 100 100 100 100 100 100 98 99 97 100 100 100 97 88 78 67 63 61 58 49 40 37 35 32 29 27 24 19 14 11 9 9 14 14 11 13 32 36 40 50 51 37 32 33 34 40 42 50 70
100 100 100 100 100 100 100 100 100 100 100 100 100 100 100 99 94 84 78 70 65 62 63 56 47 42 38 35 33 29 25 20 16 13 10 10 13 16 12 14 21 38 38 45 52 49 31 32 33 34 39 50 46 56

GFSWCAN_500_rhum_078.txt.gz
RH
15 10 11 42 46 66 65 78 93 96 99 96 92 96 94 97 100 96 84 48 15 6 5 4 4 5 5 5 5 5 5 5 4 4 5 5 6 6 7 6 5 6 6 6 7 8 10 11 10 10 11 12 14 18
14 16 5 39 43 63 86 96 99 90 83 93 96 98 94 97 99 94 70 32 10 6 5 4 4 5 5 6 6 6 6 6 6 6 6 5 5 5 5 5 5 6 6 6 6 7 7 7 8 8 9 9 10 12
15 19 5 27 37 40 74 87 89 90 88 96 94 96 95 97 100 95 72 26 10 6 5 6 5 5 5 6 6 7 7 7 8 7 7 7 7 8 7 8 8 8 8 8 10 11 12 12 13 13 14 13 13 13
16 18 10 7 44 37 56 74 64 68 83 91 93 96 97 98 95 94 70 22 11 7 6 6 6 6 7 7 9 9 9 10 9 10 11 11 12 12 12 13 12 14 15 15 15 18 18 18 18 18 18 18 18 18
19 15 13 3 30 42 41 52 58 59 64 69 85 93 97 98 97 86 74 36 12 10 8 6 7 7 8 10 11 12 13 13 13 14 16 17 18 18 20 20 19 21 23 23 24 24 23 22 20 19 18 19 19 19
20 16 11 4 6 42 39 45 54 58 65 61 84 88 84 95 97 86 80 37 14 12 11 10 10 8 9 12 14 15 17 17 17 18 22 23 22 25 26 28 28 30 30 30 30 29 29 28 25 24 25 25 22 21
26 19 12 6 4 17 38 42 49 66 66 66 78 81 83 90 91 95 84 33 18 15 15 13 14 11 12 15 17 18 19 17 20 24 28 29 31 31 32 33 34 35 36 35 33 33 31 30 30 31 30 23 20 18
28 22 14 9 6 7 25 38 53 63 66 66 65 72 82 88 94 93 97 65 29 25 23 18 15 17 15 16 18 20 20 21 24 29 32 34 34 35 36 38 39 40 39 38 39 38 36 34 34 30 21 18 18 18
31 26 15 8 7 13 18 30 49 56 56 66 65 64 78 82 94 94 97 83 48 36 32 26 18 18 21 22 22 23 24 26 30 32 35 37 37 39 42 41 42 45 43 44 46 42 37 34 26 21 18 17 17 14
32 23 14 8 9 16 21 44 43 52 55 65 68 67 74 76 84 96 91 87 92 90 42 26 20 15 21 25 26 26 28 31 32 35 37 40 43 44 46 44 48 48 49 52 44 38 33 26 22 18 18 15 11 10
28 23 13 10 11 18 25 34 49 43 55 57 74 82 83 77 81 88 91 85 88 91 72 46 68 28 23 59 37 29 32 34 37 38 40 47 52 53 53 52 53 54 55 47 38 33 28 21 16 16 14 11 10 9
28 22 11 10 11 23 28 26 65 77 65 59 81 88 86 80 81 87 84 78 84 90 96 88 52 56 74 43 32 33 38 40 42 43 48 55 58 62 57 53 54 54 44 39 34 27 20 15 14 13 11 11 10 7
22 13 9 9 11 22 29 23 44 88 83 62 70 81 86 83 70 72 74 74 89 87 59 51 56 81 48 33 34 41 45 47 48 49 57 60 61 57 56 54 53 43 38 32 25 18 15 14 12 10 10 9 7 7
15 8 10 9 11 23 33 23 32 76 100 71 60 68 82 72 62 68 92 96 92 94 93 94 84 40 27 30 40 45 52 55 52 56 62 62 60 56 53 50 44 38 32 25 17 15 14 12 9 9 8 7 7 10
12 8 11 10 19 36 38 28 60 69 98 94 70 68 72 76 82 91 99 97 89 88 88 91 55 29 26 38 49 57 59 58 57 58 60 58 52 49 46 43 38 31 25 18 15 14 12 8 7 8 7 7 10 18
8 11 12 16 46 48 39 35 86 94 92 100 82 64 73 88 92 100 100 97 85 80 93 80 43 37 47 50 55 60 63 62 58 62 56 51 47 45 42 36 30 26 18 15 14 11 9 8 7 7 7 9 18 27
11 15 16 35 67 57 50 46 70 100 100 90 75 68 79 100 98 99 99 100 96 96 90 74 84 84 57 61 63 64 68 65 66 60 52 48 45 44 37 31 28 20 16 13 11 10 8 8 7 7 7 14 23 32
17 17 20 50 76 72 50 49 55 100 90 84 85 90 93 99 98 100 100 100 96 98 88 89 87 70 78 73 69 79 73 70 64 57 49 47 46 40 32 28 22 17 14 11 10 9 9 7 6 7 10 19 28 31
17 16 30 84 99 93 68 56 44 93 80 88 100 100 100 99 99 99 98 98 99 93 94 93 81 80 76 72 84 83 75 72 66 54 48 48 42 35 30 24 19 15 12 11 10 9 8 7 7 7 14 25 28 28
15 14 41 97 99 91 79 55 38 91 90 100 100 100 99 100 100 98 97 99 99 97 98 90 79 82 88 93 92 83 80 73 60 50 50 46 37 31 26 20 15 13 11 10 10 9 7 7 7 13 22 31 31 28
16 15 50 96 97 88 70 34 54 98 91 100 100 100 100 100 99 98 99 98 100 99 97 93 89 97 99 98 92 89 80 68 55 52 47 40 33 28 22 17 13 11 10 10 9 8 6 7 8 17 24 33 30 24
28 20 61 100 94 88 68 51 82 98 99 100 100 100 100 100 100 99 98 97 100 100 99 93 100 100 100 100 97 88 78 62 54 50 44 35 30 25 18 14 13 12 11 10 9 7 7 7 12 20 29 32 27 18
70 65 94 100 100 96 78 61 74 96 100 100 100 100 100 100 100 99 95 97 99 100 99 100 100 100 100 100 95 86 70 60 53 49 40 33 27 20 16 14 12 12 11 10 8 7 8 8 16 25 33 30 22 12
98 100 100 100 100 98 75 54 66 98 100 100 100 100 100 100 100 97 96 100 100 100 100 100 100 100 100 97 92 80 68 57 52 45 36 29 23 17 15 13 13 12 11 9 7 7 7 11 22 33 37 28 19 9
100 100 100 100 96 88 60 62 68 94 97 99 100 100 100 100 98 97 98 100 100 100 99 100 100 100 100 96 87 76 64 56 50 40 32 26 20 17 15 14 14 12 11 8 8 8 9 22 29 38 38 28 18 11
100 98 99 97 92 76 52 73 81 91 99 100 100 100 100 100 100 91 99 100 100 100 100 100 100 100 100 92 82 71 63 55 44 36 29 24 19 17 17 16 14 13 9 8 9 9 18 28 36 41 35 27 22 15
100 97 90 91 82 59 63 80 86 98 100 99 100 100 100 98 92 87 100 100 100 100 100 100 100 100 96 89 78 67 58 48 40 33 26 22 20 19 18 16 15 11 8 9 10 12 27 32 42 39 29 26 26 20
100 87 89 86 75 73 93 92 92 100 99 99 100 99 96 90 93 99 100 100 100 100 100 100 100 100 94 82 70 61 53 44 36 30 25 22 21 20 18 17 14 10 9 10 10 21 29 37 42 32 28 26 28 27
93 97 96 81 90 100 97 84 92 97 99 100 100 100 100 100 100 100 100 100 100 100 100 100 100 99 87 74 65 57 48 39 34 29 25 24 23 20 19 16 12 10 10 11 12 28 32 42 41 30 29 29 29 33
100 100 91 99 100 100 87 77 96 100 100 100 100 100 100 100 100 100 100 100 100 100 100 100 99 87 76 68 61 53 44 38 32 29 26 24 22 21 18 14 12 11 12 13 18 34 37 46 40 31 34 35 32 37
98 88 96 100 98 85 91 98 100 100 100 100 100 100 100 100 100 100 100 100 100 100 100 97 86 78 71 64 60 50 41 36 32 28 26 25 23 19 15 13 13 15 15 14 29 39 43 50 38 32 36 38 38 39
88 90 100 95 90 97 96 100 100 100 100 98 99 100 100 100 100 100 100 100 100 100 97 89 81 73 69 65 58 48 40 35 30 28 28 25 20 16 14 14 16 18 15 18 41 42 48 56 45 33 34 37 42 44
91 99 100 100 100 99 100 100 100 100 99 100 100 100 100 100 100 100 100 100 100 98 91 84 79 73 68 63 55 44 37 33 30 29 26 22 16 14 15 16 19 19 16 30 44 46 53 61 56 35 34 38 46 48

GFSWCAN_500_rhum_081.txt.gz
RH
19 20 14 4 24 42 41 46 57 64 79 77 75 78 83 86 95 84 66 17 7 5 5 5 5 4 4 4 5 5 7 6 6 6 6 5 6 6 6 5 5 6 6 5 6 6 6 8 7 7 8 7 7 8
22 15 17 4 11 32 41 35 40 50 52 57 62 77 76 77 90 92 70 18 6 5 5 5 5 6 6 6 7 6 6 6 6 6 6 6 6 6 6 5 6 7 7 7 8 9 10 10 11 12 13 13 13 13
23 19 14 12 4 24 32 32 31 35 37 48 47 64 70 72 82 91 69 18 7 5 4 4 5 6 6 6 7 7 8 8 8 10 9 8 9 9 9 9 10 10 11 12 13 12 15 18 18 19 19 18 18 17
24 21 18 15 7 3 24 37 31 32 40 37 38 52 65 72 76 83 65 21 8 5 5 5 5 5 6 7 8 9 9 10 10 12 14 14 16 16 18 18 20 19 20 20 22 22 23 24 24 24 24 23 23 24
26 24 25 17 12 5 4 32 33 34 45 37 38 44 61 68 66 74 69 35 12 6 6 6 6 7 7 8 9 10 11 14 14 16 18 20 23 24 24 26 26 27 28 29 29 30 30 30 29 29 28 29 29 32
27 27 31 24 16 9 3 7 31 34 36 41 38 46 58 62 69 68 66 58 20 9 8 6 6 7 8 10 12 12 14 16 16 19 22 26 29 29 29 30 31 32 32 33 34 35 35 35 34 33 34 33 33 24
34 36 34 30 21 16 9 2 19 34 35 39 37 38 49 60 66 69 68 66 48 13 10 9 8 11 12 12 13 16 16 18 18 21 25 30 31 31 32 32 33 35 36 38 39 39 40 40 39 34 34 28 22 15
38 43 37 26 23 18 11 6 3 30 44 38 38 39 46 60 68 73 70 75 64 27 14 12 11 15 17 15 15 17 18 19 21 23 28 31 31 32 33 35 37 38 40 42 42 43 44 42 37 32 28 20 14 13
40 42 44 36 33 23 18 6 4 12 30 52 44 40 46 56 64 76 76 79 76 50 26 17 16 15 18 20 21 20 20 23 26 27 31 32 34 36 39 42 43 44 45 45 46 45 42 37 34 28 18 14 12 10
44 43 41 38 40 23 22 8 5 11 20 41 59 54 46 50 55 69 81 84 83 75 44 28 21 22 20 21 23 28 26 25 28 32 32 35 37 41 47 50 51 47 47 46 45 42 38 34 27 17 14 12 9 8
46 46 42 46 35 23 22 7 5 13 20 28 66 62 56 46 53 61 71 82 82 83 77 56 32 26 23 23 21 26 31 29 30 34 39 40 43 46 50 50 48 46 46 43 39 36 33 26 17 15 12 9 8 7
54 44 47 52 25 20 18 6 6 13 24 26 58 85 65 54 50 53 58 68 76 78 88 96 93 75 32 29 29 37 64 35 36 43 44 46 49 54 55 49 47 47 45 39 34 31 26 18 15 13 10 9 8 6
62 49 33 34 22 20 10 6 7 15 20 27 43 84 78 63 48 44 53 67 90 97 94 95 90 75 67 72 53 72 44 31 44 48 48 51 54 59 53 46 44 43 40 34 30 27 20 16 12 11 10 9 7 6
65 52 31 24 24 21 8 7 8 14 26 25 38 64 86 60 49 52 72 85 96 96 91 96 100 98 78 43 62 56 34 38 49 54 56 56 60 60 51 44 42 41 36 30 28 22 16 13 12 11 9 8 6 6
68 56 31 26 22 14 8 7 9 13 35 24 37 67 65 63 60 70 77 90 96 97 97 97 98 84 55 79 71 39 33 43 53 57 61 61 65 60 48 44 42 38 33 29 24 18 14 12 10 10 9 7 6 7
64 39 24 22 14 11 8 8 10 20 50 34 24 51 68 83 78 86 87 90 96 97 97 96 98 98 98 90 52 30 32 38 50 62 64 68 68 58 48 45 42 36 31 27 20 14 12 11 10 10 8 7 6 9
41 25 23 19 14 10 10 9 10 19 48 42 22 55 84 97 100 100 100 100 97 98 99 97 96 96 91 80 56 35 35 40 57 71 75 74 68 54 48 45 39 33 29 23 16 13 11 11 11 10 8 6 7 12
30 26 25 20 14 9 12 11 12 18 42 53 37 45 100 100 100 100 100 100 99 99 99 97 88 78 89 90 57 63 64 65 76 83 80 76 64 52 47 43 37 32 27 19 14 12 12 12 12 10 8 6 8 16
32 27 21 18 13 11 12 12 13 18 33 61 48 41 100 100 100 100 100 100 100 100 99 96 87 89 94 76 85 91 72 82 84 87 84 77 60 52 46 40 34 30 24 16 14 13 13 13 12 9 8 6 10 20
24 19 18 16 12 12 12 13 12 26 50 58 48 41 82 100 100 100 100 100 100 97 93 91 98 100 94 86 92 74 78 88 97 92 86 68 58 50 45 39 33 28 21 16 14 14 14 13 10 9 7 8 15 20
20 22 20 14 15 16 16 12 13 42 63 56 55 53 57 100 100 100 100 100 97 89 98 100 100 99 95 98 94 79 87 98 100 97 79 63 54 49 44 37 31 26 21 17 15 15 15 13 10 8 7 12 19 21
22 21 15 15 21 24 20 13 20 52 67 64 68 50 51 98 100 100 100 98 98 100 100 100 100 100 100 100 90 83 98 100 100 92 72 62 53 50 42 36 30 27 21 17 16 16 14 12 10 7 10 17 21 21
24 17 15 18 32 37 26 21 26 57 75 68 69 53 62 100 100 100 99 97 100 100 100 100 99 100 100 92 91 99 100 99 98 85 71 61 55 48 40 32 29 25 20 17 17 16 14 11 9 8 14 21 24 21
19 20 17 22 32 47 36 21 26 60 79 79 74 59 70 100 100 100 94 100 100 100 100 100 100 100 100 98 100 100 100 100 96 81 68 62 55 46 37 32 28 23 19 18 17 16 13 10 8 10 19 26 25 23
42 41 34 29 30 44 53 39 43 67 82 85 82 63 61 100 100 96 96 100 100 100 100 100 100 100 100 100 100 100 100 100 89 76 68 60 51 40 35 32 27 22 19 18 17 14 12 9 9 15 25 30 28 27
94 100 93 68 52 61 68 68 63 66 86 100 96 72 66 94 99 87 98 100 100 100 100 100 100 100 100 100 100 100 100 97 84 76 66 55 47 38 36 32 25 22 20 19 16 14 10 10 11 21 30 32 31 31
100 95 73 61 60 63 73 77 71 72 84 93 98 72 75 88 92 88 100 100 100 100 100 100 100 100 100 100 100 100 100 95 83 72 61 52 43 39 35 29 24 22 21 18 15 12 10 11 16 27 35 34 33 35
100 100 89 68 69 69 75 72 70 84 98 98 95 61 53 77 85 99 100 100 100 100 100 98 100 100 100 100 100 100 100 92 78 66 58 49 42 37 32 27 24 22 20 15 14 9 11 13 23 31 40 40 33 34
96 87 92 84 87 100 100 99 95 85 91 92 72 58 68 94 100 100 100 100 100 100 100 100 100 100 100 100 100 100 100 89 73 63 54 46 40 36 30 26 25 21 17 14 12 9 13 15 29 34 42 47 38 32
86 91 97 96 98 100 100 99 96 99 92 74 92 100 100 100 100 100 100 100 100 100 100 100 100 100 100 100 100 100 98 78 69 62 53 45 39 34 29 26 22 19 15 15 8 9 12 19 33 36 44 52 38 33
97 100 100 100 100 100 100 100 100 95 93 100 100 100 100 100 100 100 100 100 100 100 99 100 100 100 100 100 100 100 85 73 66 59 51 43 37 31 29 24 20 17 15 12 7 10 14 28 35 37 47 44 41 48
98 100 100 100 100 100 100 100 100 97 99 100 100 100 100 100 100 100 98 100 100 100 100 100 100 100 100 100 100 89 78 72 64 57 47 40 35 31 26 22 18 16 16 7 8 12 22 34 33 41 46 50 56 59
100 100 100 97 94 100 100 100 97 95 100 100 100 100 100 100 100 98 100 100 100 100 100 98 100 100 100 100 93 85 78 70 60 51 44 39 35 28 23 20 17 17 9 7 10 16 32 33 36 46 51 59 64 63

GFSWCAN_500_rhum_084.txt.gz
RH
26 27 22 12 9 12 6 6 16 30 29 31 31 33 38 34 18 10 5 5 4 4 4 5 5 5 5 5 6 6 7 6 6 7 7 6 6 7 6 6 6 7 8 8 8 10 9 11 12 12 13 13 13 13
25 27 30 18 15 9 6 7 7 15 28 29 33 34 32 28 16 8 6 5 5 5 5 5 6 6 7 7 7 8 7 7 7 7 7 7 7 8 8 8 9 9 12 12 13 14 14 14 15 17 18 18 19 19
28 26 33 17 18 16 13 6 12 17 24 26 27 32 32 30 21 8 6 5 5 5 5 6 7 8 8 9 9 9 10 10 10 9 11 12 13 14 14 16 16 19 19 20 20 20 22 22 23 24 24 25 25 25
34 31 31 20 17 18 17 13 5 13 29 29 25 28 35 31 31 23 7 5 4 4 4 5 6 6 8 10 10 10 11 12 12 15 17 20 22 23 24 24 24 24 25 26 25 26 26 27 28 28 28 27 26 26
39 38 31 34 20 18 18 16 13 3 19 36 31 26 28 38 36 31 21 6 5 5 5 5 6 6 7 9 10 12 12 13 14 16 20 22 27 28 26 26 26 27 27 28 28 28 29 31 31 32 32 29 27 26
45 42 34 42 23 17 19 21 17 11 3 33 38 33 27 33 40 44 36 23 10 7 6 6 6 6 7 8 12 13 15 17 17 18 20 25 28 29 27 28 28 27 29 29 32 34 35 36 36 36 33 30 28 24
49 42 42 40 26 16 18 26 23 14 4 4 28 39 36 30 40 44 47 41 34 20 10 7 6 6 7 9 12 14 16 18 20 20 22 25 30 30 29 30 31 32 35 36 38 39 39 40 38 34 32 28 24 18
53 43 47 42 27 15 15 22 24 13 4 2 3 32 41 40 35 44 48 54 52 44 41 19 10 10 9 12 14 16 17 18 20 22 26 26 30 31 32 35 38 41 45 44 43 42 40 38 33 30 28 24 18 14
58 50 48 43 29 14 16 19 24 12 4 2 2 14 36 49 44 48 54 52 56 57 58 54 28 12 12 12 15 18 20 20 24 26 27 31 31 33 35 38 47 47 45 43 42 42 38 33 28 27 24 18 14 12
60 56 50 45 25 17 14 17 22 13 6 3 2 6 36 54 59 56 58 55 58 60 71 76 46 22 17 15 14 16 20 22 26 29 31 32 34 37 39 43 48 43 40 41 41 39 35 31 27 25 20 15 12 11
65 60 52 49 33 22 16 17 19 16 10 6 3 3 22 49 63 64 60 53 60 71 84 93 77 50 30 23 22 19 18 22 26 33 38 34 38 43 45 48 50 44 43 41 40 37 32 29 27 22 16 13 12 11
70 62 58 54 40 28 21 18 19 18 11 8 4 4 8 45 56 67 60 59 65 74 90 94 93 92 71 50 29 19 24 29 28 44 43 37 42 44 48 53 55 49 46 42 40 35 31 28 24 17 14 12 12 12
74 67 64 54 45 39 29 24 23 21 13 11 5 4 7 20 54 59 65 81 88 84 80 92 94 98 94 92 80 56 38 26 37 56 39 38 45 49 55 58 57 52 44 43 38 32 30 26 20 16 13 13 13 13
84 74 72 58 55 50 35 27 25 19 15 11 7 5 6 14 38 60 78 100 96 95 92 96 98 100 100 100 93 62 58 56 59 69 40 40 49 56 61 62 61 52 46 43 36 32 29 24 18 15 14 14 14 12
90 80 82 71 64 60 41 31 23 17 14 11 8 6 7 18 20 59 80 91 100 100 100 100 97 100 100 94 96 96 96 81 58 52 33 36 48 64 68 67 62 50 46 40 36 32 28 23 18 15 15 15 13 11
94 92 94 77 73 68 53 36 24 17 15 11 10 7 9 20 25 38 99 96 99 100 100 100 99 97 100 94 90 98 82 69 87 54 25 34 54 71 75 70 65 50 44 40 35 31 27 23 18 16 16 14 12 9
94 100 89 81 76 74 63 39 29 21 16 12 10 9 11 26 37 27 96 100 100 100 100 100 98 99 97 96 96 97 100 99 93 50 39 39 77 83 80 77 60 49 45 39 34 31 26 23 19 17 16 14 11 7
100 97 94 84 80 75 65 48 32 22 17 14 10 10 10 23 45 37 38 100 100 100 100 100 100 97 98 100 100 100 99 99 89 47 59 96 91 85 84 80 56 50 45 39 34 29 25 22 19 18 15 13 9 6
100 94 86 84 85 76 67 46 30 22 18 16 10 11 11 19 54 48 35 86 100 100 100 100 98 98 100 100 100 100 100 100 74 90 99 99 93 91 91 70 55 50 44 38 32 29 26 22 19 17 15 12 7 5
99 95 88 83 80 73 61 35 26 24 21 16 11 12 12 13 50 56 39 49 100 100 97 89 100 100 100 100 100 100 100 100 100 100 99 100 98 99 87 64 56 50 44 36 30 27 25 22 20 16 14 9 5 7
100 97 89 82 89 73 43 31 32 30 24 15 13 14 12 16 49 56 50 51 84 97 91 98 100 100 100 100 100 100 100 100 100 100 100 99 100 99 78 64 57 49 41 34 30 28 25 22 19 15 12 7 6 11
100 100 98 99 99 74 44 38 45 40 26 16 14 16 15 32 41 53 49 43 48 97 100 100 100 100 100 100 100 100 100 100 100 100 99 100 100 96 76 65 57 46 37 32 30 27 25 22 18 14 9 6 7 15
100 100 100 100 100 76 54 55 57 44 24 16 16 20 18 37 49 51 48 47 36 90 100 100 100 100 100 100 100 100 100 100 100 100 99 100 100 95 74 64 52 43 36 32 31 28 25 20 16 12 7 5 10 18
100 100 100 99 88 77 64 63 49 33 21 19 17 24 22 43 64 61 58 56 54 89 100 100 100 98 100 100 100 100 100 100 99 99 100 100 100 91 72 60 49 42 36 34 31 28 23 18 14 10 5 6 14 20
100 100 97 85 71 60 50 39 29 22 22 27 22 26 28 49 64 61 59 70 88 100 100 100 98 99 100 100 99 100 100 99 100 100 100 100 100 88 72 55 46 39 36 34 32 26 21 16 13 7 5 8 18 23
100 99 82 62 50 40 31 25 24 31 38 40 30 28 35 43 55 52 58 91 100 100 100 100 100 100 100 100 100 100 99 100 100 100 100 100 100 88 67 50 42 38 36 35 31 25 18 15 10 5 5 11 20 25
80 60 44 34 27 24 25 36 60 60 47 37 35 39 57 59 54 51 62 83 97 100 100 100 100 98 100 100 98 99 100 100 100 100 100 100 98 82 58 46 42 39 36 34 29 23 17 14 8 5 6 16 23 28
27 24 21 23 26 35 55 63 60 52 51 49 56 64 70 68 56 61 64 92 96 100 100 100 100 99 98 100 100 100 100 100 100 100 100 100 96 73 51 46 42 38 36 33 26 20 15 11 6 5 9 19 24 26
21 24 36 38 44 50 51 50 46 55 76 100 100 100 96 80 65 64 75 76 89 100 100 100 100 100 98 100 100 100 100 100 100 100 100 100 85 63 52 47 41 37 36 29 23 16 14 8 5 6 13 22 24 29
43 46 45 52 68 64 59 66 87 100 100 100 100 100 100 76 70 77 70 63 88 100 100 100 100 100 100 100 100 100 100 100 100 100 100 96 74 61 53 43 39 37 32 24 19 15 11 5 4 7 20 24 27 36
43 50 80 87 81 74 82 98 100 100 100 100 100 99 93 81 74 65 62 72 100 100 100 97 99 100 100 100 100 100 100 100 100 100 100 85 71 59 48 39 38 35 27 21 16 14 7 5 5 12 24 26 34 36
72 92 100 94 83 95 100 100 100 100 100 99 100 100 87 79 76 76 78 100 100 100 98 97 100 100 100 99 100 100 100 100 100 100 96 85 67 51 42 40 38 28 23 17 15 10 5 4 7 21 28 33 37 38
94 100 100 95 98 100 98 99 96 99 100 98 87 89 96 99 100 100 100 100 100 100 100 100 100 98 97 100 100 100 100 100 100 99 94 74 56 44 41 39 31 24 19 16 12 6 4 5 15 27 33 39 36 38

GFSWCAN_500_rhum_087.txt.gz
RH
41 40 33 29 29 30 25 15 11 4 15 27 21 20 16 5 4 4 4 5 6 6 7 6 6 6 6 6 6 6 8 7 7 7 7 7 7 8 7 7 8 9 9 10 12 14 12 14 16 16 17 18 18 19
40 38 37 34 33 33 34 20 12 7 4 25 26 21 20 15 7 5 5 5 6 6 7 9 9 10 9 8 9 9 9 9 9 9 9 9 8 9 9 10 12 13 17 17 17 19 18 20 21 21 21 21 21 20
43 40 36 39 38 32 35 25 14 10 6 3 27 29 24 23 20 9 7 5 6 7 7 9 10 10 10 12 12 13 14 15 15 18 18 18 19 18 20 21 21 22 22 22 22 21 21 22 22 23 22 22 21 20
50 46 38 39 39 35 34 29 18 13 9 5 3 20 29 26 26 21 11 10 5 5 6 7 10 10 10 10 10 11 12 15 18 19 22 24 26 25 26 24 23 22 23 23 22 23 22 24 25 25 23 22 22 22
56 49 42 43 38 36 34 34 19 14 11 7 4 3 17 30 31 30 24 22 20 6 4 5 7 10 10 10 10 10 12 15 18 19 20 23 27 27 27 24 24 22 22 24 24 25 27 28 28 26 23 22 23 22
67 55 46 44 41 36 32 37 22 16 11 8 3 2 8 26 30 37 38 28 35 36 7 5 5 7 7 8 8 10 14 16 20 22 22 23 25 28 28 26 25 25 26 28 30 31 32 30 28 27 25 24 24 23
71 63 52 48 44 41 36 36 26 17 12 11 8 2 1 14 32 34 40 38 29 35 41 13 6 6 6 6 6 8 12 15 18 20 22 25 26 27 30 30 30 30 34 36 36 35 34 31 31 30 27 26 24 23
72 69 61 51 50 45 42 38 31 22 14 12 11 8 2 1 7 31 33 40 46 38 35 48 30 11 7 7 7 8 12 16 18 21 23 27 29 29 30 32 33 35 39 40 36 33 34 34 34 30 28 26 25 22
75 74 68 58 54 48 50 44 40 28 16 13 14 12 7 1 1 7 26 32 39 47 47 55 65 54 24 12 10 10 10 13 20 19 22 29 29 28 34 35 36 40 43 45 39 35 33 34 32 31 28 27 24 19
83 75 76 68 60 55 52 47 45 36 22 14 14 14 12 7 1 1 12 39 38 50 60 66 68 76 64 45 21 14 12 12 15 16 20 27 30 34 33 38 44 46 48 50 46 38 34 33 34 31 29 27 23 19
90 82 85 76 69 62 54 53 48 47 31 17 15 15 13 10 5 2 2 26 50 59 73 85 72 81 78 67 39 23 18 17 17 17 21 23 28 37 34 39 45 49 53 54 52 46 37 35 34 32 29 26 21 20
92 86 85 83 76 66 59 57 52 52 38 18 15 15 13 10 7 3 3 18 59 61 77 86 89 88 94 87 79 50 35 30 28 26 25 23 30 44 35 36 46 54 59 59 58 49 39 37 35 33 29 25 22 20
94 92 88 91 82 72 66 62 57 57 43 24 19 18 14 12 9 5 2 6 41 68 75 87 92 99 100 100 96 94 79 64 51 39 26 21 33 45 34 36 46 58 65 66 62 48 41 38 35 32 29 26 23 20
100 97 94 93 86 80 76 70 62 63 55 33 24 24 20 16 12 8 4 4 10 55 86 87 94 100 100 100 96 91 91 89 80 82 46 41 89 96 68 34 43 62 73 72 64 48 42 39 35 33 29 27 23 21
100 98 95 97 88 85 86 78 60 64 66 52 38 30 25 21 16 12 7 4 7 17 63 100 99 97 100 99 100 97 91 87 92 91 89 96 90 94 55 28 37 70 89 78 62 48 42 39 36 32 29 26 23 21
96 90 99 97 94 92 88 86 71 66 64 63 53 40 30 24 19 16 10 6 6 15 20 78 100 95 93 99 100 100 100 100 100 98 99 96 99 99 44 25 46 91 94 83 60 48 44 40 36 33 28 25 24 19
89 94 100 96 94 92 88 82 74 66 56 62 74 52 36 26 21 19 11 8 7 15 20 40 95 99 88 94 100 100 100 98 98 98 94 100 100 94 54 37 91 97 96 82 57 48 45 40 35 31 28 26 23 16
92 100 97 95 96 96 90 86 78 65 64 69 72 61 36 24 24 21 12 10 9 9 20 31 87 91 85 92 100 100 99 100 98 98 100 96 87 48 29 78 100 98 97 74 56 50 46 40 34 31 29 26 20 13
100 99 97 96 100 100 98 86 74 58 66 74 76 64 33 28 28 22 14 11 11 12 22 24 37 77 87 89 98 100 100 99 100 100 100 100 98 66 84 100 99 100 97 72 58 52 44 38 34 31 29 23 17 10
100 98 96 99 99 96 94 83 73 71 67 79 79 60 34 33 34 24 14 13 12 10 9 17 29 43 89 100 99 100 100 100 99 100 100 100 98 97 100 100 100 100 99 75 60 50 43 37 33 30 28 21 14 8
99 99 100 97 98 100 97 89 85 72 66 65 82 61 39 38 42 26 15 14 14 12 16 40 32 38 74 96 100 100 100 99 100 100 100 100 100 99 98 100 100 100 98 75 58 48 40 36 33 31 26 18 12 6
100 99 99 100 99 98 99 93 83 74 75 73 77 76 54 47 48 24 17 15 16 24 31 46 40 40 56 80 100 100 99 99 100 100 100 100 99 99 100 100 100 100 96 71 54 45 38 35 33 31 23 16 10 5
99 100 100 99 100 95 91 88 77 75 82 72 73 77 68 62 45 26 18 18 20 37 44 36 33 31 31 31 77 100 100 100 100 100 100 98 100 96 100 100 100 100 94 71 51 41 37 35 34 29 21 14 8 5
100 100 100 99 98 93 81 82 80 81 74 70 83 88 74 55 34 23 18 22 26 33 42 47 44 38 33 32 43 99 100 100 99 100 100 100 97 100 100 100 100 100 94 64 45 39 36 35 33 27 19 12 6 4
100 100 98 92 86 85 91 74 73 82 71 86 96 80 58 40 29 22 20 25 35 50 52 54 51 42 41 54 87 95 99 99 99 100 100 100 98 100 100 100 100 100 83 49 41 38 36 34 31 23 16 9 5 4
100 97 97 95 95 93 76 68 67 83 95 92 82 63 40 29 24 20 22 30 49 59 63 68 57 55 76 100 100 100 100 100 99 99 99 99 100 100 100 100 100 96 62 46 42 38 36 35 28 20 14 8 5 5
98 91 83 80 76 67 67 79 91 91 88 83 59 36 29 28 33 32 38 38 42 61 61 58 66 78 100 100 100 100 100 96 98 99 100 100 100 100 100 100 100 81 52 46 40 37 38 32 24 17 11 6 4 6
80 73 70 70 76 86 99 98 82 69 55 35 33 34 41 46 50 51 43 40 42 64 64 60 65 89 100 100 100 99 95 100 100 98 100 100 100 100 100 100 98 64 52 43 37 39 35 28 20 14 9 5 4 8
69 71 77 86 100 100 80 53 42 36 38 46 55 56 51 57 54 57 63 68 72 78 72 62 61 89 100 100 99 100 100 99 100 100 99 100 100 100 100 100 85 61 50 39 39 36 31 24 18 12 7 4 5 10
82 96 100 89 57 38 34 36 39 44 47 49 53 52 49 63 92 98 95 94 96 87 69 64 59 90 100 99 100 100 100 100 100 100 99 100 100 100 100 98 76 58 42 39 38 32 27 21 16 10 5 4 7 17
73 52 41 35 29 32 42 46 45 46 49 53 56 64 71 89 100 100 95 100 100 94 72 65 62 98 100 100 100 100 100 100 100 99 100 100 100 100 100 96 72 48 39 38 34 29 23 18 12 7 4 4 10 23
37 32 31 32 37 42 46 46 54 63 70 74 86 100 99 96 88 90 96 100 100 86 73 64 72 100 100 100 100 99 95 94 99 100 100 100 100 100 100 90 59 41 39 35 30 25 20 14 8 5 4 6 17 28
28 36 42 45 46 47 55 62 72 82 86 82 82 87 99 91 80 77 81 81 71 59 58 92 100 100 100 100 99 97 100 100 100 100 100 100 100 100 99 74 46 40 36 30 26 21 16 10 5 4 5 11 26 32

GFSWCAN_500_rhum_090.txt.gz
RH
86 71 61 56 54 45 38 34 36 20 11 7 4 18 26 24 15 5 5 6 7 8 9 10 10 10 9 8 8 8 9 8 8 8 8 8 8 10 10 10 11 13 14 17 16 17 16 18 18 18 18 16 15 14
80 75 63 53 54 53 43 35 38 29 17 8 5 3 12 26 26 17 6 5 6 7 8 9 11 13 15 14 14 12 12 11 10 12 13 12 14 15 18 17 18 17 19 19 19 18 17 17 17 16 15 15 15 15
79 72 64 58 49 48 51 36 33 33 22 12 8 7 4 9 26 28 20 10 5 6 6 7 9 12 14 13 14 16 16 18 18 21 22 23 24 22 21 22 20 19 19 19 19 18 18 18 18 17 15 15 16 17
76 71 67 60 51 47 51 42 32 28 25 21 13 9 8 5 8 26 31 25 19 6 5 5 6 8 12 13 12 12 13 15 18 20 22 24 26 26 26 24 21 20 19 20 21 22 22 23 21 19 18 19 19 20
75 70 72 68 60 53 46 52 42 32 26 25 18 13 9 7 2 9 28 32 28 26 13 6 5 5 7 11 11 11 12 15 18 20 22 22 25 26 27 28 26 23 22 23 25 27 27 25 22 20 21 21 22 22
77 68 69 73 69 58 50 50 51 43 32 28 25 17 12 9 5 1 7 27 38 40 30 23 12 6 5 6 8 9 9 12 15 18 20 21 24 27 28 28 30 29 29 29 31 33 30 26 26 25 23 23 24 25
75 76 75 71 72 70 61 55 51 49 44 36 28 23 14 11 8 4 1 5 24 32 44 40 34 24 8 5 6 7 7 7 11 17 19 21 23 25 27 26 33 30 32 33 35 38 34 28 27 27 26 26 26 26
82 78 76 75 74 74 69 62 57 51 49 41 35 31 19 12 10 7 4 1 1 18 27 34 47 50 41 26 8 6 6 6 7 10 15 19 23 23 23 29 31 33 35 37 42 44 44 40 35 31 30 29 29 28
91 87 74 75 75 77 76 68 66 59 55 44 38 35 23 14 11 9 7 5 2 1 4 28 33 47 56 57 48 30 12 7 7 8 10 15 22 20 18 27 30 32 36 41 47 49 51 50 46 41 33 32 32 31
93 93 80 80 83 85 79 79 71 68 62 52 42 37 28 16 11 12 10 8 7 3 1 1 23 42 52 67 72 63 54 35 13 10 10 11 12 15 18 20 27 32 33 41 47 52 56 55 54 49 38 35 34 33
90 94 86 80 80 88 86 84 79 76 69 58 51 40 34 18 14 14 13 11 10 8 4 2 4 45 62 72 83 89 72 62 53 33 21 19 16 16 18 20 26 32 35 36 46 56 62 64 62 53 42 37 35 34
95 94 84 85 86 95 92 84 85 79 75 67 60 46 39 27 17 16 15 14 13 12 9 4 3 26 68 73 83 87 100 90 64 51 39 26 21 18 16 17 25 35 34 35 42 55 69 71 67 56 43 40 38 36
97 97 90 89 98 97 96 88 87 82 83 74 66 54 42 41 28 20 18 18 18 17 13 8 4 8 53 79 77 82 87 92 99 91 79 56 31 22 18 21 29 31 35 36 38 47 72 82 73 56 46 42 40 37
98 97 94 93 100 99 97 95 92 86 88 82 80 67 56 59 44 33 24 22 21 21 19 11 6 4 10 66 90 86 84 84 89 100 99 96 97 58 28 24 36 73 94 55 32 37 76 88 77 57 47 44 41 37
100 98 96 94 100 100 95 97 92 89 91 91 89 78 67 64 57 49 34 28 25 26 26 15 10 6 6 12 68 93 94 83 87 99 97 99 97 98 97 70 54 62 93 47 26 32 81 96 80 57 49 46 40 36
100 97 88 97 100 98 97 97 92 91 92 93 88 92 88 69 62 59 46 34 28 30 31 20 13 10 7 7 9 47 93 98 100 98 98 100 100 100 100 91 80 91 79 50 33 41 96 98 82 56 51 45 39 35
98 86 100 100 98 96 98 93 88 81 79 85 92 96 87 78 72 65 56 45 31 32 36 34 16 12 7 6 10 16 83 100 100 100 99 100 100 99 84 70 79 99 97 77 59 96 100 99 73 58 50 42 38 35
91 98 100 98 98 97 95 91 82 71 66 83 97 98 92 88 81 68 59 52 36 35 40 42 24 12 7 8 18 22 59 99 100 100 100 100 100 99 98 98 100 98 78 58 75 100 98 97 79 59 48 40 38 34
98 100 98 98 99 99 99 91 77 62 72 84 92 98 96 97 89 77 63 60 45 39 42 44 24 13 9 9 14 20 23 70 100 100 100 100 100 100 100 100 100 99 90 94 100 100 100 98 81 56 44 38 38 31
98 99 98 99 100 99 94 83 77 64 66 81 98 99 96 96 96 84 70 73 58 48 49 44 25 15 12 13 12 14 20 29 67 98 100 100 100 100 100 100 100 98 94 100 100 100 100 96 71 53 42 38 38 25
98 98 100 100 99 98 93 76 71 70 71 80 98 100 98 99 96 92 84 86 63 55 57 45 31 17 14 14 13 20 25 26 47 76 100 100 100 100 100 100 100 100 100 100 100 100 100 92 66 47 39 39 34 20
100 100 100 99 100 97 95 74 69 70 81 86 99 99 98 98 97 98 90 82 66 66 61 46 31 17 15 15 17 22 29 29 31 37 66 98 100 100 100 100 100 99 100 100 100 100 100 92 60 43 39 38 28 16
100 100 100 100 100 98 92 84 73 76 86 85 95 100 99 100 99 94 78 76 84 67 62 46 27 17 14 17 20 26 31 37 38 47 44 72 97 100 100 100 100 100 100 100 100 100 100 89 50 41 40 36 23 14
100 100 100 99 97 92 76 63 68 79 81 85 92 99 99 100 98 83 68 78 93 90 64 41 28 16 16 19 24 26 30 43 41 40 41 79 100 100 100 100 100 100 100 100 100 100 100 79 47 41 39 29 19 13
100 99 98 92 90 81 61 63 73 78 78 85 98 98 98 100 95 74 63 86 85 71 47 39 27 18 18 20 23 30 36 41 35 36 62 100 100 100 100 100 100 100 100 100 100 100 100 74 45 41 36 24 17 12
100 94 93 86 81 75 67 71 72 76 93 100 98 99 100 99 88 68 65 93 65 49 41 30 22 20 22 24 25 39 42 37 37 86 100 100 100 100 100 100 100 100 100 100 100 100 98 64 43 39 30 21 15 10
96 87 83 74 71 67 81 86 92 98 99 99 100 100 100 95 87 79 96 76 54 40 33 28 26 27 28 29 32 48 45 42 60 98 100 100 100 100 100 100 100 100 100 100 100 100 88 53 41 33 26 18 13 8
96 82 69 65 75 88 97 100 100 100 100 100 100 100 100 97 82 88 75 52 42 36 31 30 31 31 33 38 49 58 44 39 63 89 100 100 100 100 100 100 100 100 100 100 100 98 73 46 37 29 22 16 10 6
71 65 64 72 88 88 92 96 97 100 100 100 100 100 94 83 74 66 48 38 31 26 26 29 32 32 40 60 69 66 44 41 79 99 100 100 100 100 100 100 100 100 100 100 100 95 53 39 32 26 19 13 8 5
57 58 66 76 80 86 95 100 100 100 100 100 98 86 69 57 55 43 35 30 25 26 31 36 37 40 48 72 78 69 48 48 89 100 100 100 100 100 100 100 100 100 100 100 99 75 48 36 28 22 16 11 6 5
67 74 74 76 85 98 100 100 100 100 97 85 69 55 51 43 35 32 31 29 26 29 40 49 56 61 75 94 87 66 65 81 100 100 100 100 100 100 100 100 100 100 100 100 97 70 45 30 24 18 13 8 6 5
80 84 97 100 100 100 100 100 96 82 71 60 49 40 35 33 29 25 26 28 32 41 57 68 78 88 89 100 96 68 85 99 98 100 100 100 100 100 100 100 100 100 100 100 91 62 34 26 21 15 9 6 6 6
100 100 100 99 94 92 93 91 75 60 51 43 38 35 33 27 22 27 39 50 61 73 80 85 85 85 90 100 94 72 96 100 92 97 96 100 100 100 100 100 100 100 100 99 81 41 28 24 18 11 7 6 6 7

GFSWCAN_500_rhum_093.txt.gz
RH
84 74 80 89 90 82 57 45 39 30 26 19 12 8 6 7 24 9 5 6 7 8 8 11 14 15 14 15 16 17 15 16 14 14 16 16 14 15 16 17 17 17 18 19 19 19 18 19 20 19 18 18 18 17
84 74 75 81 82 77 72 52 43 39 26 26 20 13 9 6 4 24 16 5 6 6 7 7 10 13 15 16 19 20 24 25 26 24 24 25 25 22 21 20 20 18 19 19 19 19 20 20 20 20 18 17 18 18
81 76 74 78 76 78 72 62 52 42 43 31 26 22 14 9 5 3 20 23 10 6 6 6 7 7 10 13 14 14 17 19 21 23 26 26 27 25 23 23 20 18 18 18 19 20 20 20 22 18 15 17 18 20
83 75 74 75 70 74 75 69 62 50 47 46 37 28 23 14 7 4 2 15 26 22 14 7 6 6 6 8 12 12 12 14 16 18 22 24 26 27 27 27 27 26 22 20 21 23 25 26 24 22 19 20 20 21
77 76 73 72 67 71 75 71 66 61 51 49 46 39 26 20 11 7 2 1 8 22 24 25 18 10 6 5 6 8 11 12 12 14 16 17 20 24 25 27 28 30 30 31 28 29 30 32 28 25 24 24 22 21
73 76 72 74 67 70 78 72 72 70 58 53 51 46 31 24 15 9 6 3 1 1 6 15 21 23 24 21 8 5 6 8 11 10 10 14 16 21 25 22 25 31 30 32 31 33 34 37 38 33 29 27 27 26
74 72 69 76 72 70 75 78 74 76 71 59 53 55 44 31 22 13 9 6 5 3 1 2 4 9 18 25 28 30 17 7 6 7 8 8 9 17 21 14 20 28 28 31 34 35 37 42 44 45 44 42 35 34
66 71 69 79 80 74 70 80 81 83 77 69 61 57 58 40 33 17 12 11 9 7 5 3 2 3 4 10 18 26 32 37 32 12 7 7 6 7 11 13 18 24 24 29 32 35 38 44 48 52 53 51 48 47
63 66 73 76 86 82 76 77 78 89 83 77 69 62 61 57 47 32 16 14 13 11 8 6 6 4 4 3 3 10 21 34 38 52 55 24 10 10 10 10 16 18 18 23 28 32 36 41 47 52 57 59 60 57
63 64 72 75 87 89 86 82 75 81 91 84 78 69 64 61 56 46 28 16 15 14 12 9 9 8 8 6 4 4 7 36 45 53 67 69 61 27 12 11 11 12 13 17 23 29 34 38 43 52 62 68 69 65
63 64 76 75 78 89 91 93 83 77 95 95 86 79 72 66 61 58 45 24 18 16 14 12 11 10 10 9 6 5 7 19 43 59 75 81 92 57 36 19 15 14 15 17 22 28 33 36 38 45 57 72 79 74
61 57 69 90 85 90 95 96 93 80 79 94 94 84 79 72 67 63 58 45 32 20 18 14 14 11 11 10 7 5 4 9 55 70 78 86 98 97 73 34 20 16 16 18 21 28 32 30 33 39 48 68 88 86
63 56 64 98 100 99 96 95 96 87 89 85 92 91 83 77 68 70 66 59 52 36 23 17 15 14 12 11 8 6 4 4 12 52 86 90 90 95 98 93 35 22 18 18 24 29 28 46 58 46 42 70 97 97
64 68 78 100 99 99 95 94 96 92 96 94 91 89 88 78 73 76 71 64 58 54 42 24 17 19 16 13 10 8 6 4 4 12 80 100 98 98 97 98 100 61 30 25 25 29 51 68 66 33 35 70 98 98
67 80 99 98 98 98 98 96 100 94 99 91 89 88 86 89 90 81 72 72 64 63 61 44 26 26 21 19 15 10 8 6 4 4 22 84 100 100 100 98 99 99 69 50 37 27 36 71 82 54 60 96 100 100
75 100 97 95 99 99 99 99 98 100 92 86 72 85 96 95 92 84 74 71 66 64 65 57 38 33 28 23 18 14 10 9 6 6 6 24 85 100 100 100 97 99 100 100 100 92 88 95 94 93 100 100 100 100
100 95 96 100 100 98 98 98 98 96 88 65 77 100 98 96 88 82 76 74 71 72 72 66 48 39 36 30 22 16 12 10 8 7 7 8 41 100 100 100 100 100 100 100 100 97 100 100 100 99 100 100 100 100
99 96 100 100 100 99 98 97 99 90 65 63 93 100 97 99 88 84 81 76 76 79 82 72 52 45 42 39 29 19 15 10 8 8 7 9 14 48 92 100 100 100 100 100 99 100 100 100 98 100 100 100 100 97
96 100 100 100 100 99 99 97 96 85 68 77 100 99 98 99 95 90 86 81 71 81 90 77 51 59 47 48 42 28 22 16 10 9 9 11 22 21 55 99 100 100 100 100 100 100 100 100 100 100 100 100 100 99
100 98 100 100 100 100 98 96 94 89 65 77 100 99 98 99 98 92 92 85 75 78 92 85 75 64 50 51 51 32 27 19 13 10 11 15 20 26 58 99 100 100 100 100 100 100 100 100 100 100 100 100 100 100
100 98 100 100 100 100 98 94 92 82 73 81 100 99 97 100 99 96 94 87 72 75 95 93 89 81 64 54 58 45 34 23 16 12 11 16 24 29 36 68 100 100 100 100 100 100 100 100 100 100 100 100 100 95
99 100 100 99 100 98 99 94 87 72 74 74 100 100 98 100 100 96 90 78 66 100 96 84 80 69 64 61 62 48 41 31 25 16 13 15 20 26 32 38 40 94 100 100 100 100 100 100 100 100 100 100 100 91
100 100 100 100 100 97 96 93 87 73 71 70 79 95 98 100 100 100 89 70 82 100 94 77 77 68 55 59 57 52 44 30 21 16 16 16 22 24 35 45 47 45 84 100 98 100 100 100 100 100 100 100 100 97
100 100 100 100 98 96 90 92 91 82 73 72 70 87 99 100 100 99 78 65 100 100 93 93 81 66 53 54 45 49 40 27 20 18 19 20 24 35 38 38 46 53 55 89 100 100 100 100 100 100 100 100 99 99
100 100 100 95 89 89 85 88 88 83 67 58 66 86 94 100 99 91 72 74 100 99 96 97 87 67 52 49 45 48 39 28 21 20 23 24 29 43 40 38 67 91 100 100 100 100 100 100 100 100 100 100 99 97
100 97 96 90 84 82 70 71 72 73 70 66 74 88 88 92 89 76 70 99 100 98 94 90 80 65 60 51 47 46 38 28 21 23 25 26 36 44 42 59 84 100 100 100 100 100 100 100 100 100 100 98 97 76
99 87 81 79 86 91 92 96 95 87 76 78 83 93 100 99 86 75 96 100 94 89 83 79 77 72 63 51 49 40 30 24 23 25 27 31 41 44 48 66 100 100 100 100 100 100 100 100 100 100 100 94 92 43
90 76 77 83 97 99 98 99 94 85 78 83 100 98 100 100 100 100 100 96 81 74 70 69 66 59 47 49 44 28 21 22 25 28 31 37 49 56 63 64 96 100 100 100 100 100 100 100 100 100 99 97 74 29
80 79 83 89 98 99 98 92 81 76 77 94 100 100 100 100 100 100 98 88 76 72 70 66 55 56 61 45 29 23 24 31 31 38 40 48 59 74 83 84 100 100 100 100 100 100 100 100 100 100 100 92 47 22
72 80 93 98 99 97 92 92 98 100 100 100 100 99 100 100 100 97 90 83 74 69 60 61 70 61 37 29 26 24 28 37 38 39 46 69 76 90 91 100 100 100 100 100 100 100 100 100 100 100 99 74 32 20
84 96 98 96 93 85 88 95 100 100 99 98 100 98 98 94 82 77 76 70 67 73 79 59 40 34 31 26 22 24 35 38 41 55 73 86 74 85 100 100 100 100 100 100 100 100 100 100 100 100 93 46 24 17
98 95 72 70 80 89 100 100 100 100 100 100 96 93 90 82 70 58 63 76 80 65 46 37 33 25 21 21 26 28 41 69 78 92 100 98 93 100 100 100 100 100 100 100 100 100 100 100 100 100 62 28 22 12
93 99 100 100 100 100 100 100 100 100 94 84 84 82 71 57 61 73 72 56 41 33 28 21 16 19 23 29 43 53 66 87 97 100 100 99 100 100 100 100 100 99 100 100 100 100 100 100 100 78 34 26 15 9

GFSWCAN_500_rhum_096.txt.gz
RH
68 80 90 78 81 83 86 91 77 61 47 42 34 25 18 11 6 10 8 6 7 8 9 12 15 17 18 19 19 19 21 21 21 22 21 21 21 19 19 19 18 18 17 18 19 19 19 18 18 17 18 17 18 19
66 73 90 83 71 77 77 92 80 73 60 46 44 39 23 14 8 4 6 15 6 6 7 8 9 11 14 15 16 17 19 20 19 22 24 27 27 26 24 22 20 19 18 18 18 19 20 20 21 22 18 17 18 18
70 71 87 87 74 68 71 76 83 71 71 58 48 44 34 21 9 5 2 2 18 9 6 6 6 6 7 9 11 12 13 14 16 18 18 19 23 26 25 23 24 25 25 22 20 21 21 23 25 25 24 23 19 20
71 69 86 88 73 70 71 72 80 77 74 68 57 49 45 30 18 7 5 3 2 8 22 17 11 7 6 6 6 6 8 10 12 12 14 15 16 17 18 22 24 26 29 30 28 29 26 27 29 31 30 26 25 25
61 72 81 86 71 66 72 69 75 75 75 75 65 58 49 46 30 16 7 6 4 4 1 7 17 22 22 21 17 12 7 6 6 7 10 10 8 10 14 16 13 18 23 29 30 33 31 33 33 34 37 37 33 30
62 63 92 85 71 65 71 67 66 77 70 82 76 66 59 52 46 32 18 11 8 6 5 4 6 5 6 7 11 18 24 23 20 16 10 10 8 8 8 9 11 12 20 24 25 29 32 32 34 36 38 42 45 47
54 52 57 76 72 69 74 75 66 72 72 78 82 73 68 62 56 50 39 27 16 12 9 8 8 5 10 7 8 7 5 5 9 16 27 33 41 44 17 22 9 10 12 15 18 22 26 30 33 35 38 42 48 52
52 54 65 68 69 68 71 77 78 77 72 74 84 77 76 70 64 59 52 44 31 20 15 12 10 10 11 11 12 11 7 5 4 5 10 17 30 48 52 60 56 12 8 10 13 15 18 24 28 32 36 40 45 49
55 62 67 72 69 69 73 77 85 91 86 74 83 81 79 77 69 67 62 56 46 39 24 17 15 12 12 14 15 15 9 7 6 4 5 11 22 35 43 48 63 68 39 12 11 14 17 19 23 27 33 37 42 46
54 58 70 73 66 66 71 86 83 90 100 94 84 83 76 82 78 73 69 63 58 53 40 27 21 18 16 16 16 19 14 8 7 5 7 10 30 30 63 67 70 73 70 32 13 12 14 16 19 22 29 34 38 40
53 55 63 67 70 63 64 83 90 96 97 96 100 94 85 76 79 79 74 71 68 62 55 49 42 30 20 17 17 19 19 10 9 6 6 4 15 26 64 84 81 86 86 46 22 18 14 15 17 20 26 32 34 34
60 56 60 60 64 65 65 69 90 99 98 97 97 97 99 84 73 74 75 76 77 73 67 62 58 48 30 20 19 20 20 16 8 7 6 4 4 8 29 73 86 89 91 88 50 27 21 18 20 25 29 32 30 29
64 63 70 67 62 67 62 68 80 99 100 99 96 95 96 93 72 72 74 80 79 77 74 70 65 58 47 37 30 23 22 20 13 7 6 5 4 4 5 25 83 94 98 100 95 56 28 26 27 28 30 28 30 47
84 80 69 82 74 73 72 73 83 100 100 100 92 86 94 87 86 87 88 80 82 78 79 77 75 69 59 52 42 39 27 23 18 10 6 6 4 4 4 4 17 74 96 100 100 99 78 64 42 36 34 33 32 52
100 99 96 98 92 87 84 84 88 100 97 100 89 73 65 91 97 97 95 84 82 84 86 84 75 67 62 57 49 43 33 25 22 17 11 8 6 5 5 5 6 34 83 94 99 100 100 97 91 79 76 83 75 86
79 91 97 97 100 100 98 100 100 99 96 96 83 57 66 94 98 97 95 90 82 84 89 87 78 72 67 63 59 52 39 27 26 23 17 14 11 8 7 7 9 11 38 95 97 99 100 100 98 98 99 100 99 100
17 56 98 98 100 100 100 99 97 97 96 86 72 78 86 100 98 96 96 93 89 88 86 80 86 82 71 66 69 58 44 34 30 27 24 22 17 13 11 9 12 14 16 34 85 100 100 100 100 97 100 100 100 100
3 36 74 98 100 100 100 99 98 95 86 74 76 94 100 98 98 97 98 93 84 85 86 77 80 81 75 81 78 64 56 41 38 34 31 28 22 19 16 12 10 12 15 20 65 95 99 100 100 100 100 100 100 100
3 22 91 100 100 100 100 100 99 94 88 87 86 95 100 98 99 98 98 94 86 84 82 79 79 80 99 79 75 75 70 60 51 46 43 37 30 21 16 14 14 16 18 21 33 65 91 98 100 100 100 100 100 100
3 46 100 100 100 100 100 100 98 100 92 92 95 91 100 98 99 98 97 96 96 82 64 66 89 99 95 72 68 75 66 59 60 58 54 46 37 22 16 15 16 18 22 26 28 32 38 68 96 100 100 100 100 100
27 31 88 100 100 100 100 99 96 92 90 94 95 93 99 99 99 99 99 99 86 62 62 82 100 99 97 74 67 78 70 58 59 59 54 49 38 25 19 18 18 20 25 28 33 38 43 33 42 97 100 100 100 100
91 100 100 100 100 100 100 98 94 85 88 86 86 84 92 98 99 98 99 94 64 57 85 100 96 99 98 77 75 77 72 66 60 53 51 49 43 30 21 19 20 23 26 34 43 47 44 38 35 42 98 100 100 100
100 100 96 96 100 100 100 100 95 91 94 87 82 77 82 87 98 98 96 80 64 76 100 97 97 99 88 79 80 84 81 73 62 53 49 51 50 33 23 22 21 24 28 34 46 52 61 60 61 67 99 100 100 100
100 100 100 100 100 100 96 98 97 92 92 85 76 77 77 78 78 88 90 77 75 100 100 99 96 88 77 75 80 80 77 75 68 57 56 63 55 36 25 22 24 29 31 37 48 55 65 83 100 100 100 100 100 100
100 100 100 100 99 94 88 96 97 96 94 87 78 80 75 67 82 92 87 77 98 100 100 99 88 85 72 74 80 76 70 71 69 63 75 72 56 41 23 24 28 33 34 42 49 67 82 86 96 100 100 100 100 100
100 99 100 94 82 90 91 91 91 95 93 82 80 82 73 69 73 73 78 84 98 100 100 90 85 74 71 76 76 80 79 74 72 72 76 68 52 30 23 26 30 34 35 47 54 61 84 94 92 93 100 100 100 100
100 94 89 94 98 97 88 90 93 90 92 81 73 83 89 91 83 71 79 97 100 100 96 90 81 74 74 79 84 86 79 75 72 77 79 63 43 31 26 27 29 35 42 59 59 64 76 86 90 97 100 100 100 100
95 85 75 84 100 92 86 91 95 92 87 79 91 92 90 86 86 99 100 95 82 74 70 66 67 70 78 90 95 88 77 74 77 79 68 52 36 29 25 22 26 36 56 69 81 82 72 89 93 100 100 100 100 100
78 75 74 76 92 98 88 82 96 89 78 94 100 100 99 100 100 100 90 68 66 61 58 61 65 74 82 85 83 78 77 77 74 68 51 38 31 26 21 18 23 42 65 75 94 82 87 100 100 100 99 100 100 100
71 63 77 81 76 84 98 100 99 93 98 97 99 97 99 100 100 99 90 70 64 63 64 68 79 87 91 88 81 76 77 73 65 49 38 31 24 19 16 21 37 69 92 100 100 96 100 100 100 100 100 100 100 100
62 65 67 76 79 82 92 98 87 90 89 93 99 100 100 100 96 87 80 74 70 68 71 85 92 88 82 76 78 74 71 60 44 32 24 18 14 17 25 43 82 98 100 100 99 100 100 100 100 100 100 100 100 100
60 61 66 82 91 95 98 86 77 82 97 100 100 100 96 81 72 66 70 77 81 94 100 90 83 88 83 78 74 60 42 31 22 16 14 16 26 36 56 98 100 100 100 100 100 100 100 100 100 100 100 100 100 100
52 60 94 100 100 100 100 100 99 100 100 100 92 80 74 66 56 64 88 100 99 87 83 85 81 74 73 62 44 28 18 14 13 19 30 46 61 87 100 100 100 100 100 100 100 100 100 100 100 100 100 100 100 98

GFSWCAN_500_rhum_099.txt.gz
RH
35 44 55 71 61 76 86 81 81 87 70 60 48 43 28 21 9 4 3 7 6 8 9 11 14 14 16 17 17 15 19 19 22 23 25 24 26 25 23 22 21 19 18 17 17 17 18 19 19 21 19 15 16 18
40 45 76 69 64 75 85 84 75 86 78 70 60 48 42 24 15 6 4 4 6 6 6 6 8 10 12 12 13 13 13 14 14 15 17 18 22 24 25 25 22 22 22 23 22 20 19 20 21 22 23 24 23 20
62 62 79 72 70 75 79 87 76 73 87 75 68 60 48 40 23 10 6 6 5 4 8 7 6 6 6 6 6 7 7 8 8 9 10 10 10 12 14 14 16 17 18 24 27 25 26 25 24 24 25 29 30 27
63 60 58 72 67 67 76 84 81 70 84 81 74 66 61 50 41 24 11 7 7 6 5 6 7 9 11 12 15 15 16 16 15 14 14 15 15 10 10 9 8 9 11 17 24 20 31 31 30 31 30 32 34 37
63 61 51 54 73 65 75 87 79 69 77 82 85 72 69 64 53 43 30 19 14 10 7 7 8 6 7 8 6 6 5 5 5 6 6 8 13 15 27 29 46 40 9 12 14 17 21 23 27 28 31 32 33 35
57 62 51 49 54 64 64 71 73 70 71 79 81 83 80 74 66 56 49 38 28 20 12 10 8 8 11 11 12 12 12 8 8 6 6 5 4 4 4 7 30 52 59 23 9 9 11 13 17 21 25 30 32 34
60 65 54 52 49 52 59 53 68 69 78 78 82 90 80 81 81 70 60 53 45 39 28 20 13 11 10 13 14 16 19 16 12 10 8 8 7 6 5 5 6 34 56 66 50 20 10 9 11 13 16 21 25 30
59 69 61 57 58 54 48 48 68 72 72 80 79 90 91 83 80 84 73 65 61 52 45 38 29 22 16 16 17 16 20 22 15 14 13 11 10 9 4 4 5 22 63 69 67 68 62 31 12 12 13 15 16 20
53 58 64 57 59 60 57 52 73 77 73 73 83 85 92 96 89 84 82 76 68 64 57 53 48 40 29 26 24 23 22 22 24 17 12 12 11 12 9 6 4 7 32 69 87 87 75 65 24 16 18 19 18 18
52 56 62 64 56 51 55 60 64 79 76 72 85 88 92 98 97 90 86 79 75 74 66 66 60 54 49 44 39 35 27 25 27 28 20 11 11 12 12 8 5 4 8 45 77 91 94 63 27 21 16 22 23 23
42 53 53 65 68 57 53 56 58 66 76 71 77 99 94 96 92 92 93 88 74 73 80 75 69 65 60 56 52 44 38 34 32 32 28 18 11 12 12 10 7 4 4 10 40 77 92 100 86 41 23 24 26 27
51 60 56 48 61 69 66 57 59 61 71 74 72 86 97 94 85 84 86 95 92 88 90 89 87 79 71 66 62 55 49 44 39 36 32 28 16 10 10 9 6 6 5 4 10 40 84 98 86 56 75 81 69 59
61 56 50 49 68 69 73 71 70 73 64 74 78 70 80 89 76 62 87 96 97 97 89 85 89 87 87 79 74 68 56 50 44 41 37 31 26 15 11 12 7 7 8 6 5 6 28 92 100 90 55 42 46 54
49 49 44 45 58 85 82 77 85 85 91 87 76 69 67 66 59 69 93 96 96 97 99 99 94 90 94 95 87 79 60 57 50 48 42 34 33 25 15 15 11 9 10 10 8 7 8 32 97 100 100 100 100 98
5 11 23 32 39 68 76 94 100 99 100 100 90 75 56 55 67 72 92 97 96 96 98 96 100 98 95 97 96 81 66 63 62 54 41 35 35 35 24 25 23 17 12 11 11 10 9 10 36 96 100 100 100 100
2 2 3 6 24 52 70 100 100 100 100 99 82 58 47 53 62 81 99 99 96 96 96 93 98 98 100 99 99 92 75 80 67 60 51 38 35 38 32 31 33 26 18 14 12 12 13 13 13 24 86 99 100 100
2 1 1 2 12 55 100 100 100 98 99 97 60 68 65 63 73 88 100 98 97 96 97 96 87 100 91 100 100 99 96 65 66 64 61 51 46 45 43 43 42 36 25 18 15 14 15 17 18 20 44 76 91 100
2 2 2 2 6 37 100 100 100 100 97 72 58 62 79 92 98 97 100 100 97 97 97 93 79 73 79 96 99 98 82 68 71 72 70 68 67 61 56 54 51 41 32 22 17 16 18 20 22 26 30 34 66 90
3 3 2 4 6 20 98 100 100 100 95 96 72 70 83 95 100 99 98 97 97 98 97 86 73 47 78 98 100 91 75 64 65 73 74 66 64 64 62 57 56 47 39 26 20 18 19 21 24 29 31 38 41 50
4 3 3 4 4 18 62 100 100 100 96 90 89 77 77 88 100 99 98 96 99 98 89 63 53 71 100 99 98 98 89 75 66 81 85 84 74 64 62 62 57 53 47 33 26 20 20 21 24 28 36 37 36 43
5 4 5 34 25 20 30 100 100 99 98 100 94 100 99 93 98 99 99 100 99 93 74 63 72 100 99 98 96 99 96 92 80 87 92 96 91 75 70 64 60 60 55 42 29 23 21 23 27 33 42 56 59 57
5 13 37 93 54 87 81 38 93 96 100 91 88 100 100 100 100 100 100 99 91 75 69 76 95 100 98 97 99 95 94 93 95 95 92 89 88 84 80 74 67 65 67 53 32 24 23 26 28 36 50 58 62 89
68 100 100 88 90 100 73 92 100 96 100 100 100 97 93 97 100 99 100 84 69 75 83 99 100 98 98 98 96 96 97 96 91 88 83 87 90 88 89 88 74 75 76 55 38 24 23 24 31 42 59 57 72 92
10 92 100 100 100 100 94 65 54 90 99 97 94 90 92 99 92 91 81 75 78 86 89 100 99 100 96 96 98 100 96 88 80 82 89 89 91 89 90 90 87 86 73 57 38 30 26 25 30 44 71 71 69 75
9 57 100 100 100 100 99 80 34 67 76 88 100 96 90 100 100 84 69 76 85 96 100 99 100 98 95 96 92 92 92 78 78 85 94 92 94 96 94 86 87 82 71 63 48 32 27 22 29 43 55 79 78 73
14 37 96 94 87 100 100 100 95 74 96 84 73 94 100 95 81 57 61 75 82 100 100 100 100 95 90 94 83 79 82 71 73 85 97 95 99 91 86 84 84 81 72 62 45 31 22 21 30 44 52 74 79 79
82 100 99 85 84 100 100 100 95 70 62 69 73 73 82 81 71 54 67 77 85 100 100 100 93 78 77 78 76 73 70 71 83 96 98 94 89 88 87 85 80 76 68 51 36 26 18 23 36 50 76 81 81 88
94 94 76 99 100 100 100 99 99 83 70 83 98 69 63 75 69 82 90 99 100 99 99 97 86 73 69 70 70 70 71 75 84 88 88 90 92 93 88 80 76 70 56 42 27 16 20 34 50 81 93 84 89 100
29 28 74 77 68 81 91 88 93 99 78 89 91 98 93 100 100 100 100 97 97 99 99 92 70 63 70 72 68 66 72 82 82 81 84 91 91 84 76 76 74 62 39 20 15 17 30 61 85 100 99 96 100 98
9 19 60 73 72 69 66 72 73 89 100 100 100 74 58 74 100 100 99 100 100 94 81 76 71 73 73 71 72 74 77 77 77 82 88 88 80 75 72 67 50 30 16 14 18 34 66 98 100 100 100 100 100 96
17 20 36 59 70 61 51 59 84 100 100 100 100 80 83 100 100 100 100 100 96 79 73 71 73 75 75 76 73 73 78 86 87 90 87 79 68 64 54 34 17 11 13 19 35 80 100 100 100 100 100 100 100 99
24 27 28 47 68 54 56 65 74 93 100 100 100 100 100 100 98 100 100 99 91 85 79 72 74 79 74 71 72 79 82 83 78 74 69 65 61 42 18 11 12 16 26 53 99 100 100 100 100 100 100 100 100 100
48 28 18 34 41 46 49 71 89 81 93 100 100 100 100 98 94 96 100 99 100 98 81 79 77 72 68 68 71 74 75 72 70 69 64 39 15 10 11 16 24 42 82 100 100 100 100 100 100 100 100 100 100 100

GFSWCAN_500_rhum_102.txt.gz
RH
77 70 68 69 66 56 76 73 75 73 80 76 67 63 48 37 24 10 6 4 4 7 6 7 8 10 12 12 14 13 14 11 14 14 13 14 14 14 16 17 18 20 21 20 21 20 20 19 19 20 21 21 22 21
75 69 65 61 58 60 71 70 75 73 76 75 74 65 61 48 34 20 8 6 6 5 6 7 6 6 6 6 6 6 6 7 7 9 12 12 15 15 16 14 12 11 12 14 16 20 21 26 26 23 21 22 23 25
69 64 58 59 56 53 58 58 68 71 74 77 77 71 62 58 48 34 15 8 8 7 6 6 7 8 8 9 10 10 10 8 8 6 6 6 6 5 6 7 10 27 38 34 15 12 15 19 22 25 29 27 25 26
60 63 57 50 51 56 56 54 66 64 73 82 75 76 68 62 57 50 39 23 12 12 8 7 7 6 8 8 6 8 8 7 6 7 7 8 7 8 7 6 6 5 5 9 16 29 22 11 11 14 18 22 27 30
56 63 60 52 46 53 54 51 50 64 70 85 82 72 74 70 65 60 55 48 34 23 18 10 10 8 8 12 10 11 15 15 11 10 11 9 10 10 10 7 6 5 5 4 8 16 26 46 20 11 11 13 15 18
50 59 60 52 56 51 51 52 50 66 65 60 63 82 77 69 77 74 67 63 54 46 34 23 17 11 9 10 12 13 15 18 21 19 17 15 15 13 12 12 10 8 6 6 6 10 33 37 42 50 14 10 11 13
43 50 62 58 61 59 50 54 54 54 54 58 54 56 77 79 74 77 78 73 67 59 52 44 32 26 16 14 11 11 14 17 19 22 23 22 20 16 14 14 14 11 10 6 5 4 10 19 53 65 73 49 16 13
42 47 55 60 59 62 59 51 58 60 58 55 51 47 70 75 85 87 83 80 77 70 65 58 56 50 39 30 23 20 19 20 22 20 24 27 24 18 14 15 16 15 12 10 7 5 4 6 17 43 71 86 69 30
36 35 48 54 60 59 58 60 57 59 66 62 59 59 69 77 75 78 85 90 85 80 70 69 74 67 58 56 48 37 35 34 33 26 22 28 30 26 15 11 13 15 12 13 12 10 8 6 5 8 42 63 86 89
45 40 34 49 53 56 55 61 64 56 57 63 64 62 65 71 76 70 72 81 86 85 78 80 86 82 74 70 62 61 56 52 47 38 31 30 31 31 27 22 11 12 12 11 14 13 10 9 6 5 6 25 64 81
56 49 45 39 45 57 56 51 62 64 53 55 57 57 65 69 68 70 67 64 78 90 83 94 96 94 91 83 81 77 73 70 62 54 46 41 39 36 32 29 25 12 18 13 11 12 13 11 11 7 6 7 29 60
52 56 68 68 45 39 71 68 49 54 60 61 59 61 60 63 63 61 56 60 80 94 91 97 96 96 90 84 81 80 85 82 77 71 61 48 47 42 38 32 29 23 17 22 15 11 10 11 12 11 10 8 8 28
30 53 74 80 93 78 44 74 75 59 56 64 70 56 56 58 53 45 48 57 75 86 97 95 97 96 97 97 87 84 80 85 86 83 74 62 50 48 43 38 36 36 28 29 28 18 12 10 10 10 12 12 9 9
3 4 7 11 23 77 100 91 82 86 77 91 100 90 57 48 39 42 55 62 73 84 89 92 96 96 96 96 95 91 85 82 80 81 91 80 64 72 54 44 41 39 39 34 36 33 25 16 13 12 12 13 13 12
2 2 2 2 10 26 87 100 98 100 98 100 100 100 52 46 46 42 45 63 83 90 96 99 96 95 97 93 85 78 84 84 88 95 90 87 79 96 80 58 49 44 46 43 43 40 34 27 19 16 15 15 16 19
2 2 2 2 2 9 17 22 59 99 100 100 100 79 51 46 47 48 54 70 90 100 99 91 96 98 97 92 78 69 78 92 95 82 72 69 79 94 89 76 62 54 51 46 44 47 43 35 27 21 18 18 19 22
3 2 2 2 2 3 3 5 8 17 43 92 93 68 55 44 48 59 56 70 93 99 99 99 92 100 89 80 66 67 93 96 94 85 68 64 72 90 97 89 74 68 59 51 49 49 50 45 35 27 22 21 20 23
4 3 3 3 3 3 4 4 5 13 97 25 64 70 73 72 70 76 79 90 100 100 100 96 100 91 72 59 66 88 99 98 98 86 68 62 60 75 97 96 92 85 71 62 58 55 53 53 49 42 30 24 23 24
4 4 4 5 17 10 13 5 9 11 16 12 67 88 81 76 76 100 100 100 100 100 100 95 91 62 62 79 92 99 97 100 98 88 75 63 61 74 96 98 94 97 95 84 75 66 61 61 62 61 44 27 23 24
6 6 6 6 8 17 23 94 27 42 57 13 78 100 92 92 100 100 100 100 100 100 100 74 67 78 81 87 98 97 98 98 98 94 81 76 69 75 97 100 100 97 99 95 85 81 78 73 73 71 54 31 26 25
6 6 5 5 32 44 100 100 100 94 24 23 90 100 100 100 100 100 100 100 100 99 84 75 85 89 97 93 95 99 99 98 98 96 88 89 96 93 98 100 99 97 100 97 93 94 95 90 86 81 55 33 29 27
8 8 7 16 16 38 80 95 86 82 57 15 11 72 100 100 86 91 100 100 99 83 79 96 97 100 100 95 98 100 94 96 98 97 98 97 96 99 100 100 97 97 95 95 92 90 96 99 93 80 59 44 31 27
11 10 11 13 24 62 92 87 68 65 54 36 17 20 54 91 99 98 100 97 84 76 88 100 100 100 97 98 98 94 98 99 99 99 98 90 88 94 100 100 98 95 92 98 89 93 99 95 90 81 69 49 31 29
13 13 17 100 100 96 99 80 35 50 93 98 90 87 22 24 71 99 92 84 82 85 99 100 100 100 98 96 92 100 100 97 93 87 89 80 78 97 99 100 99 96 88 86 91 100 99 89 90 84 70 46 28 27
14 16 13 36 71 78 96 90 68 60 59 82 81 99 60 41 38 29 56 81 87 95 99 100 100 100 100 96 99 100 100 96 91 84 81 82 94 94 99 100 96 91 84 79 98 100 98 89 90 81 64 43 23 26
13 19 21 21 23 22 23 90 99 96 79 68 62 79 90 100 100 24 16 76 92 96 100 100 99 99 98 100 96 98 99 86 73 68 99 99 93 91 100 99 93 95 83 85 100 100 97 95 87 73 57 26 20 28
44 14 14 15 13 10 16 59 71 85 94 99 89 97 100 100 87 30 34 73 80 98 100 100 100 100 100 100 95 89 81 80 81 85 97 99 100 98 96 94 92 85 82 90 98 99 98 90 82 56 25 17 23 37
72 17 12 12 13 11 10 9 15 33 85 91 97 100 100 99 80 75 66 65 57 85 100 100 100 100 99 98 92 84 78 81 82 88 98 100 96 92 82 76 77 82 86 90 97 96 90 74 45 20 14 18 34 60
20 17 16 16 14 11 10 9 8 15 49 81 84 99 100 100 92 79 71 58 83 98 85 96 98 87 92 92 90 92 92 93 98 99 98 97 92 79 77 77 77 82 89 92 92 85 63 32 15 13 16 29 57 100
23 23 20 17 15 13 10 9 17 46 37 67 82 100 99 88 93 79 66 80 88 94 70 85 92 93 100 98 94 94 100 100 99 97 98 98 87 78 73 77 87 92 94 87 77 49 20 11 12 18 35 68 100 100
16 17 16 15 13 11 11 15 17 47 84 77 71 95 99 100 100 87 64 100 100 97 69 77 98 99 100 100 100 100 100 99 98 99 100 89 76 70 71 81 88 87 83 61 27 15 12 14 22 43 84 100 100 100
12 11 10 11 12 16 15 16 16 41 69 64 80 98 100 100 96 100 100 100 100 93 100 100 100 100 100 100 98 97 98 95 98 98 80 67 67 71 79 85 85 68 36 18 13 13 18 28 56 95 100 100 100 100
45 30 23 20 24 25 32 29 18 17 64 60 73 77 95 93 82 99 100 100 99 94 99 77 88 100 98 100 100 100 100 99 92 74 62 64 66 74 80 69 43 19 12 12 17 26 39 67 100 100 100 100 100 100

GFSWCAN_500_rhum_105.txt.gz
RH
71 61 57 66 63 61 64 62 55 67 68 72 67 64 62 63 51 35 16 8 7 6 5 6 6 7 7 7 8 8 8 9 9 12 15 15 10 9 8 9 9 8 8 8 10 17 18 17 14 16 20 24 24 22
65 60 58 64 61 57 57 53 52 54 58 67 66 68 62 62 61 51 38 17 9 8 7 6 6 7 7 8 9 10 10 10 8 7 8 6 7 7 9 8 7 6 6 6 6 8 15 24 36 26 14 12 13 17
57 55 56 64 58 53 56 49 49 46 54 64 66 68 73 61 60 60 55 44 23 12 12 9 7 6 6 8 6 7 9 8 8 7 8 8 8 9 10 11 9 9 8 8 6 6 5 6 14 36 46 33 16 11
57 56 57 57 52 47 56 56 45 45 49 47 61 65 75 67 63 62 59 58 51 38 25 19 12 9 8 8 11 10 10 14 16 16 14 12 13 13 13 12 13 12 11 10 7 7 6 4 4 6 14 35 51 41
51 54 55 58 49 41 48 52 48 43 47 51 52 74 69 66 71 69 67 65 64 59 50 40 28 21 13 9 8 10 12 13 15 18 19 22 22 21 19 12 13 15 16 12 10 9 8 6 5 4 4 7 18 42
63 65 58 58 56 44 44 42 56 48 47 51 53 55 70 64 59 62 72 75 74 70 64 58 52 43 33 25 16 10 10 11 12 14 16 18 21 23 26 23 15 13 16 16 13 12 11 9 8 7 6 5 5 10
72 72 72 68 60 44 49 45 50 58 53 49 49 54 50 60 61 56 63 67 77 81 76 68 64 62 57 46 39 32 20 17 15 14 14 18 21 22 25 30 27 15 12 15 16 13 13 11 8 8 7 6 5 6
54 66 72 71 70 52 42 46 45 57 63 57 49 52 55 52 52 53 54 58 66 74 83 82 76 80 73 65 58 54 48 42 35 33 28 26 30 30 27 29 31 30 26 16 14 17 13 14 14 11 7 8 8 8
46 57 60 60 64 53 46 50 46 47 51 59 56 53 52 60 58 53 49 49 60 69 66 85 96 94 85 78 70 65 61 59 56 54 50 48 47 43 35 33 34 35 33 29 21 15 21 16 14 14 14 13 14 13
56 51 53 56 62 57 51 55 54 43 38 41 54 57 52 56 57 59 47 43 43 50 56 70 94 93 93 91 80 71 64 66 64 67 65 64 62 64 52 46 39 38 37 34 32 30 22 27 20 12 12 14 13 14
35 42 51 56 54 56 65 68 63 51 40 36 42 52 56 56 56 54 47 33 29 31 50 70 79 82 93 96 98 93 81 77 72 72 74 70 79 89 78 61 44 42 42 40 37 37 34 32 31 28 18 12 12 11
21 25 31 42 45 50 62 71 70 63 50 44 38 49 62 62 58 54 44 38 32 31 53 65 74 76 83 92 96 94 97 83 79 78 79 70 97 89 83 73 60 53 54 49 44 40 41 39 36 34 33 27 16 15
8 16 26 30 35 38 55 82 94 84 68 52 57 58 52 60 64 45 42 41 42 50 51 58 67 69 73 76 85 93 85 76 78 73 76 92 91 93 93 95 88 76 67 61 56 51 46 46 44 39 38 36 32 27
2 2 4 13 24 19 21 32 99 100 100 100 96 77 79 51 29 31 43 45 48 52 58 59 60 71 71 71 71 76 74 68 61 77 92 96 92 92 96 97 96 91 82 70 65 66 60 56 51 44 45 46 42 38
4 4 3 3 3 4 4 5 10 21 63 100 100 100 69 45 38 30 32 52 64 62 68 78 73 74 84 83 72 66 67 61 63 86 95 98 95 90 92 95 97 91 82 77 78 78 72 66 57 53 51 51 51 48
4 4 3 4 4 4 4 4 4 3 7 20 79 98 56 47 46 34 45 62 83 90 89 84 85 96 81 92 72 57 48 62 85 93 95 96 93 92 86 88 96 97 92 86 81 82 81 76 70 65 67 62 61 58
4 3 4 4 5 5 5 5 5 4 4 5 10 20 19 14 41 46 66 85 100 100 100 100 100 100 100 86 64 56 59 100 94 89 96 96 98 93 83 81 88 98 96 92 88 89 89 89 85 82 86 82 76 75
4 4 4 6 7 6 6 8 9 29 7 3 3 3 3 7 21 54 90 100 100 100 100 100 100 100 92 73 60 78 100 100 100 94 94 100 97 87 78 71 71 92 98 94 98 98 95 95 96 92 96 98 98 92
5 5 6 8 9 8 10 11 12 33 6 6 3 3 3 3 5 14 36 100 100 100 100 100 100 95 78 71 84 100 100 100 98 90 96 100 96 93 85 76 71 79 98 99 99 98 98 98 96 94 98 100 100 95
8 8 10 11 12 12 15 21 36 90 89 24 14 5 4 3 3 4 11 61 94 100 100 100 94 83 81 88 100 100 100 100 93 89 100 100 97 92 88 85 86 95 96 99 99 98 98 100 99 94 100 100 100 95
14 14 17 13 16 20 21 27 31 37 41 40 46 75 36 15 5 4 18 98 78 87 98 98 96 100 100 100 100 100 100 98 100 100 93 98 99 94 98 94 96 95 97 100 100 99 98 100 98 98 100 100 100 99
18 20 18 17 22 29 24 15 12 49 100 91 88 54 31 49 34 15 34 48 26 23 93 100 100 100 100 100 100 99 99 100 97 97 100 100 98 100 98 100 95 95 99 100 100 98 98 100 100 100 100 100 100 98
19 20 18 21 37 65 42 22 13 42 38 28 29 87 97 80 72 57 59 33 13 29 95 100 100 100 98 98 96 100 100 100 100 100 96 92 82 86 97 97 98 99 94 99 99 97 100 100 100 100 100 100 100 100
26 23 23 34 33 37 67 51 16 16 13 11 42 83 69 70 72 76 68 34 16 22 30 54 85 98 96 98 92 94 99 98 100 100 98 92 81 87 82 79 90 100 98 96 99 100 100 100 100 100 100 100 100 100
46 61 40 70 33 38 44 58 94 100 53 16 42 80 94 76 57 46 52 72 80 58 42 45 33 46 83 100 100 100 100 97 94 99 99 91 76 75 80 92 98 100 100 97 100 100 100 100 100 100 100 100 100 100
91 78 84 37 24 24 30 50 60 55 32 62 100 100 83 82 88 51 64 78 68 67 75 78 44 19 29 85 100 100 100 96 89 83 99 93 84 79 88 90 100 100 92 96 100 100 100 100 100 100 100 100 100 97
89 39 32 32 52 61 24 23 27 38 38 27 40 96 100 100 95 76 68 66 61 74 80 67 61 66 58 38 91 93 100 86 78 84 93 85 74 74 84 94 91 90 97 100 100 100 100 98 99 100 100 98 94 82
74 73 67 48 33 20 21 20 18 14 14 16 18 27 65 93 78 88 100 100 100 100 100 100 99 100 97 88 93 85 86 86 97 97 90 82 71 74 82 85 87 96 96 100 100 100 98 100 100 100 96 88 79 51
85 83 90 92 60 25 18 14 12 12 11 12 14 18 19 24 40 68 94 100 99 92 100 100 97 93 74 61 60 61 90 97 99 100 91 82 76 86 94 99 95 93 99 100 100 98 100 100 98 88 81 68 34 16
41 42 55 67 58 39 15 11 11 11 12 12 13 14 14 11 11 18 52 78 98 100 100 99 95 86 67 51 61 56 83 90 100 98 75 81 94 100 100 100 100 100 100 100 95 96 98 90 81 73 45 18 14 18
45 54 44 40 32 22 15 13 13 12 12 12 13 11 12 14 12 8 35 53 70 100 100 100 100 74 61 66 62 69 68 91 98 82 97 100 100 100 100 99 99 100 100 96 94 87 77 68 40 17 12 15 28 44
41 38 36 32 28 27 26 22 20 19 18 18 16 16 15 14 10 10 28 39 68 100 100 100 100 100 100 91 88 80 85 93 83 93 100 100 100 100 100 100 100 100 95 83 80 66 30 15 13 15 25 38 62 97
34 27 25 24 22 23 24 24 23 22 21 19 16 15 14 12 8 24 49 68 99 100 86 98 100 98 93 90 93 99 89 87 82 97 100 100 100 100 100 100 100 90 82 62 27 16 13 14 22 42 58 84 100 100

GFSWCAN_500_rhum_108.txt.gz
RH
32 46 59 75 72 66 58 52 55 55 52 49 51 56 67 64 57 58 55 38 23 15 9 7 6 6 6 7 7 8 8 9 7 7 7 7 7 8 9 11 12 10 10 9 8 7 7 6 5 4 5 12 28 21
41 56 69 70 72 60 54 52 50 46 50 46 47 48 57 64 67 54 55 57 48 33 20 13 11 7 7 7 8 6 7 8 9 10 8 8 10 10 11 13 13 13 14 14 12 8 9 8 7 6 5 4 6 20
59 66 66 66 62 56 53 52 54 51 38 42 40 42 48 58 70 70 55 56 55 56 45 39 30 22 11 9 7 9 9 10 12 14 18 18 19 19 19 18 18 15 14 16 16 13 11 10 9 9 8 7 5 4
64 70 58 56 61 57 54 53 52 54 43 39 36 37 43 49 71 90 80 66 62 56 58 57 49 44 40 32 20 12 9 10 11 12 13 14 16 19 21 23 24 26 20 18 18 18 16 14 12 11 10 9 8 7
74 64 66 59 50 55 54 51 54 55 48 39 40 41 39 43 50 67 70 83 68 67 66 64 66 65 61 56 49 40 26 18 10 10 11 11 12 13 17 19 22 25 29 27 17 15 18 19 16 13 12 11 10 9
61 65 56 61 55 56 63 62 52 57 58 50 37 35 38 37 40 44 46 63 65 60 58 87 84 87 84 80 72 64 56 45 35 30 19 17 15 21 24 22 27 30 28 30 30 24 19 16 20 17 14 13 10 11
54 50 50 52 57 54 62 62 59 64 69 60 50 39 32 39 39 41 40 42 45 51 55 53 65 85 88 86 91 84 77 68 56 50 47 42 39 40 40 38 42 44 40 32 33 32 29 24 16 19 20 14 14 14
53 55 52 44 43 49 58 63 60 68 67 71 64 45 36 32 39 52 41 41 42 40 45 48 60 69 72 84 86 80 80 74 72 66 62 60 55 58 60 61 66 68 59 49 43 39 36 33 32 26 26 28 16 13
44 43 47 47 45 47 50 52 58 62 70 75 72 64 48 42 38 47 44 39 37 34 29 38 59 55 62 65 66 67 73 82 69 73 71 66 68 92 72 81 78 75 72 68 59 47 43 39 37 37 35 33 31 29
67 56 57 54 46 45 48 45 45 50 49 54 64 65 58 56 50 44 38 32 28 26 24 38 57 56 56 57 57 55 52 67 61 72 74 68 72 93 74 71 70 72 77 80 77 61 49 51 45 41 41 41 39 34
48 63 62 61 56 62 59 54 51 43 45 51 52 51 53 56 58 58 49 40 34 28 28 33 46 59 60 58 59 57 53 51 44 55 79 66 79 94 85 77 77 76 81 86 89 79 71 73 72 57 48 47 50 46
23 24 33 25 20 20 27 23 25 29 32 37 39 43 47 50 47 51 46 41 40 39 35 39 47 49 54 58 63 58 62 56 48 45 48 64 93 88 88 90 83 78 78 81 85 87 91 88 87 73 68 63 61 55
7 9 7 6 4 5 6 8 12 15 23 41 40 59 74 71 60 29 25 26 34 44 42 43 43 47 48 61 61 62 58 56 54 45 39 75 74 85 93 98 94 88 85 84 80 76 79 83 82 80 78 75 74 67
4 4 4 3 3 3 4 4 4 6 9 16 26 52 78 87 30 25 31 36 40 44 50 58 58 55 57 76 76 61 59 53 48 44 59 83 70 73 89 87 87 92 88 88 85 79 74 78 86 90 86 85 90 95
6 5 5 4 4 5 5 5 5 5 5 5 7 12 19 24 41 48 64 68 69 67 85 95 92 100 100 100 100 96 84 54 42 59 90 82 77 72 81 93 90 92 90 88 90 88 80 78 83 83 86 92 98 98
6 7 6 6 6 6 7 8 8 8 7 6 4 3 3 8 14 23 66 90 95 98 98 100 100 100 100 100 100 100 92 73 88 100 94 87 76 77 82 99 96 92 88 83 86 95 89 84 78 81 93 93 98 98
6 4 4 5 5 5 7 8 10 8 8 6 3 3 3 3 4 7 13 26 63 88 92 100 100 100 97 100 100 91 79 98 100 100 95 90 92 100 100 97 90 85 88 87 84 91 98 92 88 90 91 90 100 98
5 4 5 6 6 6 7 10 10 8 6 4 4 3 4 4 3 3 3 4 6 10 24 93 100 100 100 100 91 87 87 95 100 100 97 92 96 100 100 100 96 84 87 88 85 91 98 97 100 98 95 93 100 99
6 6 7 7 8 9 10 10 12 9 4 5 4 4 4 4 4 4 4 4 4 4 6 8 16 58 68 84 100 100 100 99 97 99 83 82 100 100 99 98 94 91 93 94 93 96 99 99 99 99 96 95 100 100
12 11 10 12 15 16 17 15 14 13 6 4 5 4 5 5 4 4 4 4 6 7 5 4 4 6 12 28 100 100 97 94 87 82 83 84 97 100 98 97 94 96 95 99 97 99 99 99 100 99 96 99 100 100
27 19 20 21 23 28 23 21 15 13 11 7 5 7 6 7 9 8 11 21 49 42 18 6 4 3 4 13 71 100 84 87 84 73 85 92 98 100 100 100 100 94 93 97 99 100 98 100 100 100 98 100 100 100
36 44 38 43 46 40 26 18 16 15 15 9 9 11 9 6 6 9 20 64 70 39 37 25 14 12 8 22 53 64 71 100 100 100 93 92 90 99 100 100 98 96 98 97 92 98 100 100 100 100 100 100 99 100
49 47 48 51 56 49 21 22 19 17 16 12 13 12 10 10 10 19 49 64 56 74 94 100 90 68 50 52 56 21 26 86 100 100 99 100 100 100 100 100 100 99 88 87 98 98 100 100 100 100 100 100 100 100
67 79 86 89 67 42 26 22 23 23 20 18 16 13 12 12 20 72 73 53 63 100 100 86 88 100 98 64 32 26 16 63 86 88 100 90 60 88 100 100 97 90 99 98 88 99 100 100 100 100 100 100 100 100
99 100 92 61 50 46 47 32 43 48 46 87 69 32 22 15 12 16 10 7 59 92 79 60 55 56 85 92 80 78 83 34 39 78 81 100 100 63 55 74 96 100 100 93 88 93 100 100 100 100 100 100 100 100
99 57 43 41 55 68 58 54 47 36 34 42 48 47 58 95 72 14 21 43 76 100 100 88 67 65 71 72 69 74 80 58 20 10 35 86 98 99 100 84 82 89 91 83 85 100 99 100 100 100 100 100 100 100
95 52 53 59 70 99 100 77 66 34 22 25 24 26 44 100 91 46 87 93 100 100 98 100 100 98 88 69 70 85 75 65 59 44 65 51 95 97 87 92 78 73 68 70 88 99 100 100 100 100 100 100 100 100
100 100 93 71 97 100 97 86 78 58 35 32 44 85 82 76 42 46 82 98 100 100 100 89 99 100 100 100 100 90 97 100 100 100 100 84 79 86 77 80 100 100 86 82 99 100 100 100 100 100 100 100 100 99
67 77 99 100 98 100 100 80 40 52 50 40 27 22 27 34 37 45 58 56 29 43 38 49 75 87 89 98 100 100 100 93 83 100 100 100 91 55 54 68 100 95 96 100 100 100 100 100 100 100 100 100 96 89
48 61 83 92 100 100 74 85 81 60 49 53 51 38 23 16 15 17 16 18 17 14 13 16 49 50 51 91 100 100 100 100 100 99 96 78 72 85 83 98 100 100 100 100 100 100 100 100 100 100 99 85 79 76
49 53 66 72 68 61 53 71 100 100 100 55 28 20 13 13 13 12 11 11 12 11 10 10 20 29 45 69 100 97 93 96 100 100 100 100 97 98 100 100 100 100 100 100 100 100 100 100 100 96 82 70 42 18
61 76 80 81 81 84 80 80 84 100 100 85 53 50 30 22 10 9 10 11 11 9 9 9 12 31 46 68 99 100 92 95 100 100 100 100 100 100 100 100 96 100 100 100 100 100 100 99 94 78 43 18 14 16
100 100 100 100 93 74 66 65 53 52 45 35 29 27 20 13 10 9 9 9 8 10 12 10 12 51 54 70 99 100 100 100 100 100 100 100 100 100 100 100 100 100 100 100 100 100 100 97 53 21 15 15 22 38

GFSWCAN_500_rhum_111.txt.gz
RH
9 9 15 9 13 20 40 65 62 54 48 43 42 48 46 48 55 66 59 52 54 45 42 29 16 12 9 7 7 7 7 8 9 11 12 10 10 10 13 13 18 19 19 16 17 17 15 15 12 10 10 9 8 7
8 15 35 65 67 54 53 61 62 54 55 49 43 41 36 39 47 56 68 60 54 54 51 47 46 38 32 22 10 9 8 8 9 11 13 14 16 17 19 20 21 21 23 24 22 19 18 18 18 15 12 11 11 10
10 14 33 63 68 62 60 58 57 57 54 54 47 50 47 35 38 49 63 75 86 68 64 59 57 60 60 48 45 43 33 20 12 10 10 11 12 12 14 15 16 18 21 25 27 27 24 21 17 19 19 15 13 13
64 75 75 78 85 71 65 57 51 53 53 50 51 52 48 46 37 35 47 54 69 78 80 71 72 74 70 70 69 68 63 56 49 40 31 19 14 13 12 13 14 19 26 29 31 30 29 28 25 22 18 20 20 16
76 71 74 80 87 82 79 65 54 52 48 46 46 46 42 49 46 44 36 36 43 48 59 74 71 72 76 78 75 79 82 81 65 64 60 55 50 44 43 38 31 36 40 41 42 44 37 32 32 29 27 22 20 22
88 79 79 76 87 78 66 69 63 56 48 44 46 49 48 41 50 50 46 40 36 35 38 48 52 53 59 59 52 70 81 82 73 75 70 68 66 57 52 58 62 59 59 58 59 62 60 51 43 37 34 32 31 25
97 91 98 93 84 76 71 67 61 57 56 46 39 40 50 51 46 49 51 43 36 32 27 28 49 52 51 50 52 52 57 64 65 67 74 76 73 61 60 71 71 73 77 76 74 75 74 68 62 50 42 39 36 36
94 82 74 76 77 76 72 63 60 59 54 50 45 39 39 44 49 61 60 47 36 28 23 19 24 55 52 52 51 52 50 47 46 46 52 61 66 82 75 65 74 68 69 70 71 73 73 72 76 72 55 48 46 42
73 82 78 64 60 60 60 56 54 56 56 57 53 47 40 35 36 46 57 58 39 29 21 17 20 35 37 52 50 44 45 44 35 38 45 38 58 89 62 74 66 68 73 76 73 72 73 77 84 86 75 66 72 67
74 67 58 64 72 64 49 48 52 50 54 52 48 44 44 41 41 40 37 39 47 43 30 27 43 38 36 40 49 52 42 40 36 30 35 33 42 78 59 66 75 75 76 77 80 75 77 82 85 83 89 94 93 89
68 76 84 75 74 77 69 69 60 64 70 61 50 46 46 45 42 39 34 30 32 30 30 31 48 50 49 48 55 56 47 42 36 33 36 31 40 64 62 56 63 67 68 74 77 81 83 85 87 85 82 83 88 91
32 35 58 51 60 79 67 57 53 51 51 51 51 49 45 40 34 37 32 27 28 30 30 33 37 46 50 51 56 53 49 45 40 33 30 27 54 62 65 59 59 66 68 71 74 82 83 86 91 88 84 80 83 89
6 10 15 12 22 13 12 13 14 17 17 15 16 23 29 29 28 23 20 21 29 35 36 36 37 44 60 82 80 79 62 50 48 45 34 33 60 70 76 68 68 65 69 76 80 82 86 91 90 93 93 89 91 96
4 4 4 4 3 4 4 4 5 5 6 6 6 7 11 15 17 16 18 21 26 34 41 45 56 73 84 100 100 100 99 83 67 51 57 74 58 69 70 74 78 74 76 80 82 89 89 88 88 92 91 91 94 96
6 6 6 6 5 6 6 6 8 7 7 6 6 5 5 6 7 7 8 11 17 27 37 52 90 100 100 100 100 100 100 100 96 89 100 76 95 92 95 84 76 90 98 85 80 79 81 80 88 94 94 92 97 98
6 6 5 6 6 7 9 10 11 11 11 9 6 3 2 2 2 3 3 3 4 6 10 16 23 44 81 100 100 100 100 96 98 100 100 100 100 100 99 85 87 98 99 97 91 93 90 84 88 94 98 98 100 99
6 5 5 6 6 6 10 13 14 13 13 9 4 4 4 4 3 3 4 4 4 4 4 5 6 9 20 76 92 100 92 88 100 99 100 100 100 100 100 100 100 100 92 94 87 85 88 90 94 88 90 97 100 100
6 5 5 7 8 7 8 15 16 11 8 5 4 3 4 4 4 4 4 5 6 6 6 5 5 7 9 10 12 17 42 62 70 95 99 89 97 99 99 100 99 92 82 90 92 88 89 88 90 96 95 93 100 100
9 14 14 15 16 18 13 15 19 14 6 4 4 4 4 4 4 4 4 5 5 7 7 6 7 4 3 4 4 4 5 6 34 69 78 88 97 94 93 94 98 100 100 100 98 98 89 82 88 97 99 98 98 100
42 31 23 23 24 25 26 20 16 13 6 4 5 4 6 5 4 4 4 4 5 8 7 5 4 4 4 3 4 4 4 4 4 4 10 30 60 92 100 99 90 87 82 86 96 99 95 91 87 90 98 98 97 100
100 94 81 88 91 91 70 55 18 10 8 7 5 6 6 5 5 6 6 6 8 7 6 5 5 5 8 17 28 34 27 19 8 4 4 6 82 100 90 74 79 82 70 69 92 100 99 95 97 100 99 100 100 100
100 100 100 100 100 100 100 84 33 20 19 12 10 12 11 9 7 6 7 10 7 5 5 6 20 39 49 63 60 100 69 21 12 8 7 23 75 73 49 96 88 92 100 88 87 96 94 95 89 99 100 100 100 100
100 100 100 100 100 100 63 62 61 34 27 16 23 26 17 14 12 12 13 9 6 5 6 10 11 28 92 100 100 89 90 86 71 54 26 17 28 28 33 99 100 81 97 100 100 100 99 100 100 100 100 100 100 100
100 100 100 100 100 82 66 63 45 46 41 38 38 32 15 14 14 15 15 9 6 7 9 9 64 100 100 99 88 96 90 88 77 80 80 43 32 18 20 91 94 80 72 53 63 87 100 100 100 100 100 100 100 100
100 100 100 100 100 88 79 56 50 48 35 38 40 26 20 20 20 21 17 12 9 9 14 16 95 100 89 97 83 66 45 43 63 77 49 52 52 40 30 71 93 92 100 98 100 100 97 99 100 100 100 100 100 100
100 100 100 97 94 77 59 51 38 37 47 50 48 40 50 62 80 66 38 31 41 74 56 24 38 58 51 81 78 90 100 79 61 54 57 68 73 73 62 45 90 83 74 90 100 100 100 94 89 100 100 100 100 100
100 99 93 94 89 65 57 38 40 44 45 49 50 86 100 93 83 70 40 43 100 100 100 100 100 100 95 86 82 79 100 100 96 96 100 100 96 83 65 37 48 57 95 100 100 100 100 100 100 100 100 100 100 100
87 86 81 70 68 66 65 68 57 72 68 88 100 100 94 55 22 18 22 26 96 100 100 100 100 100 92 97 93 92 100 95 87 98 100 100 100 100 100 98 80 59 91 100 100 100 100 100 100 100 100 100 100 100
86 84 89 88 87 87 76 66 57 54 75 100 100 100 100 87 38 40 55 100 85 78 85 97 99 90 84 60 71 59 58 75 80 91 98 92 98 100 98 98 100 100 100 100 98 97 93 100 100 100 100 100 96 99
78 93 94 94 94 92 79 75 71 100 100 100 100 100 73 44 66 69 37 43 43 48 53 54 43 21 15 13 15 17 25 66 82 92 100 100 93 89 99 100 98 100 100 100 100 100 100 100 100 98 94 96 100 100
96 85 92 97 87 67 87 100 100 100 100 100 100 100 81 62 42 49 35 22 23 24 20 20 22 17 13 10 10 12 27 39 67 87 100 100 100 100 100 100 100 100 100 100 100 100 100 100 99 100 99 100 100 100
100 100 95 90 84 87 86 100 100 100 96 85 65 77 92 96 48 22 23 24 19 17 14 13 13 12 12 9 8 10 26 44 53 82 100 100 100 100 100 100 100 100 100 100 100 100 100 98 97 100 100 100 100 87
100 100 100 97 60 44 47 59 63 80 85 79 72 80 67 48 27 15 38 44 42 38 27 17 13 11 9 8 7 8 14 29 52 88 100 100 100 100 100 100 100 100 100 100 100 100 98 99 100 100 100 98 69 24

GFSWCAN_500_rhum_114.txt.gz
RH
10 11 10 9 9 8 8 8 19 46 50 56 57 48 45 40 38 38 46 63 72 65 71 66 62 54 45 36 35 22 14 11 10 9 9 11 13 16 15 17 17 16 18 18 22 25 26 28 27 22 20 20 18 17
10 10 8 8 8 9 9 9 22 44 48 57 56 56 50 48 43 42 37 44 69 77 90 72 83 82 67 61 59 51 56 60 57 45 28 22 14 12 11 12 13 13 13 19 20 24 29 35 33 30 29 26 24 22
8 8 7 7 9 12 12 11 33 60 55 54 55 55 55 51 49 46 43 38 37 58 79 79 78 91 92 82 83 92 89 76 79 77 76 73 66 60 50 42 36 29 31 37 39 33 45 45 45 43 36 34 31 28
12 12 13 17 28 33 46 60 52 53 66 55 60 51 55 53 48 46 40 43 44 40 38 40 55 72 74 74 73 71 75 71 67 75 83 84 79 75 74 74 87 79 70 55 56 58 59 58 60 66 59 49 40 36
38 53 74 76 66 51 67 70 69 68 68 72 74 51 49 50 48 50 46 40 34 37 43 45 41 40 44 46 46 50 56 52 52 54 59 73 79 83 80 76 96 92 78 57 58 57 65 72 73 78 73 65 58 49
96 95 85 82 88 80 73 73 70 74 72 77 76 73 56 52 46 41 40 40 43 40 35 38 47 48 44 44 43 44 45 43 39 40 49 51 56 59 51 50 95 80 86 82 76 71 65 63 58 67 68 69 74 71
84 82 84 88 99 93 85 84 91 88 78 81 77 67 64 56 52 47 38 36 33 32 31 28 34 53 47 42 44 48 46 47 42 35 39 41 48 49 45 51 44 45 54 75 81 72 77 64 63 62 60 68 74 76
98 99 94 87 97 89 90 95 96 93 86 90 90 79 67 58 55 54 52 43 37 34 31 28 26 28 54 52 43 41 42 40 36 30 34 44 40 53 50 47 48 46 45 54 62 74 78 77 75 68 69 72 79 78
76 85 94 98 93 83 79 78 91 96 86 82 85 82 73 63 57 58 56 50 45 40 33 29 28 28 27 32 43 52 50 45 34 29 34 32 28 51 58 49 53 52 47 49 57 62 71 78 73 78 80 78 85 88
80 72 67 77 77 68 66 64 65 71 80 79 78 80 78 70 58 57 56 56 52 51 42 36 39 36 34 33 32 33 35 38 35 31 31 28 22 53 56 50 47 50 52 49 54 58 55 64 70 74 83 86 88 90
88 82 75 69 70 67 71 65 65 66 62 60 70 77 75 71 74 64 58 50 42 38 39 42 40 39 40 40 39 38 37 36 33 32 31 24 20 55 58 49 53 53 49 53 58 64 66 68 67 63 72 80 84 88
96 92 90 88 89 92 80 77 76 66 68 68 62 53 45 49 47 57 60 59 51 44 39 37 35 36 35 34 33 31 34 33 34 32 28 22 30 62 46 49 52 47 59 70 72 77 78 76 77 74 72 75 75 88
65 60 58 70 74 67 68 44 31 31 33 36 37 42 35 30 29 28 28 33 34 31 28 26 27 28 28 31 34 38 40 49 38 35 27 26 75 61 48 50 56 57 64 85 96 98 97 90 83 81 83 86 92 96
9 13 14 17 12 11 8 4 4 5 5 6 7 9 15 22 23 16 13 10 9 9 9 10 12 15 18 21 23 25 31 24 27 25 40 82 71 71 78 83 70 70 71 94 100 100 100 100 100 99 98 99 100 100
6 5 5 5 4 4 4 5 6 7 7 5 4 4 11 10 6 5 4 4 4 5 5 6 6 7 9 9 10 13 28 33 30 46 96 100 98 93 98 100 100 100 100 100 100 97 100 99 98 98 98 98 98 99
6 6 6 6 7 7 8 8 8 8 9 9 6 3 4 3 3 3 3 4 4 4 4 4 4 4 4 4 4 4 6 8 10 24 66 82 76 95 100 100 100 100 100 100 100 100 100 100 92 95 92 98 97 100
8 7 7 7 7 7 8 8 8 8 8 7 4 4 4 4 4 4 4 5 6 6 6 7 7 7 7 6 3 3 3 3 4 4 10 34 40 100 100 96 100 98 84 92 99 100 100 100 97 82 70 92 97 99
5 6 6 7 8 8 8 7 8 8 6 5 5 4 4 4 4 4 5 5 5 6 7 7 7 7 5 4 3 3 4 4 4 5 5 6 9 25 55 66 37 88 100 78 78 97 100 100 100 86 77 91 93 100
5 5 6 7 10 15 16 14 12 9 7 6 5 5 5 5 4 4 4 6 6 6 8 7 6 4 3 4 4 4 4 6 5 5 5 4 4 4 4 4 5 6 26 78 92 82 86 96 87 85 94 95 97 100
8 9 13 18 50 56 64 40 28 18 10 7 8 7 7 6 6 6 6 6 7 10 7 6 4 3 4 4 5 5 5 5 5 5 4 5 10 10 9 8 5 7 18 9 19 30 41 60 85 92 90 91 98 100
23 32 74 99 100 100 100 100 100 47 14 10 10 11 10 9 9 7 7 8 12 9 7 4 4 4 5 5 6 6 9 10 6 8 36 18 21 25 26 19 13 6 4 4 36 100 81 70 92 88 79 77 100 100
37 77 100 100 100 100 100 100 100 88 72 43 22 14 29 21 13 11 18 16 10 6 6 6 5 6 6 7 9 11 14 19 46 76 71 63 52 45 39 40 27 14 8 7 69 98 78 100 100 100 100 100 100 100
100 100 100 100 100 100 100 87 99 100 100 48 25 48 43 26 21 30 26 19 16 10 9 9 8 10 13 13 16 10 9 48 78 89 92 90 79 62 47 34 73 70 42 29 29 34 80 100 100 99 100 100 100 100
100 100 100 100 100 100 97 98 95 90 82 60 56 57 34 31 39 36 24 19 12 12 13 12 13 18 19 14 10 8 9 22 43 67 100 93 80 64 40 40 70 75 81 40 29 30 44 94 100 100 100 100 99 100
97 100 100 100 97 98 98 92 89 82 57 50 53 38 33 46 46 41 34 13 15 17 18 26 36 84 86 16 11 12 41 100 96 93 73 65 52 45 57 69 69 84 89 77 74 44 59 98 100 93 92 99 100 100
96 98 100 94 92 93 84 76 72 62 58 59 53 47 50 64 57 38 16 24 42 59 50 100 100 98 83 50 60 50 86 100 79 70 93 100 100 90 71 77 93 100 100 99 92 51 56 72 96 99 100 100 99 98
96 90 92 92 84 77 76 73 73 73 69 61 55 72 80 64 46 20 32 91 100 100 100 100 100 100 100 100 100 57 54 68 58 78 99 96 90 96 92 92 86 91 98 100 100 94 58 63 94 100 100 100 100 100
85 75 69 62 65 68 75 87 92 83 76 72 68 63 62 46 27 47 78 95 100 99 93 100 100 100 100 100 100 100 100 98 74 88 97 90 87 96 95 100 100 90 100 100 100 100 100 100 97 100 100 100 100 100
62 54 59 61 69 80 84 79 72 69 74 93 97 80 64 51 40 55 86 100 86 53 66 78 80 100 100 100 81 100 100 100 91 90 95 79 68 97 100 100 100 92 96 100 100 100 100 84 99 100 100 98 100 100
63 77 88 84 87 82 71 76 83 88 100 100 100 87 58 34 50 91 87 82 80 74 57 30 30 58 74 75 87 94 86 82 68 56 36 35 45 93 100 100 100 100 100 100 100 100 94 100 100 99 95 95 100 100
88 99 98 95 97 91 82 85 87 83 78 83 95 81 35 49 60 60 62 63 57 56 48 30 33 44 50 59 84 76 56 28 14 11 12 19 47 71 100 100 100 100 100 100 98 100 98 99 95 92 98 100 100 100
100 97 84 94 91 100 100 72 76 84 76 66 37 48 46 46 24 29 64 76 55 32 41 61 43 27 43 37 46 52 38 12 11 11 9 10 19 45 99 100 100 100 98 88 85 92 98 92 90 99 100 100 100 100
87 74 74 86 87 90 100 100 68 52 50 42 44 51 50 40 22 32 38 52 66 64 74 79 38 27 28 24 19 22 22 13 10 10 9 8 12 54 96 100 100 96 91 100 100 98 100 100 100 100 100 100 100 100

GFSWCAN_500_rhum_117.txt.gz
RH
9 9 9 9 10 10 9 9 8 7 6 7 9 32 51 54 53 51 46 38 36 44 71 88 80 78 78 68 65 65 55 63 70 69 63 50 37 27 21 14 15 16 25 32 40 36 34 39 50 45 46 46 43 38
12 11 10 10 10 10 10 10 9 8 9 9 10 29 48 56 53 54 51 47 40 36 36 51 70 72 78 93 83 78 85 87 81 78 76 83 88 83 73 73 71 70 74 65 58 59 45 56 55 58 60 62 64 58
13 12 12 12 12 12 10 9 10 10 11 13 12 12 30 55 58 53 54 54 48 43 39 36 37 35 40 59 75 75 73 65 61 62 51 50 63 79 89 94 91 98 96 75 53 70 70 65 62 67 75 76 76 72
82 65 23 10 10 9 10 10 12 14 19 31 36 28 41 49 60 60 53 52 52 52 46 41 41 38 38 37 38 46 44 44 44 41 40 43 42 42 53 66 82 97 73 39 47 81 65 78 76 78 77 69 73 73
89 82 79 76 71 58 63 31 34 26 48 51 58 58 56 51 59 68 59 52 50 51 55 57 53 50 48 42 38 37 38 37 34 33 30 32 36 28 40 48 61 51 47 42 39 43 34 64 90 90 82 75 64 70
94 87 82 79 82 78 67 75 72 56 76 64 64 64 59 59 55 74 77 66 51 46 42 46 56 65 61 62 60 49 42 37 30 26 29 31 35 27 20 40 57 43 44 44 43 43 39 41 40 62 79 82 85 84
100 92 95 96 90 91 86 87 84 86 91 80 70 66 67 65 59 70 79 70 58 51 45 38 44 54 56 56 54 51 51 47 38 32 29 32 37 33 26 48 46 38 37 38 41 36 41 49 44 46 47 58 77 88
100 99 95 89 83 88 89 98 93 83 80 87 86 83 82 84 77 74 86 78 67 58 50 42 38 48 59 58 53 49 44 40 36 34 34 40 39 38 37 55 50 44 41 43 43 40 40 40 53 54 52 52 53 64
100 100 99 100 98 93 85 92 99 95 95 92 91 86 80 86 88 80 79 82 78 70 61 52 55 57 52 53 54 53 48 44 38 35 35 32 29 39 36 35 38 39 37 38 46 47 53 49 49 48 48 51 61 65
100 100 95 87 80 94 98 96 98 92 82 87 89 82 73 70 71 81 83 75 70 72 72 72 68 64 59 59 57 54 47 44 42 38 38 36 33 37 34 31 27 29 31 33 30 35 49 53 62 63 61 60 65 71
100 100 100 100 92 85 86 87 84 78 79 82 82 74 66 64 63 64 70 75 72 68 69 64 61 67 64 63 60 56 51 45 40 36 34 31 28 27 29 29 27 24 22 27 35 46 60 59 56 59 72 77 75 77
100 100 95 89 82 76 75 79 82 78 75 71 72 67 63 61 57 54 50 51 50 50 52 53 47 38 36 33 33 40 44 47 44 41 37 32 25 22 19 18 17 18 19 24 34 42 46 56 68 76 84 89 86 88
77 72 73 72 68 66 69 69 67 63 62 65 61 59 47 43 42 42 43 44 43 39 33 27 26 29 27 21 21 22 23 19 19 19 16 13 18 14 15 16 15 18 29 50 50 60 69 83 94 100 100 99 100 100
82 66 41 44 39 40 38 36 38 33 34 37 41 41 42 35 29 36 37 35 28 18 14 13 11 11 9 8 8 8 10 13 13 12 10 9 9 8 9 9 10 14 43 86 100 100 100 100 100 100 99 100 100 99
27 20 10 11 12 11 12 12 9 9 12 15 18 23 23 25 24 20 16 13 8 7 5 5 5 5 5 5 5 6 6 8 8 5 4 5 4 4 5 13 22 61 94 94 100 100 100 95 92 98 100 100 80 94
7 7 7 7 7 7 7 7 7 8 7 7 7 9 12 14 13 9 6 5 5 5 6 6 8 8 6 6 4 4 4 4 4 4 3 4 4 5 5 5 4 6 17 36 78 76 100 100 100 100 100 100 98 100
9 7 7 8 7 8 9 8 8 8 8 6 4 4 4 5 5 5 5 5 6 6 6 9 13 12 10 7 4 4 4 4 4 4 4 5 5 5 4 4 4 4 5 6 6 6 21 61 78 79 77 95 100 100
7 7 7 8 9 10 10 10 9 9 8 6 6 5 5 5 5 5 5 5 6 6 8 17 22 12 6 4 4 4 4 4 4 4 4 4 4 4 4 4 4 4 4 4 4 4 4 3 4 6 15 68 100 100
5 6 6 6 7 8 11 14 13 9 6 6 6 6 7 6 6 6 6 6 6 7 15 12 9 5 4 4 4 4 5 6 5 5 5 5 4 4 4 4 4 4 4 5 6 8 9 7 4 4 6 55 79 72
6 6 6 6 8 12 32 58 60 43 8 5 6 6 6 6 5 6 7 6 11 23 9 7 7 6 6 6 6 5 6 6 6 4 4 4 4 4 4 4 4 5 10 14 20 24 19 13 12 8 5 10 24 89
16 11 13 14 21 62 89 100 100 90 51 27 16 17 11 9 13 9 7 15 22 8 6 7 8 7 7 7 7 8 7 9 7 6 5 4 4 4 4 6 14 17 20 35 48 44 59 55 28 8 6 7 35 93
16 26 26 40 68 100 100 100 100 100 96 78 52 45 56 28 12 12 45 31 20 18 32 24 18 17 13 12 12 10 9 8 7 7 7 6 4 4 5 19 24 36 56 58 57 56 57 81 64 39 10 15 61 97
86 88 94 79 97 100 95 100 100 100 100 94 75 79 38 17 25 62 52 30 21 18 20 31 24 22 22 19 22 22 19 18 13 10 6 5 6 7 18 31 59 57 59 68 55 49 68 84 89 76 39 21 32 44
100 100 100 100 100 100 100 100 100 96 82 82 84 55 35 57 63 61 47 25 25 32 35 36 42 44 42 36 22 15 12 18 20 12 12 13 11 12 24 82 91 81 98 83 54 68 84 68 61 64 68 57 37 35
100 100 100 100 100 100 100 100 98 94 89 82 76 65 72 84 74 62 34 23 37 48 55 60 72 85 66 27 20 21 27 28 28 21 21 36 82 61 90 98 96 100 100 100 99 81 69 70 94 86 47 51 36 46
100 95 92 89 99 100 93 87 70 66 74 87 90 88 81 75 68 50 33 41 53 55 61 96 96 96 74 40 82 100 100 100 100 100 95 96 92 96 88 94 100 100 100 100 95 96 92 92 95 100 100 92 31 45
84 88 90 86 84 100 98 92 97 100 100 100 99 76 65 64 53 32 36 42 53 48 60 90 95 71 44 82 100 100 100 100 100 100 92 77 93 100 97 91 100 100 100 100 98 100 87 85 92 100 100 96 54 70
49 56 67 74 72 80 100 100 100 100 95 73 58 50 54 55 42 40 48 44 41 43 70 76 70 61 52 90 100 100 100 100 100 100 95 76 74 95 100 98 99 87 96 100 100 100 100 100 88 100 100 100 86 79
99 100 95 83 83 100 100 98 81 58 48 47 56 66 57 50 36 33 32 40 46 45 49 65 72 77 61 74 95 100 100 100 100 97 91 98 100 100 99 97 80 72 98 100 100 100 99 94 98 100 98 68 74 96
55 58 63 69 73 76 73 74 76 78 86 92 97 79 59 29 32 49 46 42 44 49 49 60 60 52 59 64 75 85 99 97 99 95 79 80 100 100 94 45 33 53 99 100 100 100 100 100 100 100 86 72 83 88
83 66 63 66 68 70 83 90 86 100 100 99 84 60 30 30 35 40 48 61 70 79 77 76 83 71 56 45 51 58 69 78 91 76 60 67 85 77 29 12 18 69 100 100 100 100 100 100 100 100 100 94 68 80
100 100 100 100 88 84 93 91 78 75 73 72 80 88 38 30 22 26 49 74 83 78 75 98 97 87 88 53 34 30 30 49 57 66 65 66 65 24 10 9 11 57 95 100 100 100 100 100 100 100 100 100 91 98
64 51 72 91 92 86 74 70 73 80 77 70 68 61 43 41 20 22 37 42 47 62 78 98 97 90 73 61 47 41 29 31 40 42 52 69 49 17 11 10 9 15 68 98 100 100 100 100 100 100 100 100 100 100